Date StartTime U_cm/s V_cm/s W_cm/s Ustd_cm/s Vstd_cm/s Wstd_cm/s Uvar_(cm/s)^2 Vvar_(cm/s)^2 Wvar_(cm/s)^2 KE_(m/s)^2 TurbulentKE_(m/s)^2 HorizWindSpeed_cm/s FrictionSpeec_cm/s DragCoef SpeedOfSound_m/s SonicTemperature_C Pressure_mb 
01/30/2015  00:00:00      -19.368       56.562      -12.699       30.591       19.552       12.657      935.797      382.285      160.211        0.261        0.074       59.786        7.041        0.014      336.989        8.660      864.583
01/30/2015  00:01:00        4.420       51.295        0.802       23.574       28.906       16.334      555.723      835.543      266.811        0.215        0.083       51.485        7.639        0.022      336.922        8.549      864.581
01/30/2015  00:02:00       -3.941       10.277       -0.968       13.208       21.362        9.154      174.445      456.339       83.789        0.042        0.036       11.007       10.797        0.962      336.912        8.531      864.586
01/30/2015  00:03:00      -18.460       17.692       -2.295       17.792       21.275       12.887      316.548      452.622      166.081        0.080        0.047       25.569        9.900        0.150      336.952        8.599      864.591
01/30/2015  00:04:00      -24.200       -5.202        5.399       18.530       31.601       15.861      343.362      998.651      251.584        0.112        0.080       24.753       11.555        0.218      336.821        8.380      864.588
01/30/2015  00:05:00       -8.924        5.672       -0.134       17.294       20.358       14.518      299.070      414.460      210.765        0.052        0.046       10.574        8.813        0.695      336.859        8.443      864.580
01/30/2015  00:06:00      -52.840       34.690      -10.623       21.644       26.810       15.097      468.447      718.792      227.924        0.276        0.071       63.209        4.256        0.005      336.833        8.400      864.574
01/30/2015  00:07:00      -36.704       21.787       -6.911       19.704       32.583       18.626      388.233     1061.677      346.930        0.183        0.090       42.683       16.808        0.155      336.797        8.341      864.567
01/30/2015  00:08:00      -40.722       23.724      -13.100       34.039       32.525       15.735     1158.631     1057.900      247.589        0.243        0.123       47.128       12.995        0.076      336.865        8.452      864.558
01/30/2015  00:09:00      -76.104       46.580      -22.191       18.818       20.461       11.874      354.108      418.647      140.997        0.468        0.046       89.227        6.636        0.006      336.881        8.481      864.543
01/30/2015  00:10:00      -52.272       18.753       -5.753       42.720       34.798       17.616     1825.011     1210.882      310.340        0.323        0.167       55.534       18.798        0.115      336.881        8.481      864.533
01/30/2015  00:11:00      -25.804       39.591        5.536       25.051       28.445       16.312      627.555      809.138      266.092        0.198        0.085       47.258       12.882        0.074      336.666        8.122      864.530
01/30/2015  00:12:00      -53.484       60.256       -4.848       17.905       23.681       13.183      320.603      560.798      173.799        0.378        0.053       80.569       10.020        0.015      336.673        8.133      864.528
01/30/2015  00:13:00      -51.921        7.707      -15.168       17.687       33.784       15.124      312.832     1141.366      228.734        0.233        0.084       52.490       11.703        0.050      336.861        8.447      864.520
01/30/2015  00:14:00      -51.427      -20.087       -9.812       16.451       32.344       13.039      270.621     1046.102      170.017        0.232        0.074       55.211        8.094        0.021      336.683        8.150      864.511
01/30/2015  00:15:00      -34.773      -12.343       -2.867       20.567       25.381       11.165      423.011      644.194      124.648        0.128        0.060       36.898        8.642        0.055      336.591        7.996      864.501
01/30/2015  00:16:00      -20.508        7.264      -12.203       16.126       21.562       10.967      260.058      464.920      120.282        0.073        0.042       21.756        6.833        0.099      336.712        8.198      864.495
01/30/2015  00:17:00       -4.139       -2.368        3.827       21.466       26.175       13.598      460.795      685.140      184.908        0.068        0.067        4.769       16.628       12.159      336.636        8.072      864.482
01/30/2015  00:18:00      -11.826        8.062       -2.399       19.333       26.271       11.515      373.756      690.157      132.587        0.070        0.060       14.313       13.638        0.908      336.717        8.207      864.469
01/30/2015  00:19:00       -4.573        8.042        6.391       12.412       17.808       12.346      154.052      317.124      152.426        0.037        0.031        9.251        8.056        0.758      336.848        8.426      864.458
01/30/2015  00:20:00      -13.229       -3.542        0.779       16.383       28.804       14.655      268.397      829.645      214.780        0.075        0.066       13.695       12.810        0.875      336.739        8.243      864.451
01/30/2015  00:21:00      -12.089        9.196       -7.191       14.478       19.006       12.445      209.620      361.215      154.885        0.050        0.036       15.189        8.566        0.318      336.846        8.420      864.441
01/30/2015  00:22:00        9.953       -9.130       -2.378       11.125       14.541        9.312      123.771      211.432       86.722        0.030        0.021       13.506        4.997        0.137      336.646        8.087      864.432
01/30/2015  00:23:00       -8.453       25.865       -9.652       18.034       16.736       14.200      325.209      280.089      201.628        0.082        0.040       27.211        7.723        0.081      336.853        8.433      864.419
01/30/2015  00:24:00        0.346       28.038      -12.937       13.180       22.515        8.955      173.717      506.923       80.194        0.086        0.038       28.040        6.694        0.057      336.848        8.426      864.410
01/30/2015  00:25:00      -44.997      -19.428      -10.540       31.822       27.784       13.848     1012.631      771.960      191.773        0.224        0.099       49.012        3.676        0.006      336.487        7.823      864.399
01/30/2015  00:26:00      -62.140      -15.125       -9.478       22.397       27.207       16.956      501.607      740.217      287.511        0.285        0.076       63.954       10.884        0.029      336.353        7.598      864.387
01/30/2015  00:27:00      -77.757       -7.347       -3.521       23.047       28.667       14.484      531.182      821.823      209.790        0.384        0.078       78.103       10.880        0.019      336.433        7.733      864.376
01/30/2015  00:28:00      -53.314       -5.255        3.803       44.280       29.556       21.359     1960.738      873.531      456.187        0.309        0.165       53.573       19.482        0.132      336.479        7.809      864.371
01/30/2015  00:29:00      -58.237      -22.347        3.747       34.461       26.248       24.421     1187.544      688.945      596.393        0.319        0.124       62.377       21.515        0.119      336.399        7.674      864.368
01/30/2015  00:30:00      -89.870      -23.769      -11.050       12.205       14.159       10.284      148.967      200.468      105.764        0.461        0.023       92.960        5.480        0.003      336.319        7.541      864.362
01/30/2015  00:31:00      -88.878      -40.789       -1.091       20.384       18.676       10.941      415.502      348.810      119.708        0.522        0.044       97.790       10.313        0.011      336.278        7.472      864.359
01/30/2015  00:32:00      -97.880      -32.780       -0.529       28.112       18.061       13.978      790.293      326.200      195.395        0.598        0.066      103.223       14.205        0.019      336.276        7.469      864.358
01/30/2015  00:33:00     -117.448      -34.581       -7.950       11.767       13.842        9.355      138.471      191.599       87.523        0.774        0.021      122.433        3.159        0.001      336.294        7.500      864.353
01/30/2015  00:34:00     -109.653      -36.951       -3.204       18.176       14.013       11.978      330.382      196.364      143.476        0.703        0.034      115.712        9.381        0.007      336.341        7.578      864.352
01/30/2015  00:35:00     -100.802      -39.521       -2.970       22.345       16.213       12.971      499.318      262.851      168.246        0.633        0.047      108.272        7.309        0.005      336.388        7.657      864.351
01/30/2015  00:36:00     -101.485      -50.511       -1.242       28.224       26.301       18.095      796.613      691.746      327.419        0.733        0.091      113.361       10.972        0.009      336.338        7.574      864.353
01/30/2015  00:37:00      -46.425      -31.055        2.411       29.293       27.889       18.535      858.102      777.782      343.556        0.255        0.099       55.854       14.085        0.064      336.350        7.592      864.356
01/30/2015  00:38:00      -61.857      -36.787        2.487       47.707       28.191       21.199     2275.973      794.714      449.415        0.435        0.176       71.969       21.003        0.085      336.347        7.588      864.350
01/30/2015  00:39:00      -28.062      -29.681        8.143       31.038       26.129       19.449      963.373      682.701      378.278        0.188        0.101       40.846       10.180        0.062      336.394        7.666      864.354
01/30/2015  00:40:00      -44.247      -32.400        6.071       42.642       25.636       18.020     1818.340      657.220      324.717        0.292        0.140       54.841       19.166        0.122      336.380        7.642      864.358
01/30/2015  00:41:00      -35.692      -48.674        4.836       40.460       35.334       18.613     1637.009     1248.494      346.438        0.345        0.162       60.358       16.562        0.075      336.349        7.590      864.354
01/30/2015  00:42:00      -94.964      -88.637      -13.347       24.291       33.350       19.529      590.070     1112.236      381.396        0.957        0.104      129.903       11.787        0.008      336.270        7.459      864.355
01/30/2015  00:43:00      -73.551      -84.225       -5.032       28.238       23.686       20.149      797.365      561.027      405.974        0.715        0.088      111.819       17.975        0.026      336.255        7.433      864.349
01/30/2015  00:44:00      -83.902      -56.575       -2.159       37.729       24.859       19.639     1423.462      617.972      385.708        0.634        0.121      101.194       17.252        0.029      336.281        7.478      864.341
01/30/2015  00:45:00      -11.990      -26.834       10.776       26.494       21.370       20.511      701.928      456.681      420.703        0.128        0.079       29.390       15.916        0.293      336.354        7.600      864.336
01/30/2015  00:46:00      -23.432      -30.354        8.152       28.279       29.810       16.252      799.728      888.642      264.112        0.174        0.098       38.346       14.468        0.142      336.334        7.566      864.332
01/30/2015  00:47:00      -70.498      -62.637       -3.517       33.461       27.766       17.550     1119.634      770.955      308.007        0.555        0.110       94.305       11.573        0.015      336.281        7.479      864.327
01/30/2015  00:48:00      -48.443      -41.096       -0.262       43.114       26.849       16.442     1858.842      720.872      270.327        0.344        0.143       63.526       19.083        0.090      336.221        7.376      864.318
01/30/2015  00:49:00      -52.236      -57.861        5.331       29.007       34.754       17.796      841.418     1207.810      316.709        0.424        0.118       77.952       21.096        0.073      336.244        7.416      864.317
01/30/2015  00:50:00      -46.513      -51.768        7.063       28.243       24.276       17.280      797.662      589.343      298.594        0.329        0.084       69.595       16.501        0.056      336.244        7.415      864.320
01/30/2015  00:51:00      -41.518      -55.289       -5.149       33.171       21.668       16.281     1100.297      469.518      265.064        0.332        0.092       69.142       13.465        0.038      336.201        7.343      864.317
01/30/2015  00:52:00      -39.550      -39.734       -1.635       21.287       25.851       13.602      453.145      668.252      185.003        0.223        0.065       56.062        9.494        0.029      336.174        7.300      864.318
01/30/2015  00:53:00      -71.239      -42.072       -7.725       25.996       20.824       15.756      675.817      433.634      248.263        0.413        0.068       82.735        5.956        0.005      336.128        7.220      864.320
01/30/2015  00:54:00      -47.472      -31.359        3.007       36.417       35.905       18.545     1326.212     1289.176      343.912        0.310        0.148       56.894       14.693        0.067      336.146        7.252      864.328
01/30/2015  00:55:00      -79.503      -39.210       -3.914       30.651       20.110       16.895      939.468      404.421      285.441        0.475        0.081       88.646       12.254        0.019      336.132        7.227      864.334
01/30/2015  00:56:00      -80.410      -57.940       -4.767       32.140       23.042       19.606     1033.005      530.948      384.386        0.590        0.097       99.110       11.035        0.012      336.122        7.212      864.340
01/30/2015  00:57:00      -99.447      -44.601       -3.562       33.822       26.443       16.944     1143.935      699.231      287.084        0.701        0.107      108.991       12.526        0.013      336.131        7.225      864.342
01/30/2015  00:58:00      -87.631      -44.933        0.497       38.037       31.977       25.933     1446.834     1022.546      672.509        0.642        0.157       98.479       21.417        0.047      336.132        7.226      864.337
01/30/2015  00:59:00      -88.408      -57.178        4.289       40.855       31.973       26.649     1669.103     1022.258      710.149        0.725        0.170      105.287       20.549        0.038      336.093        7.162      864.330
01/30/2015  01:00:00      -77.238      -69.547        0.910       52.592       39.729       24.258     2765.873     1578.363      588.447        0.787        0.247      103.935       26.140        0.063      336.016        7.034      864.322
01/30/2015  01:01:00     -104.828     -119.389      -11.699       31.066       35.247       18.361      965.093     1242.363      337.115        1.396        0.127      158.879       10.821        0.005      336.008        7.021      864.302
01/30/2015  01:02:00      -67.558      -34.968        5.848       34.177       23.980       18.155     1168.038      575.059      329.601        0.395        0.104       76.071       19.320        0.065      336.029        7.056      864.295
01/30/2015  01:03:00      -67.621      -53.574        1.365       31.153       26.229       18.761      970.510      687.962      351.971        0.473        0.101       86.271        9.859        0.013      336.052        7.094      864.276
01/30/2015  01:04:00      -56.547      -36.988        0.120       29.523       23.100       16.532      871.585      533.612      273.307        0.312        0.084       67.570       11.328        0.028      336.086        7.151      864.261
01/30/2015  01:05:00      -43.924      -38.327       -5.480       29.257       20.119       16.303      855.963      404.758      265.772        0.248        0.076       58.295        8.823        0.023      336.092        7.161      864.260
01/30/2015  01:06:00      -66.271      -41.229       -0.433       23.462       17.862       15.589      550.475      319.041      243.024        0.360        0.056       78.049       11.934        0.023      336.042        7.077      864.260
01/30/2015  01:07:00      -51.459      -41.131        3.398       46.290       22.650       18.290     2142.810      513.023      334.532        0.367        0.150       65.877       20.495        0.097      336.066        7.118      864.257
01/30/2015  01:08:00      -45.894      -31.783        0.400       30.607       24.727       21.969      936.809      611.443      482.653        0.257        0.102       55.825       19.111        0.117      336.061        7.109      864.259
01/30/2015  01:09:00      -86.576      -61.649       -3.009       21.667       27.886       15.375      469.474      777.641      236.388        0.639        0.074      106.283       15.312        0.021      336.030        7.057      864.258
01/30/2015  01:10:00      -46.031      -46.064       -1.485       32.743       27.528       16.818     1072.083      757.766      282.851        0.318        0.106       65.121       17.382        0.071      336.117        7.202      864.256
01/30/2015  01:11:00      -35.709      -24.812        7.636       38.265       19.520       20.131     1464.225      381.048      405.254        0.210        0.113       43.483       23.310        0.287      336.117        7.202      864.255
01/30/2015  01:12:00      -67.163      -30.918        6.677       38.254       24.451       18.531     1463.380      597.864      343.388        0.396        0.120       73.938       15.742        0.045      336.121        7.208      864.261
01/30/2015  01:13:00      -51.849      -34.457        8.370       35.116       27.168       18.367     1233.102      738.098      337.339        0.313        0.115       62.254       14.072        0.051      336.131        7.226      864.267
01/30/2015  01:14:00      -79.665      -30.943       -0.655       30.503       20.012       16.968      930.442      400.469      287.913        0.446        0.081       85.463       18.396        0.046      336.084        7.147      864.272
01/30/2015  01:15:00     -107.396      -10.516      -11.111       14.686       13.054       13.515      215.664      170.406      182.647        0.617        0.028      107.909        9.144        0.007      335.999        7.006      864.271
01/30/2015  01:16:00      -56.850      -16.415        2.314       23.474       22.625       16.420      551.031      511.873      269.607        0.242        0.067       59.172       13.357        0.051      336.139        7.239      864.284
01/30/2015  01:17:00      -71.776        1.895       -3.039       42.690       26.606       16.221     1822.443      707.888      263.131        0.398        0.140       71.801       20.691        0.083      336.210        7.358      864.296
01/30/2015  01:18:00     -100.757      -16.077       -8.625       15.933       14.272       10.549      253.864      203.680      111.287        0.553        0.028      102.032        7.563        0.005      335.960        6.940      864.305
01/30/2015  01:19:00      -95.748      -21.480      -10.734       14.020       11.104        8.393      196.549      123.296       70.437        0.507        0.020       98.128        3.700        0.001      335.947        6.918      864.310
01/30/2015  01:20:00      -95.455      -36.464       -8.552       13.409       12.203        7.956      179.798      148.901       63.295        0.545        0.020      102.183        5.122        0.003      335.992        6.994      864.305
01/30/2015  01:21:00      -74.931      -41.219       -0.589       16.235       15.108        9.591      263.570      228.243       91.994        0.395        0.029       85.520        6.897        0.007      336.039        7.072      864.303
01/30/2015  01:22:00      -58.083      -34.313        0.355       33.347       15.074       13.619     1112.006      227.214      185.491        0.304        0.076       67.461       17.612        0.068      336.091        7.160      864.292
01/30/2015  01:23:00      -81.545      -15.989       -3.588       20.920       13.358       11.666      437.626      178.424      136.107        0.383        0.038       83.097        9.437        0.013      336.041        7.076      864.291
01/30/2015  01:24:00      -92.614      -12.268       -7.513       18.203       11.489       10.844      331.343      131.994      117.602        0.468        0.029       93.423        5.055        0.003      336.047        7.087      864.293
01/30/2015  01:25:00      -96.901      -24.379      -11.066       16.030       15.190       11.659      256.976      230.751      135.927        0.537        0.031       99.921        6.607        0.004      336.037        7.069      864.297
01/30/2015  01:26:00      -37.227       -2.729       -2.298       29.793       31.694       18.563      887.641     1004.500      344.585        0.182        0.112       37.327       11.596        0.097      336.131        7.227      864.302
01/30/2015  01:27:00      -59.729      -22.568       -0.321       35.737       31.364       18.388     1277.123      983.715      338.127        0.334        0.130       63.850       17.837        0.078      336.104        7.183      864.311
01/30/2015  01:28:00      -74.100      -38.695        0.363       21.256       19.239       14.532      451.820      370.125      211.178        0.401        0.052       83.595       13.379        0.026      336.041        7.075      864.319
01/30/2015  01:29:00      -57.971      -20.155        0.941       30.655       28.448       14.227      939.720      809.301      202.394        0.286        0.098       61.375       10.719        0.031      336.041        7.075      864.321
01/30/2015  01:30:00      -49.217      -40.135        7.913       18.059       13.350       16.158      326.121      178.229      261.068        0.243        0.038       63.507       11.525        0.033      336.091        7.160      864.317
01/30/2015  01:31:00      -79.138      -36.701       -5.682       18.973       14.989       14.649      359.975      224.660      214.603        0.422        0.040       87.234       10.936        0.016      336.047        7.085      864.321
01/30/2015  01:32:00      -85.249      -23.808       -9.953       10.407        9.982        9.121      108.305       99.647       83.189        0.411        0.015       88.512        3.627        0.002      336.069        7.122      864.321
01/30/2015  01:33:00      -54.060      -34.643       -7.945       14.890       15.121       10.149      221.698      228.641      103.003        0.237        0.028       64.208        7.794        0.015      336.075        7.133      864.322
01/30/2015  01:34:00      -70.045      -28.974       -6.833       11.118       12.699        7.597      123.599      161.273       57.709        0.307        0.017       75.801        4.796        0.004      336.069        7.122      864.321
01/30/2015  01:35:00      -67.833      -33.008       -3.854       13.424       11.272        9.688      180.206      127.058       93.860        0.305        0.020       75.438        8.721        0.013      336.097        7.170      864.316
01/30/2015  01:36:00      -53.589      -33.893       -3.103       10.315       12.429        9.444      106.401      154.479       89.190        0.219        0.018       63.408        7.118        0.013      336.135        7.232      864.304
01/30/2015  01:37:00      -56.909      -30.978       -7.140        7.685       10.480        6.741       59.052      109.839       45.446        0.223        0.011       64.794        4.708        0.005      336.116        7.201      864.299
01/30/2015  01:38:00      -40.524      -27.542       -7.887       11.527        9.546        8.885      132.882       91.129       78.941        0.138        0.015       48.997        4.203        0.007      336.183        7.314      864.291
01/30/2015  01:39:00      -31.284      -23.321       -6.329       15.205        7.749        7.071      231.180       60.043       50.004        0.095        0.017       39.020        5.991        0.024      336.146        7.252      864.290
01/30/2015  01:40:00      -25.693      -16.664        0.990       12.418        6.639        8.387      154.209       44.078       70.337        0.060        0.013       30.624        7.035        0.053      336.117        7.204      864.294
01/30/2015  01:41:00      -37.792      -15.418       -4.399        9.065        6.805        5.389       82.181       46.313       29.047        0.092        0.008       40.816        2.454        0.004      336.144        7.249      864.300
01/30/2015  01:42:00      -11.795      -14.795        2.515       15.464        7.987        7.631      239.122       63.795       58.236        0.036        0.018       18.921        9.145        0.234      336.190        7.327      864.301
01/30/2015  01:43:00        5.310      -10.711        1.908        4.721        8.171        8.050       22.288       66.773       64.798        0.015        0.008       11.955        6.860        0.329      336.259        7.442      864.297
01/30/2015  01:44:00       -3.272       -5.980        5.179        8.499        6.844        7.585       72.234       46.843       57.532        0.012        0.009        6.817        6.102        0.801      336.288        7.488      864.284
01/30/2015  01:45:00      -20.713      -16.572       -4.838        8.054       10.619        6.870       64.864      112.755       47.202        0.048        0.011       26.527        6.006        0.051      336.207        7.352      864.278
01/30/2015  01:46:00      -42.383      -20.034       -5.514       10.436        6.439        6.011      108.906       41.463       36.128        0.121        0.009       46.879        4.046        0.007      336.157        7.271      864.275
01/30/2015  01:47:00      -42.658      -32.724       -4.174       11.952       12.147        8.950      142.861      147.554       80.101        0.164        0.019       53.764        3.938        0.005      336.205        7.350      864.265
01/30/2015  01:48:00      -64.518      -36.955       -0.805       18.932       13.816       12.674      358.422      190.886      160.630        0.312        0.035       74.353       10.361        0.019      336.109        7.188      864.255
01/30/2015  01:49:00      -50.070      -30.231        0.946       26.291       20.129       17.814      691.229      405.166      317.322        0.242        0.071       58.489       11.381        0.038      336.103        7.178      864.242
01/30/2015  01:50:00      -61.809      -30.396       -0.672       29.119       19.310       15.571      847.895      372.879      242.461        0.310        0.073       68.879       16.345        0.056      336.051        7.094      864.230
01/30/2015  01:51:00      -76.283      -41.252       -2.270       20.003       21.613       12.407      400.114      467.108      153.927        0.427        0.051       86.723        9.296        0.011      336.049        7.089      864.221
01/30/2015  01:52:00      -87.197      -48.947       -7.039       23.374       16.393       12.512      546.365      268.730      156.549        0.551        0.049       99.996        6.824        0.005      336.051        7.093      864.210
01/30/2015  01:53:00      -56.067      -42.458        0.970       38.004       19.727       18.568     1444.269      389.166      344.770        0.356        0.109       70.329       19.943        0.080      336.048        7.088      864.206
01/30/2015  01:54:00      -88.508      -32.394        1.198       27.833       20.371       16.075      774.686      414.971      258.411        0.517        0.072       94.250       16.886        0.032      336.011        7.026      864.203
01/30/2015  01:55:00       -9.543      -18.927        4.076       28.729       22.308       15.674      825.371      497.642      245.665        0.102        0.078       21.197       10.396        0.241      336.080        7.142      864.199
01/30/2015  01:56:00      -90.478      -53.217       -1.776       37.958       16.854       17.367     1440.809      284.057      301.620        0.652        0.101      104.968       15.078        0.021      335.973        6.961      864.199
01/30/2015  01:57:00      -89.396      -55.912       -6.310       21.329       16.592       12.811      454.907      275.304      164.116        0.603        0.045      105.441        9.949        0.009      335.949        6.922      864.201
01/30/2015  01:58:00      -78.004      -43.661      -15.038       18.313       24.324       13.139      335.370      591.657      172.632        0.466        0.055       89.392        7.702        0.007      335.980        6.972      864.201
01/30/2015  01:59:00      -83.352      -42.041      -13.458       17.467       22.424       17.290      305.096      502.830      298.931        0.500        0.055       93.354       12.648        0.018      335.963        6.946      864.188
01/30/2015  02:00:00      -71.490      -26.952       -4.831       27.735       15.582       10.441      769.227      242.810      109.018        0.349        0.056       76.402        7.576        0.010      335.964        6.949      864.179
01/30/2015  02:01:00     -107.017      -26.583      -12.536       13.302       13.268       11.491      176.955      176.044      132.042        0.640        0.024      110.269        3.625        0.001      335.966        6.950      864.169
01/30/2015  02:02:00      -84.753      -48.266      -10.714       15.014       11.132        9.681      225.422      123.928       93.730        0.504        0.022       97.533        7.579        0.006      335.957        6.936      864.163
01/30/2015  02:03:00      -82.766      -37.413       -5.723       11.822       11.219        7.993      139.751      125.863       63.895        0.431        0.016       90.829        7.711        0.007      335.998        7.005      864.163
01/30/2015  02:04:00      -36.267      -25.313        3.972       28.440       23.020       15.426      808.832      529.937      237.974        0.177        0.079       44.227       18.225        0.170      336.040        7.074      864.159
01/30/2015  02:05:00      -61.810      -27.437       -1.733        9.520       12.070        7.336       90.624      145.678       53.821        0.243        0.015       67.626        4.742        0.005      335.990        6.990      864.164
01/30/2015  02:06:00      -42.994      -28.435       -0.669       20.590       10.784       11.111      423.944      116.291      123.452        0.166        0.033       51.546        6.690        0.017      336.011        7.026      864.163
01/30/2015  02:07:00       -2.727       -6.662       10.978       11.250       12.483        8.447      126.571      155.835       71.358        0.026        0.018        7.199        8.650        1.444      336.116        7.201      864.169
01/30/2015  02:08:00      -12.447      -17.212        2.223       10.167       18.199        8.471      103.362      331.205       71.751        0.048        0.025       21.241        6.752        0.101      336.085        7.148      864.168
01/30/2015  02:09:00       -7.602       -0.015        3.648        5.967        6.928       10.158       35.602       47.992      103.175        0.013        0.009        7.603        5.301        0.486      336.164        7.279      864.170
01/30/2015  02:10:00      -44.184      -15.518       -1.661       12.353        9.486        7.317      152.585       89.993       53.545        0.125        0.015       46.830        4.941        0.011      336.102        7.177      864.172
01/30/2015  02:11:00      -42.695      -26.498       -2.470        8.774        7.239        7.170       76.978       52.406       51.409        0.136        0.009       50.249        3.793        0.006      336.094        7.163      864.170
01/30/2015  02:12:00      -46.934      -25.480       -3.352       10.570       12.591        8.490      111.735      158.541       72.086        0.160        0.017       53.404        6.140        0.013      336.058        7.104      864.164
01/30/2015  02:13:00      -42.398      -27.260       -2.754        9.106        7.018        7.963       82.921       49.256       63.409        0.137        0.010       50.405        4.083        0.007      336.037        7.069      864.157
01/30/2015  02:14:00      -47.737      -28.839       -4.251       14.256        9.756        7.181      203.238       95.187       51.569        0.174        0.017       55.771        3.596        0.004      336.047        7.085      864.159
01/30/2015  02:15:00      -38.355      -21.526       -1.775       14.301       10.181        8.161      204.531      103.648       66.601        0.116        0.019       43.983        3.036        0.005      336.052        7.093      864.163
01/30/2015  02:16:00      -27.143      -24.595       -8.665       14.523        8.593        7.431      210.916       73.845       55.213        0.088        0.017       36.628        4.630        0.016      336.053        7.095      864.162
01/30/2015  02:17:00      -11.567      -10.706        0.106       17.906        7.172        6.315      320.625       51.435       39.877        0.033        0.021       15.761        7.114        0.204      336.073        7.129      864.155
01/30/2015  02:18:00      -14.239       -7.656       -0.542       16.354       10.434        8.682      267.441      108.859       75.382        0.036        0.023       16.167        7.372        0.208      336.089        7.157      864.140
01/30/2015  02:19:00      -20.186      -10.331        4.116       18.124       10.481       10.247      328.467      109.857      105.004        0.054        0.027       22.676       11.689        0.266      336.084        7.147      864.131
01/30/2015  02:20:00      -15.220      -22.690       -0.577       20.162       11.667        5.489      406.498      136.122       30.129        0.066        0.029       27.322        5.331        0.038      336.074        7.132      864.127
01/30/2015  02:21:00      -43.969      -30.490        4.567       24.645       14.986       14.058      607.392      224.593      197.634        0.196        0.051       53.506        8.741        0.027      336.013        7.029      864.119
01/30/2015  02:22:00      -54.097      -32.707        0.050       29.600       21.007       15.034      876.180      441.296      226.013        0.277        0.077       63.216       11.195        0.031      336.035        7.065      864.116
01/30/2015  02:23:00      -43.366      -21.937       -0.325       25.713       15.978       15.274      661.146      255.297      233.301        0.176        0.057       48.599        5.003        0.011      336.039        7.073      864.113
01/30/2015  02:24:00      -57.763      -34.247       -2.709       26.082       17.737       17.085      680.282      314.618      291.882        0.290        0.064       67.152        9.764        0.021      336.033        7.063      864.103
01/30/2015  02:25:00      -44.968      -28.888        2.041       30.122       21.028       19.718      907.311      442.193      388.795        0.230        0.087       53.448       15.036        0.079      335.946        6.919      864.098
01/30/2015  02:26:00      -48.292      -40.480        3.123       29.714       28.423       16.335      882.923      807.849      266.845        0.297        0.098       63.014       19.594        0.097      335.974        6.964      864.090
01/30/2015  02:27:00      -82.686      -51.175       -3.043       29.630       26.461       13.639      877.943      700.164      186.014        0.561        0.088       97.241       15.436        0.025      335.933        6.897      864.074
01/30/2015  02:28:00      -34.627      -57.665        2.220       33.768       34.722       21.110     1140.264     1205.647      445.651        0.366        0.140       67.263       19.976        0.088      335.969        6.956      864.064
01/30/2015  02:29:00      -64.654      -63.733       -2.538       31.041       25.503       16.432      963.523      650.423      270.024        0.507        0.094       90.785       11.718        0.017      335.948        6.923      864.052
01/30/2015  02:30:00      -63.521      -44.229       -6.008       30.191       24.424       16.781      911.503      596.513      281.593        0.391        0.089       77.402       15.210        0.039      335.939        6.906      864.049
01/30/2015  02:31:00     -110.641      -61.228       -6.778       24.768       17.231       15.911      613.476      296.903      253.176        0.860        0.058      126.453       11.544        0.008      335.905        6.850      864.039
01/30/2015  02:32:00      -97.914      -48.013       -6.979       21.938       22.164       15.731      481.262      491.232      247.465        0.658        0.061      109.053       14.145        0.017      335.877        6.803      864.025
01/30/2015  02:33:00      -90.442      -38.614       -4.232       31.205       25.808       12.932      973.730      666.047      167.240        0.575        0.090       98.340       10.564        0.012      335.905        6.851      864.005
01/30/2015  02:34:00     -103.050      -18.784       -6.910       27.949       28.563       18.502      781.170      815.855      342.342        0.648        0.097      104.748       16.407        0.025      335.837        6.737      863.989
01/30/2015  02:35:00     -130.221      -35.492       -6.084       26.300       29.848       17.910      691.695      890.929      320.784        1.008        0.095      134.971       13.874        0.011      335.820        6.708      863.972
01/30/2015  02:36:00     -130.428      -40.079       -2.093       25.118       26.410       17.238      630.909      697.502      297.152        1.012        0.081      136.447       14.361        0.011      335.823        6.715      863.962
01/30/2015  02:37:00     -113.969      -51.562       -1.051       38.131       24.882       18.011     1453.938      619.101      324.391        0.902        0.120      125.090       18.956        0.023      335.799        6.672      863.945
01/30/2015  02:38:00     -124.112      -31.274       -7.440       25.208       23.234       15.759      635.467      539.817      248.345        0.893        0.071      127.992       12.674        0.010      335.794        6.666      863.931
01/30/2015  02:39:00      -92.365       -6.933        4.314       40.237       23.727       21.799     1619.036      562.955      475.181        0.563        0.133       92.625       22.034        0.057      335.760        6.609      863.921
01/30/2015  02:40:00      -97.988      -20.645       -3.963       26.578       22.135       16.799      706.381      489.958      282.222        0.576        0.074      100.139       13.106        0.017      335.744        6.583      863.910
01/30/2015  02:41:00     -100.156      -10.476       -2.693       38.933       21.270       18.471     1515.777      452.417      341.160        0.623        0.115      100.702       21.682        0.046      335.734        6.566      863.909
01/30/2015  02:42:00     -132.134      -33.282       -4.562       26.013       24.980       17.895      676.700      624.005      320.240        1.010        0.081      136.261       13.425        0.010      335.702        6.511      863.898
01/30/2015  02:43:00     -102.547      -38.976       -6.672       24.767       17.767       14.295      613.388      315.654      204.359        0.661        0.057      109.704        6.228        0.003      335.790        6.661      863.887
01/30/2015  02:44:00     -117.988        6.047      -19.965       30.050       24.987       16.747      902.980      624.346      280.472        0.808        0.090      118.142       14.725        0.016      335.906        6.852      863.874
01/30/2015  02:45:00     -118.491      -10.771      -21.544       16.176       16.273       12.293      261.650      264.797      151.106        0.765        0.034      118.979        8.502        0.005      335.722        6.546      863.861
01/30/2015  02:46:00     -112.018       -7.749      -15.371       23.877       21.130       16.556      570.116      446.474      274.085        0.707        0.065      112.286       14.867        0.018      335.784        6.649      863.853
01/30/2015  02:47:00      -93.021       -1.411       -2.804       33.116       24.286       20.705     1096.639      589.812      428.715        0.539        0.106       93.032       20.692        0.049      335.945        6.917      863.841
01/30/2015  02:48:00      -98.884       -9.323       -4.995       25.137       22.594       14.972      631.879      510.496      224.158        0.563        0.068       99.323       13.354        0.018      335.916        6.868      863.842
01/30/2015  02:49:00      -87.849       -2.198       -4.007       36.315       17.857       16.230     1318.746      318.882      263.417        0.482        0.095       87.876       19.491        0.049      335.938        6.904      863.832
01/30/2015  02:50:00      -91.963      -24.595       -5.614       29.391       21.962       14.232      863.855      482.349      202.536        0.532        0.077       95.195       13.171        0.019      335.835        6.733      863.821
01/30/2015  02:51:00     -101.396      -12.739       -8.150       31.115       18.022       12.440      968.125      324.792      154.756        0.598        0.072      102.193       13.365        0.017      335.815        6.700      863.819
01/30/2015  02:52:00      -74.744      -10.899       -1.723       31.641       31.671       19.193     1001.183     1003.079      368.374        0.404        0.119       75.534       18.663        0.061      335.938        6.904      863.815
01/30/2015  02:53:00      -49.266       -8.538        0.081       41.544       31.847       19.548     1725.895     1014.256      382.120        0.281        0.156       50.000       22.143        0.196      336.033        7.064      863.813
01/30/2015  02:54:00      -56.788        1.351       -4.792       46.757       27.662       23.903     2186.179      765.203      571.330        0.339        0.176       56.804       24.971        0.193      336.113        7.198      863.811
01/30/2015  02:55:00      -63.921        1.275       -3.517       47.271       26.832       19.462     2234.538      719.964      378.767        0.372        0.167       63.933       23.123        0.131      336.167        7.286      863.818
01/30/2015  02:56:00      -96.598        0.662       -4.878       38.951       32.821       20.170     1517.185     1077.201      406.848        0.618        0.150       96.600       19.317        0.040      336.179        7.307      863.809
01/30/2015  02:57:00      -29.137       -5.136        8.341       31.932       29.659       21.440     1019.651      879.656      459.667        0.165        0.118       29.586       18.162        0.377      336.126        7.219      863.802
01/30/2015  02:58:00      -31.374       11.092       -1.988       26.845       40.264       17.363      720.674     1621.172      301.459        0.188        0.132       33.277       14.779        0.197      336.062        7.111      863.792
01/30/2015  02:59:00      -69.452       65.468      -12.913       33.669       41.475       19.858     1133.593     1720.157      394.337        0.626        0.162       95.445       18.977        0.040      335.942        6.912      863.788
01/30/2015  03:00:00      -95.605       51.167      -20.783       26.281       31.535       22.522      690.694      994.472      507.237        0.719        0.110      108.437       19.151        0.031      336.033        7.061      863.793
01/30/2015  03:01:00      -46.772       -1.549      -11.920       30.847       24.241       11.542      951.563      587.630      133.214        0.200        0.084       46.798        6.464        0.019      336.098        7.171      863.794
01/30/2015  03:02:00      -69.172       33.994      -15.831       31.196       34.636       15.672      973.163     1199.629      245.607        0.430        0.121       77.074        9.354        0.015      336.093        7.163      863.783
01/30/2015  03:03:00      -55.430       -5.994       -8.284       24.669       28.842       12.977      608.582      831.854      168.399        0.239        0.080       55.753        8.598        0.024      336.130        7.224      863.778
01/30/2015  03:04:00      -55.107       -8.585       -7.040       20.581       23.436       14.849      423.577      549.228      220.497        0.218        0.060       55.772       10.084        0.033      336.120        7.209      863.769
01/30/2015  03:05:00      -45.266       -6.568       -3.780       32.115       15.260       13.103     1031.401      232.869      171.690        0.177        0.072       45.740       12.450        0.074      336.130        7.224      863.757
01/30/2015  03:06:00      -47.846      -11.390       -4.638       17.641       19.311       14.804      311.208      372.928      219.161        0.167        0.045       49.183        8.494        0.030      336.046        7.084      863.755
01/30/2015  03:07:00      -47.135      -17.989       -7.205       21.041       17.890        9.269      442.705      320.066       85.910        0.172        0.042       50.451       11.128        0.049      335.958        6.939      863.758
01/30/2015  03:08:00      -34.123      -20.530      -13.702       22.622       13.567       10.793      511.763      184.051      116.482        0.129        0.041       39.823        4.802        0.015      335.900        6.841      863.757
01/30/2015  03:09:00      -59.864      -10.018       -4.821       17.079       16.211       12.582      291.688      262.806      158.304        0.221        0.036       60.696        8.594        0.020      335.884        6.816      863.755
01/30/2015  03:10:00      -54.625       -7.943       -7.879       17.720       18.060        9.678      313.986      326.147       93.663        0.192        0.037       55.199        9.261        0.028      335.922        6.879      863.759
01/30/2015  03:11:00      -42.625      -21.328       -4.345       27.265       23.328       12.474      743.369      544.179      155.593        0.187        0.072       47.663        9.192        0.037      335.869        6.790      863.749
01/30/2015  03:12:00      -16.998       -5.392       -5.033       16.837       19.137       12.297      283.476      366.228      151.209        0.057        0.040       17.833        9.763        0.300      335.948        6.920      863.743
01/30/2015  03:13:00      -20.394       -8.653        1.183       16.928       21.907       15.274      286.573      479.915      233.307        0.075        0.050       22.154       11.811        0.284      335.882        6.812      863.737
01/30/2015  03:14:00      -29.531      -12.772        2.321       27.416       21.369       16.268      751.610      456.620      264.664        0.126        0.074       32.175       14.442        0.201      335.774        6.631      863.739
01/30/2015  03:15:00      -55.690      -10.231       -3.012       23.643       13.601       11.669      558.994      184.988      136.161        0.205        0.044       56.622       10.444        0.034      335.777        6.637      863.739
01/30/2015  03:16:00      -74.004      -20.948      -13.364        7.922       10.100        7.041       62.764      102.019       49.577        0.315        0.011       76.912        2.604        0.001      335.622        6.379      863.740
01/30/2015  03:17:00      -56.893      -17.146      -10.495       15.031       14.326        9.224      225.926      205.222       85.091        0.208        0.026       59.420        5.425        0.008      335.668        6.457      863.735
01/30/2015  03:18:00      -48.099      -12.804      -10.042       18.010       16.783       10.046      324.349      281.658      100.925        0.164        0.035       49.774        6.590        0.018      335.722        6.545      863.731
01/30/2015  03:19:00      -27.698       -4.614       -4.562       21.866       16.613        9.342      478.109      276.008       87.279        0.083        0.042       28.080        8.272        0.087      335.788        6.656      863.728
01/30/2015  03:20:00      -23.869      -26.205       -6.407       16.245       14.740        6.198      263.908      217.262       38.420        0.091        0.026       35.446        6.483        0.033      335.733        6.564      863.716
01/30/2015  03:21:00       -7.247       -7.573        1.553       12.295       20.282        8.948      151.155      411.353       80.074        0.038        0.032       10.482        6.304        0.362      335.832        6.727      863.710
01/30/2015  03:22:00      -19.993      -11.567       -2.840       10.610       14.859       12.419      112.570      220.799      154.240        0.051        0.024       23.098        5.406        0.055      335.854        6.766      863.698
01/30/2015  03:23:00      -28.297      -12.636       -5.416       15.953       13.081        9.261      254.490      171.112       85.773        0.075        0.026       30.990        5.970        0.037      335.763        6.613      863.691
01/30/2015  03:24:00      -13.119      -16.417       -2.020       16.172        7.949       10.552      261.529       63.190      111.353        0.044        0.022       21.015        9.181        0.191      335.744        6.583      863.699
01/30/2015  03:25:00      -33.134      -18.585       -2.205       17.634        8.724        8.236      310.953       76.113       67.838        0.095        0.023       37.990        8.637        0.052      335.712        6.530      863.702
01/30/2015  03:26:00      -38.616      -30.722       -7.519       13.587       10.375        6.853      184.594      107.646       46.960        0.142        0.017       49.346        4.821        0.010      335.699        6.508      863.698
01/30/2015  03:27:00      -11.654       -0.749       -5.328       14.990        6.473        7.383      224.715       41.906       54.515        0.024        0.016       11.678        8.495        0.529      335.871        6.792      863.693
01/30/2015  03:28:00       -1.580       -8.049        2.930        3.317        4.789        5.509       11.001       22.937       30.353        0.007        0.003        8.203        2.584        0.099      335.884        6.816      863.684
01/30/2015  03:29:00        2.619       -2.941       13.932       15.594        9.297       11.910      243.167       86.434      141.839        0.034        0.024        3.938        8.331        4.474      335.918        6.871      863.676
01/30/2015  03:30:00      -44.017      -12.045       -6.400       11.935        9.662        8.699      142.451       93.353       75.675        0.122        0.016       45.636        4.165        0.008      335.606        6.353      863.662
01/30/2015  03:31:00      -65.135      -12.785       -8.366       12.218       16.128        9.518      149.283      260.125       90.585        0.249        0.025       66.378        7.243        0.012      335.582        6.312      863.653
01/30/2015  03:32:00      -69.361      -13.670      -11.862       19.016       13.551       12.143      361.619      183.622      147.450        0.292        0.035       70.696       11.194        0.025      335.616        6.369      863.644
01/30/2015  03:33:00      -47.183        6.836      -15.077       17.736       28.735       16.704      314.551      825.698      279.010        0.196        0.071       47.675       11.514        0.058      335.794        6.665      863.632
01/30/2015  03:34:00      -40.330       10.228       -6.689       17.876       22.970       12.149      319.559      527.601      147.606        0.139        0.050       41.607       11.415        0.075      335.948        6.921      863.627
01/30/2015  03:35:00      -18.028        1.299        1.004       22.532       29.451       13.557      507.670      867.388      183.797        0.094        0.078       18.075       12.427        0.473      336.000        7.009      863.623
01/30/2015  03:36:00      -36.737      -16.279       -9.220       14.670       12.738        8.778      215.206      162.254       77.061        0.108        0.023       40.182        8.537        0.045      335.661        6.443      863.617
01/30/2015  03:37:00      -21.893        1.219       -2.466       17.626       22.072       13.478      310.671      487.162      181.669        0.073        0.049       21.927       10.598        0.234      335.873        6.797      863.606
01/30/2015  03:38:00      -16.630        5.864        0.955       24.441       13.729       15.203      597.363      188.485      231.122        0.066        0.051       17.634       10.214        0.335      335.746        6.585      863.601
01/30/2015  03:39:00      -21.175       -3.481       -2.273       11.524       13.734        6.547      132.794      188.612       42.860        0.041        0.018       21.459        6.106        0.081      335.823        6.714      863.592
01/30/2015  03:40:00      -26.487      -20.260       -1.620        7.135        8.296        3.663       50.911       68.819       13.419        0.062        0.007       33.347        1.393        0.002      335.751        6.593      863.589
01/30/2015  03:41:00        2.017       -2.043       -5.468       12.981       13.950        5.632      168.506      194.590       31.719        0.022        0.020        2.871        5.103        3.159      336.027        7.054      863.579
01/30/2015  03:42:00       14.823       36.231       -5.208        6.502       10.666        5.496       42.272      113.756       30.205        0.087        0.009       39.146        5.163        0.017      336.264        7.447      863.578
01/30/2015  03:43:00       -9.066       17.184       -6.462       22.193       20.248        8.112      492.521      409.968       65.800        0.069        0.048       19.429        7.724        0.158      336.062        7.112      863.575
01/30/2015  03:44:00       11.633       27.338        3.215       20.613       13.021       13.391      424.896      169.545      179.306        0.083        0.039       29.710       10.716        0.130      336.070        7.124      863.573
01/30/2015  03:45:00      -27.060      -10.158        2.853        7.516        8.911       11.581       56.494       79.400      134.127        0.056        0.014       28.904        7.207        0.062      335.853        6.764      863.570
01/30/2015  03:46:00      -24.116      -15.990       -3.150        7.930        7.853        5.984       62.893       61.675       35.803        0.050        0.008       28.935        4.260        0.022      335.815        6.699      863.564
01/30/2015  03:47:00      -22.964       -8.239      -10.312        6.457        5.080        4.590       41.687       25.811       21.065        0.040        0.004       24.397        2.046        0.007      335.894        6.832      863.566
01/30/2015  03:48:00      -21.242      -19.332       -3.533        8.817       11.194        5.108       77.742      125.302       26.090        0.053        0.011       28.722        4.924        0.029      335.994        6.998      863.564
01/30/2015  03:49:00      -36.105      -13.015       -8.551        7.311        7.826        4.462       53.455       61.250       19.910        0.084        0.007       38.379        2.019        0.003      335.835        6.733      863.561
01/30/2015  03:50:00      -45.839      -22.023       -5.722        9.473        9.165        5.529       89.736       83.993       30.574        0.141        0.010       50.855        4.402        0.007      335.864        6.782      863.553
01/30/2015  03:51:00      -56.671      -29.563       -1.505        9.242        8.334        6.813       85.422       69.448       46.414        0.214        0.010       63.918        4.167        0.004      335.799        6.674      863.549
01/30/2015  03:52:00      -49.967      -32.932       -6.568       13.797        8.370        8.770      190.361       70.049       76.906        0.198        0.017       59.843        5.121        0.007      335.809        6.690      863.537
01/30/2015  03:53:00      -39.981      -33.281       -2.522       13.784       14.501       10.878      189.988      210.267      118.327        0.162        0.026       52.020       10.437        0.040      335.862        6.778      863.526
01/30/2015  03:54:00      -44.301      -25.960       -2.248       26.597       13.250       10.918      707.423      175.574      119.211        0.182        0.050       51.347        7.064        0.019      335.835        6.734      863.516
01/30/2015  03:55:00      -59.058      -20.970       -3.572       12.613       13.706        7.077      159.098      187.853       50.088        0.217        0.020       62.670        3.870        0.004      335.811        6.693      863.517
01/30/2015  03:56:00      -61.748      -23.321       -3.908       11.410       12.720        9.508      130.197      161.803       90.394        0.238        0.019       66.005        7.356        0.012      335.852        6.762      863.518
01/30/2015  03:57:00      -62.308      -18.714       -5.322       15.272       12.630       10.006      233.248      159.524      100.123        0.238        0.025       65.058        9.018        0.019      335.808        6.690      863.515
01/30/2015  03:58:00      -38.895      -13.139        1.742       16.034       11.592       10.189      257.080      134.372      103.807        0.109        0.025       41.054        9.671        0.055      335.748        6.590      863.510
01/30/2015  03:59:00      -24.390      -15.746       -0.344       15.630        6.464        8.575      244.300       41.787       73.531        0.060        0.018       29.031        7.545        0.068      335.798        6.674      863.503
01/30/2015  04:00:00      -44.667      -16.497       -7.919        5.652        6.085        4.589       31.940       37.025       21.062        0.121        0.005       47.616        2.585        0.003      335.777        6.639      863.495
01/30/2015  04:01:00      -57.901      -11.577       -5.686       10.314        9.556        6.909      106.380       91.325       47.734        0.188        0.012       59.047        4.584        0.006      335.712        6.530      863.483
01/30/2015  04:02:00      -63.732       -7.236       -7.871       12.501       11.949       10.936      156.276      142.789      119.589        0.230        0.021       64.142        6.411        0.010      335.780        6.643      863.469
01/30/2015  04:03:00      -26.714        3.679        4.026       21.546       22.636       12.052      464.235      512.400      145.248        0.093        0.056       26.966       11.338        0.177      335.931        6.893      863.460
01/30/2015  04:04:00       10.173      -24.512        2.532       15.733       10.604       11.775      247.534      112.453      138.656        0.060        0.025       26.539        5.499        0.043      335.930        6.890      863.448
01/30/2015  04:05:00       22.257       -1.236       12.332       17.727       13.427       15.458      314.245      180.275      238.954        0.069        0.037       22.291       11.819        0.281      336.007        7.019      863.438
01/30/2015  04:06:00        6.343      -17.612       -0.101       10.712       21.719       12.031      114.739      471.736      144.747        0.054        0.037       18.719       12.085        0.417      336.045        7.083      863.432
01/30/2015  04:07:00      -21.191      -16.405       -3.612       21.434       12.030        8.092      459.426      144.729       65.485        0.070        0.033       26.799        6.198        0.053      335.875        6.800      863.440
01/30/2015  04:08:00      -38.770      -13.005       -6.959        5.550        5.285        5.807       30.802       27.936       33.722        0.091        0.005       40.893        3.121        0.006      335.721        6.543      863.434
01/30/2015  04:09:00      -28.496      -12.877       -0.044       16.193        8.100        4.960      262.198       65.611       24.597        0.067        0.018       31.271        2.230        0.005      335.778        6.638      863.434
01/30/2015  04:10:00       -8.107       -9.331        0.968        6.576        9.494        6.029       43.239       90.134       36.348        0.016        0.008       12.361        3.242        0.069      335.825        6.717      863.423
01/30/2015  04:11:00       12.949      -14.052       -2.974       13.315        7.736        9.107      177.283       59.838       82.932        0.035        0.016       19.108        8.108        0.180      335.913        6.863      863.420
01/30/2015  04:12:00       -0.920       -3.377       22.470       15.422       22.435       20.132      237.827      503.350      405.286        0.083        0.057        3.500       14.432       17.008      335.938        6.904      863.401
01/30/2015  04:13:00        1.852       15.249       29.014       13.084       18.099       12.892      171.179      327.591      166.201        0.087        0.033       15.361       12.117        0.622      335.912        6.862      863.402
01/30/2015  04:14:00       25.660       32.556       20.302       27.874       15.623       25.020      776.980      244.091      625.995        0.189        0.082       41.453       14.772        0.127      335.823        6.713      863.410
01/30/2015  04:15:00       22.095        3.678       -3.361       10.133       13.684       10.070      102.672      187.246      101.401        0.045        0.020       22.399        8.265        0.136      335.790        6.658      863.411
01/30/2015  04:16:00        4.079        0.299       10.441       12.045        9.921       10.788      145.084       98.429      116.375        0.024        0.018        4.090        6.856        2.810      335.883        6.813      863.405
01/30/2015  04:17:00       24.948       41.130       40.560       25.347       13.247       15.723      642.467      175.487      247.200        0.251        0.053       48.105       15.537        0.104      335.763        6.615      863.402
01/30/2015  04:18:00       27.063       19.988       27.839       19.903       17.425       16.504      396.111      303.618      272.395        0.144        0.049       33.644        9.674        0.083      335.792        6.662      863.408
01/30/2015  04:19:00       16.442       -8.349        5.409       19.683       11.890       10.652      387.401      141.363      113.464        0.051        0.032       18.440       12.959        0.494      335.856        6.770      863.406
01/30/2015  04:20:00       -9.785      -23.570        8.281        7.656       12.992       11.407       58.619      168.780      130.120        0.054        0.018       25.521        6.020        0.056      335.825        6.717      863.406
01/30/2015  04:21:00       -6.715      -10.072        7.179       10.086       10.871       11.588      101.722      118.178      134.284        0.028        0.018       12.106        8.153        0.454      335.835        6.733      863.401
01/30/2015  04:22:00       -2.440       -0.016       18.518        8.536        7.336        6.682       72.868       53.813       44.645        0.026        0.009        2.440        4.175        2.927      335.946        6.916      863.402
01/30/2015  04:23:00      -19.180       -0.528       11.082        7.091        7.346        7.999       50.276       53.969       63.991        0.033        0.008       19.187        6.341        0.109      335.845        6.750      863.400
01/30/2015  04:24:00        0.092        0.846        4.999        6.670        4.257        5.207       44.488       18.119       27.115        0.006        0.004        0.851        2.457        8.326      335.882        6.810      863.398
01/30/2015  04:25:00       -8.966       -4.576       -5.754        6.249        5.579        3.834       39.050       31.121       14.700        0.011        0.004       10.066        3.255        0.105      335.795        6.667      863.398
01/30/2015  04:26:00        7.958       10.381        2.599       17.228       10.047        6.828      296.788      100.933       46.621        0.031        0.022       13.080        4.144        0.100      335.858        6.771      863.392
01/30/2015  04:27:00       46.438       28.502       11.704       17.226       12.302       12.473      296.720      151.351      155.578        0.185        0.030       54.487        9.785        0.032      335.937        6.901      863.393
01/30/2015  04:28:00       22.463       25.938       20.666       22.255       15.135       11.499      495.271      229.055      132.218        0.123        0.043       34.313        6.851        0.040      335.930        6.892      863.387
01/30/2015  04:29:00       25.496        7.100       10.405       18.932       16.129       11.286      358.409      260.130      127.374        0.078        0.037       26.467        8.511        0.103      335.909        6.859      863.384
01/30/2015  04:30:00       24.812      -25.526        0.831       13.631       15.245       13.185      185.794      232.411      173.853        0.093        0.030       35.597        6.942        0.038      335.937        6.905      863.371
01/30/2015  04:31:00       13.839       17.494       19.294       15.076       11.587        6.961      227.284      134.268       48.449        0.064        0.021       22.306        5.979        0.072      335.892        6.830      863.373
01/30/2015  04:32:00       26.739       14.566        4.603        7.309        4.996        5.784       53.415       24.959       33.453        0.053        0.006       30.449        4.170        0.019      335.838        6.740      863.380
01/30/2015  04:33:00       17.925       18.702       13.988        7.822        5.940        7.234       61.177       35.281       52.324        0.051        0.007       25.906        4.876        0.035      335.837        6.737      863.383
01/30/2015  04:34:00       24.659       15.562       13.017        9.057        6.795        7.884       82.035       46.170       62.150        0.060        0.010       29.159        4.043        0.019      335.815        6.697      863.386
01/30/2015  04:35:00       26.328       25.368       20.451       13.770        9.773        7.172      189.605       95.505       51.431        0.105        0.017       36.561        3.625        0.010      335.805        6.684      863.383
01/30/2015  04:36:00       27.406       15.772       12.938       11.417       11.139       10.034      130.357      124.074      100.691        0.076        0.018       31.620        3.384        0.011      335.783        6.649      863.383
01/30/2015  04:37:00       29.390        8.007        0.604       12.652        7.644       11.121      160.076       58.429      123.668        0.064        0.017       30.461        8.940        0.086      335.755        6.602      863.381
01/30/2015  04:38:00       26.325       23.251       17.185       13.974        8.540        9.737      195.279       72.932       94.806        0.095        0.018       35.123        8.463        0.058      335.772        6.629      863.382
01/30/2015  04:39:00       23.825       17.180       14.627       10.489        6.136        9.535      110.027       37.645       90.920        0.066        0.012       29.373        5.372        0.033      335.737        6.572      863.382
01/30/2015  04:40:00       10.167       13.416        9.661       19.114       19.513       12.283      365.346      380.774      150.862        0.064        0.045       16.833       14.939        0.788      335.785        6.650      863.383
01/30/2015  04:41:00        7.140       17.249       26.464       14.881       12.020        5.146      221.446      144.473       26.486        0.072        0.020       18.668        4.229        0.051      335.867        6.787      863.379
01/30/2015  04:42:00        0.133        2.078       11.083        9.943        8.850        9.669       98.856       78.322       93.491        0.020        0.014        2.082        6.816       10.714      335.856        6.768      863.375
01/30/2015  04:43:00       27.108       15.485       12.946        5.929        5.306        5.339       35.151       28.149       28.507        0.062        0.005       31.219        3.049        0.010      335.823        6.710      863.371
01/30/2015  04:44:00       19.859       13.219        4.418        3.574        3.340        4.134       12.776       11.156       17.087        0.031        0.002       23.857        2.677        0.013      335.815        6.698      863.360
01/30/2015  04:45:00       10.061        6.937        3.408        5.279        4.747        3.759       27.872       22.537       14.133        0.011        0.003       12.221        2.556        0.044      335.835        6.733      863.347
01/30/2015  04:46:00       -7.710        0.377        2.291       17.226        6.987        3.899      296.737       48.815       15.203        0.021        0.018        7.719        6.164        0.638      335.792        6.662      863.337
01/30/2015  04:47:00      -42.112      -12.499       -4.616        9.893        6.860        4.617       97.863       47.059       21.313        0.106        0.008       43.928        2.387        0.003      335.703        6.515      863.320
01/30/2015  04:48:00      -52.989        1.921       -8.056       22.952       16.561       11.117      526.813      274.260      123.587        0.190        0.046       53.023       10.419        0.039      335.585        6.317      863.306
01/30/2015  04:49:00      -79.296      -16.690       -8.527       26.786       13.753       11.862      717.472      189.156      140.706        0.384        0.052       81.034       12.706        0.025      335.564        6.281      863.290
01/30/2015  04:50:00      -80.033      -10.919      -11.103       16.759       14.493       10.114      280.863      210.051      102.292        0.362        0.030       80.775        6.196        0.006      335.539        6.241      863.274
01/30/2015  04:51:00      -79.610       -8.110      -15.859       10.304       11.962       10.423      106.176      143.091      108.640        0.351        0.018       80.022        7.285        0.008      335.614        6.367      863.258
01/30/2015  04:52:00      -79.166      -11.054      -16.904       15.305       17.697        8.190      234.236      313.201       67.070        0.364        0.031       79.934        5.638        0.005      335.717        6.537      863.242
01/30/2015  04:53:00      -78.771      -14.873       -8.401       23.871       16.987       13.174      569.804      288.557      173.552        0.376        0.052       80.163       10.799        0.018      335.613        6.364      863.230
01/30/2015  04:54:00      -35.892       -4.949        2.366       30.853       25.971       16.800      951.897      674.479      282.256        0.161        0.095       36.231       11.032        0.093      335.713        6.530      863.217
01/30/2015  04:55:00      -31.437      -16.918        3.756       25.640       11.308       12.195      657.430      127.876      148.717        0.111        0.047       35.700       14.035        0.155      335.722        6.545      863.193
01/30/2015  04:56:00      -35.811      -17.741       -3.115       10.867        7.960        5.398      118.098       63.354       29.143        0.091        0.011       39.964        4.880        0.015      335.739        6.573      863.182
01/30/2015  04:57:00      -23.935       -5.098        2.737       10.828        6.155        5.643      117.247       37.887       31.842        0.040        0.009       24.472        6.238        0.065      335.746        6.586      863.164
01/30/2015  04:58:00      -27.853      -19.245       -1.835       14.149        5.214        6.823      200.203       27.188       46.549        0.071        0.014       33.855        3.298        0.009      335.735        6.569      863.162
01/30/2015  04:59:00       -5.958       -8.206        3.653        8.926        6.224        6.510       79.674       38.739       42.385        0.014        0.008       10.141        3.842        0.144      335.759        6.608      863.165
01/30/2015  05:00:00        0.993       -3.721        1.865        4.325        3.414        5.171       18.703       11.655       26.736        0.004        0.003        3.852        2.332        0.366      335.785        6.649      863.162
01/30/2015  05:01:00      -32.585       -8.379       -0.980       11.610       10.336       13.575      134.798      106.823      184.272        0.078        0.021       33.645        9.250        0.076      335.859        6.775      863.162
01/30/2015  05:02:00      -49.049      -30.263       -2.046       15.562       12.442        7.843      242.188      154.813       61.509        0.189        0.023       57.633        5.314        0.009      335.753        6.596      863.165
01/30/2015  05:03:00      -21.096      -36.551       -3.972       14.677       16.964       10.149      215.412      287.791      102.995        0.120        0.030       42.202        8.460        0.040      335.805        6.685      863.178
01/30/2015  05:04:00       -6.338       -4.444        7.134       15.693        9.921       13.165      246.268       98.433      173.317        0.031        0.026        7.740       10.248        1.753      335.780        6.643      863.184
01/30/2015  05:05:00      -26.332      -18.670        5.782       21.257       12.478        9.274      451.843      155.690       86.013        0.088        0.035       32.279        9.311        0.083      335.778        6.639      863.183
01/30/2015  05:06:00      -31.871      -24.822       -5.841       14.226        9.053        6.620      202.386       81.954       43.819        0.100        0.016       40.396        4.526        0.013      335.794        6.666      863.182
01/30/2015  05:07:00      -11.431      -16.080       -1.069       14.052        8.397        9.665      197.463       70.502       93.420        0.038        0.018       19.729        6.546        0.110      335.822        6.711      863.179
01/30/2015  05:08:00      -16.160      -24.457       -4.838       13.427       11.806        7.020      180.281      139.379       49.285        0.063        0.018       29.313        5.968        0.041      335.904        6.849      863.182
01/30/2015  05:09:00       -3.487      -66.949      -10.347       20.245       15.870       15.358      409.878      251.866      235.871        0.275        0.045       67.039       13.519        0.041      335.787        6.654      863.192
01/30/2015  05:10:00      -12.849      -45.321      -14.007       29.982       22.426       17.326      898.896      502.926      300.194        0.206        0.085       47.107       11.235        0.057      335.802        6.678      863.196
01/30/2015  05:11:00      -37.251      -33.509       -1.880       30.943       28.298       16.937      957.459      800.782      286.856        0.228        0.102       50.105        9.917        0.039      335.830        6.724      863.195
01/30/2015  05:12:00      -35.789      -27.375        3.735       28.580       24.472       15.511      816.814      598.866      240.584        0.185        0.083       45.059       11.110        0.061      335.768        6.624      863.196
01/30/2015  05:13:00      -75.477      -71.241       -1.494       36.790       25.613       20.818     1353.508      656.004      433.390        0.661        0.122      103.788       20.711        0.040      335.700        6.509      863.196
01/30/2015  05:14:00      -63.574      -59.303        5.577       48.356       45.348       24.202     2338.318     2056.441      585.735        0.628        0.249       86.940       25.610        0.087      335.650        6.425      863.196
01/30/2015  05:15:00      -32.880      -36.212       14.576       67.060       29.359       26.998     4497.030      861.952      728.902        0.435        0.304       48.913       25.094        0.263      335.564        6.282      863.194
01/30/2015  05:16:00      -45.038      -36.507       -4.923       39.714       30.528       25.042     1577.214      931.958      627.109        0.326        0.157       57.975       14.476        0.062      335.521        6.210      863.194
01/30/2015  05:17:00      -47.075      -34.714       -1.610       41.999       33.039       17.679     1763.913     1091.606      312.532        0.330        0.158       58.490        8.597        0.022      335.527        6.220      863.189
01/30/2015  05:18:00      -37.518      -34.249       -4.024       52.457       29.814       22.457     2751.715      888.869      504.304        0.337        0.207       50.800       16.614        0.107      335.486        6.151      863.179
01/30/2015  05:19:00      -52.547      -30.371       12.535       45.799       27.908       22.833     2097.512      778.845      521.367        0.362        0.170       60.692       18.719        0.095      335.446        6.085      863.178
01/30/2015  05:20:00      -54.967      -45.940        4.072       48.787       34.955       21.800     2380.134     1221.855      475.233        0.461        0.204       71.637       25.562        0.127      335.374        5.964      863.173
01/30/2015  05:21:00      -65.469      -46.492      -10.057       21.346       22.193       17.242      455.659      492.543      297.284        0.390        0.062       80.298       14.391        0.032      335.416        6.035      863.165
01/30/2015  05:22:00      -34.360       -0.828       -0.480       14.982       12.036       11.830      224.459      144.857      139.942        0.085        0.025       34.370        6.080        0.031      335.442        6.079      863.159
01/30/2015  05:23:00      -54.570      -18.331       -7.776       15.930       13.620       11.549      253.770      185.499      133.377        0.197        0.029       57.567        9.741        0.029      335.494        6.164      863.158
01/30/2015  05:24:00      -65.549      -28.151       -8.629       32.764       12.599       13.191     1073.497      158.726      173.998        0.328        0.070       71.338       11.111        0.024      335.444        6.082      863.152
01/30/2015  05:25:00      -50.520      -41.818       -2.558       31.884       26.123       15.230     1016.573      682.408      231.947        0.312        0.097       65.582       11.852        0.033      335.421        6.044      863.145
01/30/2015  05:26:00      -38.565      -19.779       -0.931       18.953       14.314       12.126      359.216      204.878      147.042        0.130        0.036       43.342        7.727        0.032      335.475        6.132      863.150
01/30/2015  05:27:00      -16.399      -16.915       -1.837       15.527        8.870        4.624      241.089       78.679       21.381        0.045        0.017       23.559        6.637        0.079      335.621        6.377      863.146
01/30/2015  05:28:00       -7.475       -5.997       -3.405       10.383        8.415        7.533      107.813       70.820       56.739        0.017        0.012        9.583        5.535        0.334      335.606        6.352      863.142
01/30/2015  05:29:00      -63.246      -18.394       -6.072       16.517       17.359       10.285      272.826      301.324      105.779        0.253        0.034       65.867        5.569        0.007      335.475        6.133      863.147
01/30/2015  05:30:00      -61.836      -32.205      -15.040       16.856       10.174        9.194      284.124      103.517       84.538        0.278        0.024       69.719        7.324        0.011      335.476        6.135      863.154
01/30/2015  05:31:00      -54.066      -38.083        0.036       26.651       15.678       15.631      710.268      245.785      244.322        0.279        0.060       66.132       11.934        0.033      335.475        6.134      863.161
01/30/2015  05:32:00      -10.347      -30.634        2.997       18.482       18.179       13.448      341.590      330.493      180.861        0.095        0.043       32.334        8.731        0.073      335.464        6.115      863.156
01/30/2015  05:33:00        2.570      -35.037        8.649       18.094       28.313       28.676      327.393      801.649      822.324        0.163        0.098       35.131       20.499        0.340      335.590        6.326      863.143
01/30/2015  05:34:00       -7.067       -1.794       22.869       17.862       17.274       16.677      319.049      298.385      278.135        0.074        0.045        7.291       11.603        2.533      335.548        6.255      863.134
01/30/2015  05:35:00      -44.040       -6.220       -3.598       25.828       27.779       13.747      667.086      771.662      188.987        0.181        0.081       44.477       12.329        0.077      335.586        6.319      863.130
01/30/2015  05:36:00      -85.770       -8.138       -2.554       31.082       17.516       13.727      966.062      306.818      188.422        0.445        0.073       86.155       12.419        0.021      335.490        6.158      863.124
01/30/2015  05:37:00      -62.954      -27.990        2.781       21.327       19.628       13.470      454.825      385.264      181.444        0.289        0.051       68.896       11.435        0.028      335.409        6.023      863.125
01/30/2015  05:38:00        1.512      -10.143        6.789        8.507       10.549       11.989       72.365      111.277      143.731        0.024        0.016       10.255        7.626        0.553      335.476        6.135      863.121
01/30/2015  05:39:00      -28.330      -20.974       -2.692       24.637       15.336       12.086      606.957      235.179      146.070        0.112        0.049       35.249       12.792        0.132      335.559        6.273      863.125
01/30/2015  05:40:00      -12.974      -24.261        0.638       19.048       16.888       10.099      362.826      285.200      101.988        0.075        0.038       27.513        2.092        0.006      335.569        6.291      863.140
01/30/2015  05:41:00       -8.434      -15.834        9.046       18.419       18.553       16.351      339.274      344.215      267.356        0.068        0.048       17.940       13.960        0.606      335.473        6.130      863.146
01/30/2015  05:42:00      -25.435      -31.600       10.566       29.067       19.585       14.092      844.893      383.578      198.584        0.159        0.071       40.565       13.010        0.103      335.395        5.998      863.156
01/30/2015  05:43:00      -49.154      -20.757        0.103       16.084       13.109       12.206      258.701      171.850      148.989        0.171        0.029       53.357        9.454        0.031      335.325        5.882      863.159
01/30/2015  05:44:00      -49.762      -10.191       -5.712       10.513        8.321        7.168      110.523       69.240       51.387        0.142        0.012       50.795        4.465        0.008      335.398        6.003      863.159
01/30/2015  05:45:00      -54.445       -8.480       -6.754       12.250       20.568        8.443      150.059      423.048       71.290        0.186        0.032       55.101        3.501        0.004      335.409        6.024      863.158
01/30/2015  05:46:00      -72.116      -13.124       -7.866       18.444       17.683        8.310      340.179      312.694       69.063        0.308        0.036       73.300        6.151        0.007      335.405        6.015      863.158
01/30/2015  05:47:00      -67.408      -26.222       -7.791       15.340       15.778       10.103      235.312      248.954      102.080        0.294        0.029       72.328        3.595        0.002      335.402        6.011      863.161
01/30/2015  05:48:00      -71.214      -10.785       -4.554       21.844       16.428       13.092      477.173      269.866      171.410        0.306        0.046       72.026       10.673        0.022      335.315        5.867      863.163
01/30/2015  05:49:00      -88.030       -2.426       -0.092       24.476       18.927       14.778      599.064      358.245      218.403        0.447        0.059       88.064       11.675        0.018      335.181        5.644      863.166
01/30/2015  05:50:00      -84.912       -9.974       -2.819       16.600       11.068       12.512      275.570      122.504      156.543        0.394        0.028       85.496       10.042        0.014      335.166        5.620      863.163
01/30/2015  05:51:00      -80.082      -16.405       -3.112       21.423       13.119       13.110      458.962      172.096      171.877        0.375        0.040       81.745       12.699        0.024      335.221        5.708      863.163
01/30/2015  05:52:00      -52.344      -13.690        3.482       30.913       17.698       12.321      955.623      313.205      151.798        0.218        0.071       54.104        9.888        0.033      335.212        5.696      863.160
01/30/2015  05:53:00      -51.746      -24.717        2.721       34.029       17.462        9.570     1157.967      304.926       91.593        0.242        0.078       57.347       15.249        0.071      335.242        5.744      863.160
01/30/2015  05:54:00      -67.033      -45.693        3.278       27.304       19.213       14.963      745.514      369.151      223.892        0.397        0.067       81.125       12.175        0.023      335.259        5.773      863.158
01/30/2015  05:55:00      -58.901      -36.925        7.044       29.136       24.533       17.435      848.887      601.858      303.966        0.332        0.088       69.518        9.979        0.021      335.278        5.805      863.160
01/30/2015  05:56:00      -77.692      -10.651        3.221       27.800       20.085       14.643      772.837      403.409      214.424        0.377        0.070       78.418       14.129        0.032      335.202        5.677      863.168
01/30/2015  05:57:00      -91.694      -10.378       -3.198       29.732       20.153       16.741      883.984      406.128      280.261        0.505        0.079       92.279       15.809        0.029      335.150        5.591      863.174
01/30/2015  05:58:00     -105.147        4.340       -5.850       26.132       17.010       18.303      682.892      289.330      335.000        0.621        0.065      105.236       15.360        0.021      335.092        5.499      863.177
01/30/2015  05:59:00      -62.767        0.163       -3.082       41.216       21.689       22.990     1698.742      470.403      528.545        0.332        0.135       62.767       22.669        0.130      335.134        5.567      863.170
01/30/2015  06:00:00      -83.821       -6.741       -7.059       24.431       16.789       14.222      596.861      281.883      202.252        0.410        0.054       84.092       12.628        0.023      335.142        5.580      863.166
01/30/2015  06:01:00      -78.904      -19.254      -14.350       15.590       14.627       11.845      243.062      213.947      140.311        0.370        0.030       81.219        9.011        0.012      335.107        5.523      863.161
01/30/2015  06:02:00      -60.810      -35.690       -5.971       15.775       17.642       10.706      248.846      311.248      114.621        0.284        0.034       70.509        6.915        0.010      335.126        5.554      863.155
01/30/2015  06:03:00      -27.643        6.657       -2.387       13.959       26.620       12.252      194.847      708.620      150.102        0.093        0.053       28.433        9.570        0.113      335.169        5.624      863.149
01/30/2015  06:04:00      -41.702       -6.420        4.692       30.767       35.995       14.834      946.635     1295.671      220.049        0.213        0.123       42.193       13.171        0.097      335.127        5.555      863.159
01/30/2015  06:05:00      -31.741       17.645       -4.430       37.821       29.597       17.946     1430.458      875.977      322.072        0.198        0.131       36.316       13.401        0.136      335.185        5.651      863.171
01/30/2015  06:06:00      -51.083       34.824       -7.495       32.058       36.178       12.557     1027.736     1308.839      157.673        0.319        0.125       61.824       14.948        0.058      335.255        5.768      863.176
01/30/2015  06:07:00      -38.711       -0.158       -1.940       24.958       30.434       16.042      622.926      926.205      257.338        0.165        0.090       38.711        8.896        0.053      335.261        5.776      863.178
01/30/2015  06:08:00      -39.081        2.005        3.873       31.003       33.815       20.119      961.166     1143.470      404.771        0.203        0.125       39.132       18.674        0.228      335.297        5.837      863.185
01/30/2015  06:09:00      -42.978       17.760       -8.263       32.630       35.232       18.562     1064.728     1241.298      344.558        0.244        0.133       46.503       20.482        0.194      335.281        5.809      863.194
01/30/2015  06:10:00      -50.586       52.853      -16.708       18.300       26.467       15.174      334.906      700.524      230.261        0.345        0.063       73.160        8.418        0.013      335.306        5.852      863.196
01/30/2015  06:11:00      -64.399       40.509      -15.484       20.041       28.302       15.040      401.649      801.011      226.197        0.373        0.071       76.080       13.316        0.031      335.295        5.832      863.199
01/30/2015  06:12:00      -67.424       17.299      -13.461       21.346       28.884       14.856      455.670      834.263      220.711        0.327        0.076       69.608        4.552        0.004      335.384        5.980      863.198
01/30/2015  06:13:00      -36.802        5.666       -4.022       27.427       32.323       13.189      752.224     1044.765      173.953        0.169        0.099       37.236       12.384        0.111      335.325        5.883      863.197
01/30/2015  06:14:00      -67.778      -15.080       -4.447       28.416       22.649       14.063      807.458      512.979      197.767        0.318        0.076       69.436        7.250        0.011      335.214        5.700      863.191
01/30/2015  06:15:00      -71.229      -13.063       -6.959       35.352       29.486       15.768     1249.769      869.401      248.623        0.383        0.118       72.417       17.051        0.055      335.215        5.699      863.192
01/30/2015  06:16:00      -56.164      -21.601        2.897       24.689       26.903       13.493      609.525      723.745      182.051        0.257        0.076       60.175       11.707        0.038      335.202        5.677      863.195
01/30/2015  06:17:00      -42.175      -37.110       -2.779       26.415       15.322        9.417      697.758      234.750       88.671        0.209        0.051       56.177        7.318        0.017      335.066        5.456      863.199
01/30/2015  06:18:00      -22.247      -20.424       -7.349       18.066       16.038       10.865      326.390      257.203      118.046        0.083        0.035       30.201        4.685        0.024      335.004        5.351      863.197
01/30/2015  06:19:00       -2.446      -27.552        3.439        9.725       11.336        6.202       94.574      128.499       38.464        0.052        0.013       27.660        2.347        0.007      334.974        5.300      863.192
01/30/2015  06:20:00       -8.033      -21.900       -0.585       10.002       10.610        9.266      100.032      112.578       85.862        0.042        0.015       23.327        4.047        0.030      335.079        5.475      863.188
01/30/2015  06:21:00      -12.730      -16.689        0.167       10.513       10.576        7.138      110.529      111.857       50.955        0.036        0.014       20.989        3.372        0.026      335.211        5.693      863.189
01/30/2015  06:22:00      -22.212       -1.006        1.562        6.067        5.097        4.841       36.812       25.984       23.439        0.029        0.004       22.235        3.100        0.019      335.241        5.744      863.191
01/30/2015  06:23:00      -30.503        9.281       -2.937       10.287        9.187        4.167      105.823       84.399       17.361        0.062        0.010       31.883        2.984        0.009      335.307        5.852      863.198
01/30/2015  06:24:00      -19.308        6.143        0.520        7.639       10.245        6.990       58.353      104.966       48.854        0.031        0.011       20.262        5.472        0.073      335.313        5.862      863.197
01/30/2015  06:25:00       -2.681       25.272       -2.820        9.605       23.589        8.166       92.263      556.435       66.689        0.068        0.036       25.413       10.177        0.160      335.388        5.989      863.188
01/30/2015  06:26:00       -8.698       36.378        2.881        7.016       10.905        7.978       49.226      118.911       63.650        0.082        0.012       37.403        6.701        0.032      335.430        6.056      863.179
01/30/2015  06:27:00      -21.627        2.629        0.361       20.627       18.249       10.015      425.475      333.037      100.303        0.067        0.043       21.787       10.076        0.214      335.217        5.702      863.170
01/30/2015  06:28:00      -44.735      -14.414       -6.958        9.745        7.205        6.011       94.966       51.915       36.135        0.122        0.009       47.000        4.188        0.008      334.841        5.081      863.167
01/30/2015  06:29:00      -10.688      -16.506       -4.766        8.424        7.743        4.498       70.969       59.947       20.234        0.028        0.008       19.664        1.619        0.007      335.018        5.374      863.169
01/30/2015  06:30:00        4.996       -3.291       -1.152        5.169        3.962        4.641       26.722       15.699       21.539        0.005        0.003        5.983        3.190        0.284      335.201        5.677      863.168
01/30/2015  06:31:00        1.783        4.536       -1.957        3.582        4.092        2.937       12.833       16.748        8.624        0.003        0.002        4.874        2.147        0.194      335.329        5.888      863.176
01/30/2015  06:32:00        9.943        0.944        1.993        3.084        5.156        3.570        9.511       26.583       12.743        0.008        0.002        9.988        3.234        0.105      335.420        6.041      863.175
01/30/2015  06:33:00        7.071        2.169       -1.641        5.920        5.020        5.065       35.042       25.196       25.656        0.007        0.004        7.396        2.947        0.159      335.269        5.789      863.173
01/30/2015  06:34:00        0.273        4.987        0.103        3.183        4.679        3.719       10.134       21.894       13.832        0.004        0.002        4.994        2.025        0.164      335.283        5.813      863.175
01/30/2015  06:35:00      -14.239      -12.255       -2.651        6.916        8.844        6.202       47.826       78.213       38.466        0.026        0.008       18.787        5.299        0.080      335.144        5.582      863.169
01/30/2015  06:36:00      -17.880      -15.872       -4.177       11.659        8.287        5.652      135.938       68.674       31.948        0.041        0.012       23.908        3.593        0.023      335.071        5.462      863.164
01/30/2015  06:37:00      -35.893      -20.582      -10.322        9.704       13.536        5.620       94.177      183.218       31.587        0.106        0.015       41.375        4.912        0.014      334.850        5.094      863.169
01/30/2015  06:38:00      -16.603      -33.626       -8.613       13.029        7.337        7.190      169.766       53.832       51.698        0.088        0.014       37.501        6.154        0.027      335.005        5.351      863.162
01/30/2015  06:39:00      -38.267      -14.424       -4.714        9.184        6.531        4.548       84.346       42.648       20.681        0.092        0.007       40.895        2.300        0.003      335.175        5.631      863.156
01/30/2015  06:40:00      -35.749      -23.371       -6.600       13.985        7.568        5.878      195.584       57.276       34.547        0.108        0.014       42.711        4.127        0.009      335.060        5.444      863.154
01/30/2015  06:41:00      -14.379      -21.866       -3.674       11.180        8.162        8.557      124.999       66.620       73.218        0.048        0.013       26.170        4.236        0.026      334.989        5.327      863.152
01/30/2015  06:42:00      -34.582      -20.796       -6.238        6.951        5.877        3.907       48.319       34.542       15.268        0.088        0.005       40.353        3.124        0.006      335.196        5.669      863.148
01/30/2015  06:43:00      -34.002      -21.130       -8.081       10.010        8.461        8.008      100.199       71.588       64.129        0.095        0.012       40.032        4.775        0.014      334.932        5.231      863.141
01/30/2015  06:44:00      -38.528      -13.104       -4.695        8.611       12.608        6.699       74.149      158.973       44.874        0.098        0.014       40.695        4.573        0.013      334.849        5.093      863.139
01/30/2015  06:45:00      -22.417      -35.502       -2.350       10.808        9.505        5.394      116.816       90.337       29.097        0.100        0.012       41.986        4.762        0.013      335.054        5.434      863.133
01/30/2015  06:46:00      -42.788      -21.690       -6.654       16.582       10.189        6.208      274.960      103.815       38.534        0.138        0.021       47.972        5.964        0.015      335.226        5.718      863.131
01/30/2015  06:47:00     -107.978      -16.060      -10.756       28.960       22.224       15.547      838.680      493.909      241.704        0.680        0.079      109.166       13.875        0.016      334.721        4.880      863.127
01/30/2015  06:48:00      -66.701       35.842      -12.855       33.548       35.854       17.159     1125.450     1285.518      294.441        0.430        0.135       75.721       10.154        0.018      335.081        5.478      863.129
01/30/2015  06:49:00      -40.380        3.383       -7.586       15.069       24.113       11.370      227.067      581.432      129.278        0.132        0.047       40.521        9.975        0.061      335.216        5.703      863.123
01/30/2015  06:50:00      -47.723       -2.277       -7.580       27.334       21.706       15.643      747.123      471.157      244.715        0.190        0.073       47.778       16.613        0.121      334.929        5.227      863.123
01/30/2015  06:51:00      -38.604       11.073      -13.329       14.365       24.617       12.420      206.346      605.988      154.267        0.138        0.048       40.161        9.302        0.054      335.285        5.815      863.122
01/30/2015  06:52:00      -58.859       -7.096      -11.307       24.646       19.489       11.106      607.441      379.817      123.352        0.238        0.056       59.285        9.709        0.027      334.821        5.048      863.127
01/30/2015  06:53:00      -41.639       -2.911       -3.338       24.438       22.245       15.327      597.225      494.834      234.904        0.154        0.066       41.741       12.025        0.083      334.915        5.203      863.128
01/30/2015  06:54:00      -36.691        8.828      -10.813       24.295       29.801       11.131      590.264      888.113      123.899        0.157        0.080       37.738       10.812        0.082      335.026        5.387      863.121
01/30/2015  06:55:00       -8.492       33.670        9.228       18.628       23.202       18.395      346.997      538.317      338.371        0.126        0.061       34.725       17.509        0.254      335.317        5.870      863.117
01/30/2015  06:56:00       13.024       42.006       -2.399       10.020        8.270        4.863      100.397       68.386       23.651        0.107        0.010       43.979        2.040        0.002      335.552        6.265      863.106
01/30/2015  06:57:00       -5.839       21.471       -3.890        4.660        6.483        3.996       21.720       42.030       15.970        0.029        0.004       22.251        2.688        0.015      335.624        6.384      863.104
01/30/2015  06:58:00       -0.571        3.788        9.363       16.902       14.143       14.433      285.674      200.036      208.318        0.040        0.035        3.830        7.779        4.124      335.392        5.996      863.104
01/30/2015  06:59:00        9.950       41.202       -8.407       26.526       42.672       12.290      703.612     1820.891      151.044        0.227        0.134       42.386       18.952        0.200      335.361        5.944      863.105
01/30/2015  07:00:00       -1.408       64.639       -4.688       17.850       19.349       11.579      318.610      374.375      134.071        0.251        0.041       64.654       11.071        0.029      335.418        6.040      863.108
01/30/2015  07:01:00       -1.678       48.607      -11.407       27.231       33.152       10.142      741.517     1099.078      102.867        0.222        0.097       48.636       13.801        0.081      335.464        6.115      863.116
01/30/2015  07:02:00       -8.121       51.225       -6.697       14.037       17.294        9.170      197.025      299.092       84.089        0.166        0.029       51.865        8.372        0.026      335.479        6.139      863.110
01/30/2015  07:03:00        2.740       41.654       -9.167       23.883       19.905       10.671      570.416      396.222      113.869        0.145        0.054       41.744        9.879        0.056      335.559        6.273      863.108
01/30/2015  07:04:00      -13.349       37.476       -3.594       25.669       20.600       12.285      658.873      424.348      150.928        0.141        0.062       39.782        8.241        0.043      335.410        6.027      863.105
01/30/2015  07:05:00       21.937       19.658       17.810       22.399       15.773       16.075      501.720      248.792      258.391        0.110        0.050       29.456        7.206        0.060      335.361        5.944      863.103
01/30/2015  07:06:00      -11.276        3.843        1.992       12.361        7.992        7.704      152.784       63.869       59.345        0.021        0.014       11.913        4.561        0.147      335.111        5.528      863.101
01/30/2015  07:07:00      -19.950      -16.359       -1.190       18.261       16.906        8.728      333.472      285.826       76.175        0.068        0.035       25.800        8.505        0.109      335.199        5.674      863.101
01/30/2015  07:08:00      -37.201      -13.115       -3.568       22.912       11.127       12.484      524.963      123.804      155.850        0.119        0.040       39.445       11.853        0.090      335.086        5.487      863.108
01/30/2015  07:09:00       -1.057       46.386       -7.662       19.624       29.067       13.581      385.101      844.870      184.448        0.181        0.071       46.398       12.779        0.076      335.359        5.941      863.113
01/30/2015  07:10:00       35.521       13.223       14.500       25.761       34.289       23.906      663.643     1175.748      571.519        0.203        0.121       37.902       12.786        0.114      335.398        6.005      863.115
01/30/2015  07:11:00       17.308       16.997        2.543        9.152       26.893       10.252       83.759      723.222      105.095        0.075        0.046       24.258        4.725        0.038      335.160        5.609      863.120
01/30/2015  07:12:00       27.710       13.319        6.978       22.759       16.448       14.346      517.962      270.528      205.817        0.099        0.050       30.744       10.645        0.120      335.341        5.909      863.119
01/30/2015  07:13:00      -42.807      -16.387       -6.774       18.853       14.383        5.207      355.434      206.879       27.108        0.137        0.029       45.836        6.463        0.020      335.132        5.565      863.116
01/30/2015  07:14:00      -16.543      -37.549       -0.764        8.497       17.172        5.978       72.195      294.862       35.733        0.104        0.020       41.031        4.096        0.010      335.206        5.686      863.105
01/30/2015  07:15:00      -46.858      -22.200       -7.192       21.517        7.880        6.185      462.962       62.089       38.258        0.165        0.028       51.850        4.030        0.006      335.154        5.599      863.100
01/30/2015  07:16:00      -45.590      -14.567        3.368       26.367       16.997       11.641      695.231      288.902      135.508        0.171        0.056       47.860       10.912        0.052      334.881        5.146      863.099
01/30/2015  07:17:00        2.857       -1.456       -0.090       19.987       19.545       20.071      399.487      381.994      402.853        0.060        0.059        3.206        8.262        6.640      335.142        5.579      863.106
01/30/2015  07:18:00      -20.687       -0.815       -3.304       37.741       37.278       16.599     1424.382     1389.625      275.540        0.176        0.154       20.704       10.685        0.266      335.345        5.915      863.104
01/30/2015  07:19:00      -10.743        1.600        4.201       16.117       28.074       12.855      259.764      788.151      165.239        0.067        0.061       10.862        7.156        0.434      335.238        5.737      863.110
01/30/2015  07:20:00      -16.614       37.441      -11.100       13.102       25.325        9.204      171.657      641.376       84.720        0.135        0.045       40.962       11.041        0.073      335.346        5.917      863.111
01/30/2015  07:21:00      -48.325       -8.916       -9.331       30.681       23.429       11.397      941.294      548.910      129.883        0.206        0.081       49.141       10.988        0.050      335.271        5.795      863.111
01/30/2015  07:22:00     -117.145       73.244      -26.525       63.844       69.785       31.029     4076.003     4869.886      962.821        1.485        0.495      138.158       40.671        0.087      335.467        6.119      863.115
01/30/2015  07:23:00      -33.544      250.535      -34.893       58.941       69.231       23.157     3474.045     4792.917      536.249        3.696        0.440      252.771       20.390        0.007      335.598        6.334      863.114
01/30/2015  07:24:00      -15.401      167.752      -18.664       35.721       54.130       30.239     1275.989     2930.032      914.401        1.692        0.256      168.457       32.868        0.038      335.512        6.193      863.106
01/30/2015  07:25:00      -42.948       48.758        0.412       37.629       28.158       26.905     1415.911      792.882      723.892        0.358        0.147       64.976       23.471        0.130      335.498        6.171      863.104
01/30/2015  07:26:00     -147.693      132.201      -31.094       55.867       64.466       37.814     3121.124     4155.855     1429.905        2.448        0.435      198.218       32.584        0.027      335.507        6.183      863.117
01/30/2015  07:27:00      -79.038      115.830      -14.321       59.083       49.200       32.346     3490.817     2420.674     1046.262        1.341        0.348      140.227       31.853        0.052      335.533        6.232      863.116
01/30/2015  07:28:00      -67.263      150.718      -28.340       42.095       68.225       29.768     1772.010     4654.672      886.142        1.768        0.366      165.046       33.346        0.041      335.568        6.288      863.108
01/30/2015  07:29:00      -64.192      127.661      -21.871       43.337       34.113       22.556     1878.117     1163.722      508.764        1.222        0.178      142.892       19.580        0.019      335.517        6.203      863.110
01/30/2015  07:30:00     -131.913       85.485      -28.652       44.051       51.072       24.264     1940.458     2608.312      588.746        1.533        0.257      157.190       29.213        0.035      335.598        6.336      863.109
01/30/2015  07:31:00     -100.403       89.503      -15.507       50.982       43.930       24.647     2599.176     1929.878      607.486        1.173        0.257      134.505       18.872        0.020      335.587        6.320      863.097
01/30/2015  07:32:00      -87.956      115.053      -29.090       53.770       67.803       25.206     2891.163     4597.267      635.346        1.497        0.406      144.822       25.402        0.031      335.577        6.302      863.093
01/30/2015  07:33:00      -67.636      174.798      -25.220       50.128       88.300       31.680     2512.782     7796.973     1003.621        2.354        0.566      187.428       25.573        0.019      335.530        6.223      863.084
01/30/2015  07:34:00      -76.732       64.707       -7.934       47.043       34.153       33.683     2213.049     1166.440     1134.538        0.733        0.226      100.373       25.455        0.064      335.635        6.399      863.080
01/30/2015  07:35:00      -58.277      136.945      -19.244       65.059       62.452       32.519     4232.728     3900.277     1057.487        1.585        0.460      148.829       16.378        0.012      335.515        6.200      863.078
01/30/2015  07:36:00      -83.419      125.105      -19.333       59.550       47.526       29.236     3546.164     2258.698      854.743        1.482        0.333      150.367       32.898        0.048      335.540        6.242      863.073
01/30/2015  07:37:00      -76.120      180.817      -21.399       60.100       75.627       37.666     3612.038     5719.405     1418.691        2.485        0.538      196.186       29.105        0.022      335.527        6.219      863.079
01/30/2015  07:38:00      -75.045      178.906      -26.965       43.815       97.201       41.368     1919.740     9448.077     1711.308        2.572        0.654      194.008       44.511        0.053      335.506        6.183      863.082
01/30/2015  07:39:00      -91.701       82.609      -16.462       54.924       70.184       36.945     3016.644     4925.733     1364.906        1.240        0.465      123.423       38.756        0.099      335.546        6.252      863.077
01/30/2015  07:40:00     -120.593      247.973      -32.081       58.599      100.599       44.780     3433.788    10120.097     2005.230        4.631        0.778      275.742       50.205        0.033      335.525        6.214      863.081
01/30/2015  07:41:00      -94.784      186.450      -34.155       54.918       56.554       34.057     3015.932     3198.317     1159.861        2.614        0.369      209.159       33.660        0.026      335.535        6.230      863.076
01/30/2015  07:42:00      -74.800      251.305      -26.450       46.832       69.909       38.515     2193.201     4887.282     1483.371        3.900        0.428      262.201       27.676        0.011      335.490        6.156      863.078
01/30/2015  07:43:00      -98.989      177.835      -27.940       57.541       64.598       34.250     3310.997     4172.950     1173.086        2.543        0.433      203.530       34.376        0.029      335.527        6.217      863.079
01/30/2015  07:44:00      -80.709      208.743      -30.065       49.374       71.383       38.078     2437.760     5095.553     1449.965        2.999        0.449      223.802       38.469        0.030      335.507        6.184      863.092
01/30/2015  07:45:00      -93.672      227.953      -29.274       51.870       71.203       31.334     2690.503     5069.886      981.825        3.517        0.437      246.449       26.890        0.012      335.505        6.180      863.101
01/30/2015  07:46:00      -56.138      192.669      -21.802       40.745       59.736       29.854     1660.142     3568.408      891.260        2.343        0.306      200.681       26.985        0.018      335.479        6.139      863.091
01/30/2015  07:47:00     -118.682      152.689      -34.414       54.761       69.778       29.036     2998.725     4869.021      843.085        2.365        0.436      193.389       26.552        0.019      335.558        6.270      863.094
01/30/2015  07:48:00      -66.504      119.507       -9.008       53.425       77.901       33.509     2854.280     6068.631     1122.877        1.441        0.502      136.765       33.234        0.059      335.599        6.340      863.090
01/30/2015  07:49:00      -62.199       80.680      -10.438       41.722       41.127       28.670     1740.742     1691.403      821.970        0.737        0.213      101.872       26.809        0.069      335.546        6.252      863.108
01/30/2015  07:50:00      -93.547       98.397      -21.133       35.458       42.073       23.926     1257.292     1770.144      572.436        1.124        0.180      135.768       20.460        0.023      335.561        6.275      863.121
01/30/2015  07:51:00      -62.957      154.787      -22.394       35.188       49.052       28.190     1238.177     2406.053      794.664        1.643        0.222      167.101       19.372        0.013      335.483        6.146      863.120
01/30/2015  07:52:00     -109.686      127.426      -31.646       52.605       45.702       27.601     2767.336     2088.630      761.836        1.744        0.281      168.132       21.550        0.016      335.539        6.240      863.125
01/30/2015  07:53:00      -24.702      106.848        4.112       37.188       78.690       42.467     1382.975     6192.047     1803.424        1.071        0.469      109.666       41.397        0.142      335.504        6.182      863.118
01/30/2015  07:54:00      -78.066      135.014      -14.435       43.867       51.433       33.448     1924.285     2645.370     1118.793        1.511        0.284      155.959       28.425        0.033      335.539        6.240      863.122
01/30/2015  07:55:00      -62.205      129.403      -17.875       40.227       65.553       20.178     1618.204     4297.237      407.155        1.363        0.316      143.578       12.816        0.008      335.532        6.228      863.128
01/30/2015  07:56:00      -97.744       76.080      -19.340       42.050       54.047       21.605     1768.183     2921.125      466.756        1.044        0.258      123.863       17.153        0.019      335.591        6.327      863.131
01/30/2015  07:57:00      -85.095       97.516      -16.112       80.969       44.612       26.491     6556.018     1990.261      701.792        1.313        0.462      129.424       29.830        0.053      335.638        6.404      863.135
01/30/2015  07:58:00      -90.247       78.790      -17.652       63.475       50.461       26.560     4029.063     2546.318      705.440        1.097        0.364      119.802       29.620        0.061      335.583        6.313      863.134
01/30/2015  07:59:00     -109.372      204.471      -42.837       45.280       53.911       33.475     2050.247     2906.394     1120.598        3.084        0.304      231.886       20.780        0.008      335.474        6.128      863.139
01/30/2015  08:00:00      -98.279      105.696      -19.343       39.224       60.213       28.886     1538.559     3625.663      834.400        1.360        0.300      144.327       23.944        0.028      335.553        6.264      863.144
01/30/2015  08:01:00     -130.488      173.339      -37.247       60.347       66.667       46.223     3641.723     4444.465     2136.609        2.934        0.511      216.964       43.587        0.040      335.518        6.202      863.153
01/30/2015  08:02:00     -137.980      107.906      -32.178       26.608       35.514       22.712      707.984     1261.263      515.837        1.710        0.124      175.164       14.657        0.007      335.514        6.199      863.152
01/30/2015  08:03:00     -105.540      124.690      -16.513       59.753       62.500       39.589     3570.362     3906.209     1567.284        1.800        0.452      163.359       37.293        0.052      335.533        6.228      863.166
01/30/2015  08:04:00      -73.786      163.097      -28.102       36.897       50.067       26.890     1361.395     2506.738      723.049        1.871        0.230      179.012       18.490        0.011      335.493        6.162      863.174
01/30/2015  08:05:00     -110.216      138.287      -34.348       51.014       60.061       29.648     2602.395     3607.271      878.984        1.977        0.354      176.836       18.067        0.010      335.508        6.187      863.178
01/30/2015  08:06:00     -156.353      140.003      -32.655       59.653       58.695       36.041     3558.502     3445.071     1298.946        2.671        0.415      209.874       35.818        0.029      335.492        6.159      863.191
01/30/2015  08:07:00     -122.160      158.067      -36.224       49.674       60.721       34.126     2467.525     3687.071     1164.570        2.427        0.366      199.771       33.018        0.027      335.477        6.132      863.200
01/30/2015  08:08:00     -141.495      132.516      -32.179       50.624       49.151       32.976     2562.740     2415.813     1087.400        2.234        0.303      193.859       27.604        0.020      335.537        6.234      863.205
01/30/2015  08:09:00     -187.655      177.513      -45.606       52.518       60.402       35.967     2758.193     3648.415     1293.607        3.825        0.385      258.312       34.486        0.018      335.495        6.162      863.221
01/30/2015  08:10:00     -118.006      171.222      -37.023       56.881       57.419       34.891     3235.474     3296.903     1217.381        2.618        0.387      207.948       29.123        0.020      335.476        6.132      863.241
01/30/2015  08:11:00      -56.547      201.835      -23.457       93.473       67.710       38.909     8737.191     4584.709     1513.891        2.966        0.742      209.607       35.886        0.029      335.501        6.174      863.261
01/30/2015  08:12:00      -60.154      125.182      -18.727       56.552       55.280       35.813     3198.174     3055.849     1282.542        1.359        0.377      138.885       26.502        0.036      335.566        6.283      863.273
01/30/2015  08:13:00      -68.646      130.924      -22.175       36.867       63.985       26.915     1359.168     4094.134      724.416        1.426        0.309      147.829       26.765        0.033      335.563        6.281      863.287
01/30/2015  08:14:00     -106.956      137.308      -29.116       50.741       56.374       30.940     2574.622     3178.067      957.282        1.892        0.335      174.049       21.109        0.015      335.554        6.265      863.309
01/30/2015  08:15:00      -34.753      204.283      -33.696       35.413       68.428       21.228     1254.091     4682.408      450.617        2.523        0.319      207.219       24.352        0.014      335.490        6.156      863.324
01/30/2015  08:16:00      -75.554      203.254      -25.938       53.021       70.175       25.277     2811.263     4924.583      638.932        2.803        0.419      216.842       20.419        0.009      335.516        6.198      863.337
01/30/2015  08:17:00     -121.201      165.502      -35.007       64.335       91.950       37.601     4138.934     8454.790     1413.809        2.865        0.700      205.136       49.927        0.059      335.523        6.210      863.347
01/30/2015  08:18:00      -86.244      192.296      -23.335       65.728       83.578       37.582     4320.177     6985.349     1412.436        2.884        0.636      210.751       26.242        0.016      335.499        6.170      863.356
01/30/2015  08:19:00      -83.588      156.342      -26.768       47.475       90.761       31.942     2253.850     8237.488     1020.321        2.183        0.576      177.285       30.547        0.030      335.530        6.224      863.363
01/30/2015  08:20:00     -118.032      209.546      -24.139       56.537       87.405       32.326     3196.427     7639.609     1044.947        3.515        0.594      240.501       30.546        0.016      335.546        6.249      863.363
01/30/2015  08:21:00     -109.614      148.167      -26.656       44.788       61.730       32.835     2005.953     3810.609     1078.114        2.079        0.345      184.306       32.636        0.031      335.548        6.253      863.375
01/30/2015  08:22:00      -98.697       96.478       -9.235       54.238       40.292       42.448     2941.742     1623.424     1801.855        1.275        0.318      138.018       21.080        0.023      335.602        6.344      863.373
01/30/2015  08:23:00     -118.254      128.355      -27.348       66.126       62.798       29.344     4372.666     3943.558      861.049        2.019        0.459      174.525       25.811        0.022      335.562        6.278      863.378
01/30/2015  08:24:00      -70.821      143.951      -15.208       55.353       65.304       33.437     3063.999     4264.577     1118.036        1.721        0.422      160.429       28.112        0.031      335.604        6.347      863.379
01/30/2015  08:25:00      -86.153      232.140      -37.373       47.765       73.757       26.017     2281.473     5440.116      676.906        3.555        0.420      247.611       24.766        0.010      335.517        6.200      863.382
01/30/2015  08:26:00      -81.397      166.038      -22.513       54.048       62.340       31.301     2921.234     3886.334      979.768        2.124        0.389      184.916       23.781        0.017      335.564        6.281      863.386
01/30/2015  08:27:00      -98.191      133.951      -19.486       62.388       74.116       36.448     3892.304     5493.128     1328.423        1.934        0.536      166.085       40.302        0.059      335.564        6.280      863.380
01/30/2015  08:28:00      -66.798      129.017      -20.396       48.472       43.075       30.575     2349.581     1855.438      934.834        1.333        0.257      145.284       20.682        0.020      335.642        6.412      863.389
01/30/2015  08:29:00     -103.796      173.472      -32.784       59.719      100.311       42.671     3566.300    10062.220     1820.785        2.869        0.772      202.154       43.563        0.046      335.637        6.402      863.383
01/30/2015  08:30:00     -151.221      124.605      -28.545       73.031       53.584       37.573     5333.473     2871.262     1411.712        2.441        0.481      195.944       26.624        0.018      335.637        6.401      863.389
01/30/2015  08:31:00      -47.513      139.734      -14.631       49.244       57.915       35.305     2425.008     3354.157     1246.442        1.451        0.351      147.591       30.615        0.043      335.753        6.596      863.395
01/30/2015  08:32:00      -97.913      133.306      -18.844       76.982       55.783       41.028     5926.235     3111.746     1683.301        1.922        0.536      165.401       37.156        0.050      335.804        6.680      863.400
01/30/2015  08:33:00      -72.809      120.384      -17.227       47.368       60.525       33.672     2243.744     3663.314     1133.801        1.356        0.352      140.689       39.128        0.077      335.876        6.801      863.417
01/30/2015  08:34:00      -29.385      265.670      -32.376       37.743       55.728       26.466     1424.498     3105.571      700.455        3.886        0.262      267.290       21.412        0.006      335.703        6.511      863.427
01/30/2015  08:35:00      -59.767      218.595      -31.170       35.648       71.853       29.219     1270.767     5162.904      853.762        2.981        0.364      226.619       30.994        0.019      335.711        6.525      863.429
01/30/2015  08:36:00     -117.605      281.513      -37.598       77.413       88.676       41.336     5992.704     7863.509     1708.706        5.503        0.778      305.091       37.789        0.015      335.719        6.535      863.446
01/30/2015  08:37:00      -89.727      283.304      -29.023       73.312       83.793       39.565     5374.587     7021.198     1565.377        5.156        0.698      297.174       37.756        0.016      335.751        6.588      863.463
01/30/2015  08:38:00     -102.811      270.718      -31.301       78.968       80.554       42.155     6235.916     6488.957     1777.054        4.967        0.725      289.583       40.337        0.019      335.747        6.582      863.467
01/30/2015  08:39:00     -100.902      258.057      -36.692       88.273      108.902       50.802     7792.109    11859.583     2580.889        5.017        1.112      277.083       52.899        0.036      335.798        6.668      863.476
01/30/2015  08:40:00     -134.489      198.005      -32.188       71.226      112.030       48.439     5073.201    12550.805     2346.345        3.915        0.999      239.360       50.606        0.045      335.803        6.677      863.483
01/30/2015  08:41:00     -105.632      214.068      -35.137       57.954       71.682       38.700     3358.662     5138.327     1497.720        3.410        0.500      238.712       35.510        0.022      335.820        6.705      863.490
01/30/2015  08:42:00      -52.771      257.635      -27.585       84.890       83.365       36.851     7206.326     6949.689     1358.028        4.272        0.776      262.984       34.547        0.017      335.833        6.725      863.496
01/30/2015  08:43:00      -51.225      258.427      -33.794       37.176       73.099       28.700     1382.024     5343.430      823.683        3.905        0.377      263.455       24.071        0.008      335.803        6.675      863.503
01/30/2015  08:44:00      -53.251      161.695      -10.046       56.734       93.316       34.973     3218.694     8707.798     1223.134        2.111        0.657      170.238       46.259        0.074      335.936        6.898      863.508
01/30/2015  08:45:00      -19.229      150.499      -17.379       78.549       62.336       38.808     6169.903     3885.776     1506.069        1.744        0.578      151.722       37.373        0.061      335.949        6.922      863.506
01/30/2015  08:46:00       22.188      194.103      -22.291       54.267      108.680       53.299     2944.954    11811.284     2840.770        2.813        0.880      195.367       58.240        0.089      335.940        6.904      863.507
01/30/2015  08:47:00      -32.211      259.978      -46.416       70.254      104.411       47.785     4935.608    10901.585     2283.436        4.445        0.906      261.966       51.768        0.039      335.920        6.870      863.499
01/30/2015  08:48:00      -85.116      241.943      -42.462       79.035       78.560       41.832     6246.462     6171.607     1749.954        4.087        0.708      256.478       39.973        0.024      335.980        6.971      863.513
01/30/2015  08:49:00      -36.765      165.493      -13.612       84.000       80.587       42.843     7056.083     6494.245     1835.526        2.215        0.769      169.528       43.661        0.066      336.056        7.101      863.512
01/30/2015  08:50:00      -32.244      190.989      -23.585       52.496      110.879       33.678     2755.877    12294.224     1134.188        2.713        0.809      193.692       47.579        0.060      336.094        7.164      863.523
01/30/2015  08:51:00      -26.986      308.273      -34.901       65.303      101.626       47.145     4264.546    10327.805     2222.611        5.689        0.841      309.452       55.423        0.032      335.986        6.982      863.528
01/30/2015  08:52:00     -109.008      324.657      -42.971       59.729       74.494       44.131     3567.537     5549.360     1947.516        6.510        0.553      342.469       36.221        0.011      335.954        6.927      863.526
01/30/2015  08:53:00      -69.361      282.448      -34.343       71.975       75.022       36.016     5180.364     5628.343     1297.181        4.893        0.605      290.840       36.430        0.016      336.030        7.056      863.527
01/30/2015  08:54:00      -67.356      223.162      -19.121       59.174      137.685       51.369     3501.619    18957.086     2638.749        3.990        1.255      233.105       65.703        0.079      336.087        7.152      863.528
01/30/2015  08:55:00      -59.376      312.401      -35.705       60.465      109.727       35.937     3656.002    12040.074     1291.479        5.969        0.849      317.994       33.677        0.011      335.974        6.961      863.523
01/30/2015  08:56:00      -70.781      304.084      -39.964       78.688      116.881       39.679     6191.821    13661.212     1574.437        6.025        1.071      312.213       49.931        0.026      335.986        6.982      863.523
01/30/2015  08:57:00     -101.350      252.486      -37.294       88.972       87.988       34.842     7916.063     7741.906     1213.999        4.614        0.844      272.068       36.879        0.018      336.018        7.035      863.510
01/30/2015  08:58:00     -109.378      299.365      -40.196       66.612      126.642       44.381     4437.167    16038.248     1969.629        6.282        1.122      318.721       50.952        0.026      335.935        6.897      863.514
01/30/2015  08:59:00      -73.168      236.811      -28.585       67.350       97.933       44.307     4536.031     9590.785     1963.122        3.917        0.804      247.857       45.568        0.034      336.065        7.112      863.499
01/30/2015  09:00:00      -54.566      188.253      -20.107       75.059       87.285       42.776     5633.877     7618.704     1829.785        2.695        0.754      196.001       49.683        0.064      336.049        7.089      863.495
01/30/2015  09:01:00      -93.759      253.702      -35.146       79.400       87.984       39.877     6304.306     7741.149     1590.184        4.501        0.782      270.473       36.855        0.019      336.078        7.134      863.490
01/30/2015  09:02:00      -79.789      317.135      -31.741       59.559      110.654       44.129     3547.325    12244.206     1947.343        6.284        0.887      327.018       45.695        0.020      336.003        7.010      863.488
01/30/2015  09:03:00      -66.434      244.004      -29.947       65.313       92.124       41.538     4265.774     8486.922     1725.413        3.966        0.724      252.886       38.081        0.023      336.032        7.058      863.494
01/30/2015  09:04:00        2.046      346.356      -44.687       51.553       68.082       30.024     2657.700     4635.096      901.460        6.508        0.410      346.362       23.678        0.005      335.909        6.853      863.486
01/30/2015  09:05:00       -0.589      286.083      -38.473       61.651       47.403       36.450     3800.806     2247.090     1328.622        4.535        0.369      286.083       23.601        0.007      335.955        6.930      863.493
01/30/2015  09:06:00      -54.701      307.477      -40.592       54.699       57.617       31.575     2992.008     3319.671      997.000        5.324        0.365      312.305       23.200        0.006      335.943        6.908      863.513
01/30/2015  09:07:00      -78.111      347.855      -45.919       62.481       95.089       34.763     3903.862     9041.903     1208.434        7.168        0.708      356.517       34.376        0.009      335.924        6.877      863.515
01/30/2015  09:08:00      -93.182      196.654      -26.913       41.876       48.300       29.847     1753.568     2332.865      890.814        2.653        0.249      217.613       21.929        0.010      336.067        7.117      863.530
01/30/2015  09:09:00      -48.710      182.162      -16.229       40.094       61.416       29.128     1607.560     3771.983      848.438        2.102        0.311      188.562       20.943        0.012      336.091        7.159      863.538
01/30/2015  09:10:00     -128.079      221.470      -39.266       70.776       96.269       45.688     5009.220     9267.735     2087.412        4.168        0.818      255.838       50.478        0.039      336.011        7.024      863.551
01/30/2015  09:11:00      -65.517      142.781      -17.288       56.105       85.854       29.631     3147.824     7370.901      878.008        1.819        0.570      157.095       28.390        0.033      336.151        7.258      863.543
01/30/2015  09:12:00     -118.742      247.125      -39.319       74.588       61.820       39.673     5563.352     3821.710     1573.978        4.384        0.548      274.172       32.828        0.014      336.016        7.030      863.551
01/30/2015  09:13:00     -142.320      199.556      -40.135       58.928       72.202       47.144     3472.533     5213.094     2222.580        3.630        0.545      245.107       35.478        0.021      336.042        7.074      863.545
01/30/2015  09:14:00      -79.523      140.346      -18.390       56.182       48.872       31.210     3156.387     2388.465      974.045        1.644        0.326      161.310       31.452        0.038      336.153        7.263      863.558
01/30/2015  09:15:00      -58.763      121.618      -18.825       47.967       67.862       35.152     2300.827     4605.231     1235.654        1.337        0.407      135.070       27.182        0.041      336.284        7.481      863.551
01/30/2015  09:16:00     -105.627      167.141      -28.699       60.176       50.160       36.296     3621.165     2516.043     1317.431        2.368        0.373      197.720       22.292        0.013      336.130        7.223      863.549
01/30/2015  09:17:00     -105.553      108.880      -12.825       76.025       58.850       38.765     5779.831     3463.303     1502.743        1.695        0.537      151.645       43.889        0.084      336.306        7.519      863.546
01/30/2015  09:18:00      -20.590      173.807      -24.698       40.845       69.474       30.408     1668.327     4826.682      924.625        1.933        0.371      175.022       30.419        0.030      336.263        7.447      863.538
01/30/2015  09:19:00      -58.961      303.381      -36.756       48.190       62.860       31.065     2322.260     3951.427      965.035        5.205        0.362      309.058       24.787        0.006      336.072        7.124      863.544
01/30/2015  09:20:00      -48.441      164.085      -23.052       53.814      112.457       43.045     2895.977    12646.572     1852.845        2.360        0.870      171.086       46.116        0.073      336.236        7.400      863.538
01/30/2015  09:21:00      -13.889      176.181      -20.170       54.362       82.554       36.673     2955.183     6815.204     1344.923        2.138        0.556      176.728       43.892        0.062      336.337        7.570      863.546
01/30/2015  09:22:00      -54.579      277.330      -29.490       72.181       70.591       40.636     5210.062     4983.147     1651.313        4.630        0.592      282.650       30.103        0.011      336.183        7.310      863.548
01/30/2015  09:23:00       -4.750      253.506      -35.896       59.101       76.342       42.619     3492.970     5828.068     1816.378        3.836        0.557      253.551       35.992        0.020      336.203        7.342      863.558
01/30/2015  09:24:00      -79.295      217.497      -25.318       83.809       91.162       39.152     7023.871     8310.565     1532.910        3.555        0.843      231.501       42.531        0.034      336.117        7.201      863.568
01/30/2015  09:25:00      -69.817      276.726      -35.369       53.373       96.640       40.816     2848.707     9339.295     1665.911        4.828        0.693      285.398       44.807        0.025      336.149        7.255      863.575
01/30/2015  09:26:00        5.578      264.049      -32.726       44.826       73.774       33.249     2009.374     5442.646     1105.480        3.969        0.428      264.108       26.789        0.010      336.073        7.127      863.581
01/30/2015  09:27:00      -48.950      292.430      -36.991       50.880       78.440       35.037     2588.822     6152.885     1227.559        4.962        0.498      296.498       40.920        0.019      336.105        7.179      863.565
01/30/2015  09:28:00      -37.017      225.081      -24.082       53.830       78.527       33.865     2897.644     6166.468     1146.841        3.141        0.511      228.105       39.171        0.029      336.187        7.317      863.563
01/30/2015  09:29:00      -38.051      221.514      -15.706       58.451       68.828       45.599     3416.504     4737.234     2079.284        3.050        0.512      224.758       40.097        0.032      336.252        7.425      863.552
01/30/2015  09:30:00      -77.829      327.931      -41.855       73.561      100.444       41.167     5411.150    10089.028     1694.746        6.627        0.860      337.040       32.143        0.009      336.142        7.241      863.545
01/30/2015  09:31:00      -40.097      250.745      -31.990       50.446       74.164       31.693     2544.828     5500.319     1004.449        3.728        0.452      253.931       28.193        0.012      336.189        7.320      863.529
01/30/2015  09:32:00      -36.883      190.612      -18.573       44.484      116.661       48.960     1978.849    13609.695     2397.087        2.801        0.899      194.148       65.540        0.114      336.290        7.491      863.514
01/30/2015  09:33:00      -70.240      193.002      -27.145       52.856      109.179       38.788     2793.806    11919.997     1504.531        2.957        0.811      205.386       42.334        0.042      336.327        7.552      863.516
01/30/2015  09:34:00     -112.222      224.677      -28.902       79.176       96.163       43.791     6268.770     9247.269     1917.628        4.067        0.872      251.144       42.072        0.028      336.335        7.565      863.515
01/30/2015  09:35:00     -141.708      112.835      -19.313      101.508       77.055       46.234    10303.813     5937.403     2137.594        2.578        0.919      181.143       51.292        0.080      336.385        7.649      863.523
01/30/2015  09:36:00     -105.924      229.550      -32.684       75.821       70.130       37.648     5748.841     4918.187     1417.381        3.853        0.604      252.811       40.474        0.026      336.268        7.452      863.522
01/30/2015  09:37:00      -46.142      158.571      -20.788       44.747       95.386       32.485     2002.269     9098.514     1055.304        1.993        0.608      165.148       35.579        0.046      336.420        7.709      863.530
01/30/2015  09:38:00      -89.168      242.713      -29.563       68.878       45.665       32.711     4744.126     2085.297     1070.012        3.782        0.395      258.574       29.444        0.013      336.217        7.365      863.544
01/30/2015  09:39:00      -71.662      250.311      -30.372       65.547       60.604       38.234     4296.423     3672.898     1461.853        3.907        0.472      260.367       32.533        0.016      336.296        7.499      863.534
01/30/2015  09:40:00     -111.229      173.630      -26.667       62.656       59.897       36.983     3925.750     3587.606     1367.744        2.605        0.444      206.202       27.390        0.018      336.377        7.637      863.537
01/30/2015  09:41:00     -125.840      164.594      -29.102       53.961       48.553       32.425     2911.827     2357.361     1051.393        2.505        0.316      207.188       27.848        0.018      336.426        7.718      863.530
01/30/2015  09:42:00      -55.747      239.904      -28.502       53.848       57.143       36.056     2899.616     3265.291     1300.053        3.447        0.373      246.296       29.225        0.014      336.318        7.536      863.541
01/30/2015  09:43:00      -88.211      187.222      -26.164       50.047       66.174       36.121     2504.686     4378.940     1304.706        2.585        0.409      206.961       34.990        0.029      336.429        7.722      863.543
01/30/2015  09:44:00      -79.417      261.641      -29.359       46.677       41.650       33.495     2178.722     1734.742     1121.930        4.033        0.252      273.428       14.925        0.003      336.302        7.507      863.539
01/30/2015  09:45:00      -14.788      262.712      -32.960       70.447       66.135       43.328     4962.744     4373.859     1877.314        4.077        0.561      263.128       31.772        0.015      336.358        7.601      863.528
01/30/2015  09:46:00      -93.360      198.290      -33.441       62.428       84.795       39.445     3897.204     7190.277     1555.895        3.090        0.632      219.169       29.537        0.018      336.487        7.818      863.531
01/30/2015  09:47:00      -50.785       85.981      -11.494       46.659       94.616       39.721     2177.067     8952.139     1577.718        1.140        0.635       99.859       34.995        0.123      336.624        8.050      863.525
01/30/2015  09:48:00      -83.817      152.339      -18.082       63.625       87.478       43.514     4048.081     7652.393     1893.432        2.207        0.680      173.875       47.236        0.074      336.661        8.110      863.532
01/30/2015  09:49:00      -74.005      242.717      -29.727       42.550       59.490       25.174     1810.522     3539.080      633.735        3.563        0.299      253.748       23.036        0.008      336.474        7.794      863.540
01/30/2015  09:50:00      -74.631      145.766      -21.044       48.417       90.282       38.440     2344.202     8150.767     1477.638        1.961        0.599      163.761       37.785        0.053      336.613        8.031      863.542
01/30/2015  09:51:00     -129.022      226.284      -33.279       66.952       67.123       42.128     4482.571     4505.536     1774.776        3.986        0.538      260.482       40.691        0.024      336.628        8.051      863.549
01/30/2015  09:52:00      -92.276      152.941      -14.327       81.672       85.160       41.757     6670.359     7252.151     1743.614        2.389        0.783      178.622       46.426        0.068      336.761        8.278      863.539
01/30/2015  09:53:00      -37.803      220.255      -25.175       66.725       74.298       47.430     4452.240     5520.131     2249.585        3.140        0.611      223.476       39.519        0.031      336.577        7.970      863.549
01/30/2015  09:54:00      -33.337       82.256        4.670       42.432       91.049       37.374     1800.462     8289.967     1396.847        0.969        0.574       88.755       49.255        0.308      336.880        8.478      863.528
01/30/2015  09:55:00      -41.533      273.688      -36.347       62.063       93.622       38.113     3851.773     8765.109     1452.629        4.601        0.703      276.821       42.388        0.023      336.510        7.857      863.531
01/30/2015  09:56:00     -121.881      159.612      -23.300       73.343       77.050       39.355     5379.234     5936.723     1548.783        2.687        0.643      200.825       33.956        0.029      336.672        8.128      863.524
01/30/2015  09:57:00      -98.142      210.433      -28.694       88.692      114.647       49.073     7866.232    13144.036     2408.194        3.907        1.171      232.194       49.453        0.045      336.578        7.971      863.525
01/30/2015  09:58:00      -69.878      294.227      -37.505       69.959      103.903       41.252     4894.309    10795.899     1701.753        5.512        0.870      302.411       49.572        0.027      336.564        7.946      863.504
01/30/2015  09:59:00      -73.757      314.919      -34.714       56.188      100.900       36.462     3157.122    10180.836     1329.475        6.024        0.733      323.441       43.294        0.018      336.552        7.928      863.493
01/30/2015  10:00:00      -89.287      224.005      -36.064       49.687       80.193       35.688     2468.813     6430.982     1273.650        3.481        0.509      241.144       33.373        0.019      336.612        8.027      863.473
01/30/2015  10:01:00      -25.926      176.172      -17.364       45.563       58.852       40.407     2076.027     3463.529     1632.700        1.959        0.359      178.070       34.617        0.038      336.684        8.151      863.460
01/30/2015  10:02:00      -34.006      203.489      -21.303       68.081       71.266       40.662     4634.983     5078.817     1653.369        2.719        0.568      206.311       36.776        0.032      336.749        8.258      863.449
01/30/2015  10:03:00      -23.589      267.193      -39.072       70.215       39.337       27.941     4930.214     1547.427      780.699        4.037        0.363      268.232       21.434        0.006      336.583        7.977      863.455
01/30/2015  10:04:00      -73.856      235.564      -29.438       62.515       65.025       36.137     3908.180     4228.304     1305.876        3.563        0.472      246.871       22.319        0.008      336.672        8.128      863.454
01/30/2015  10:05:00      -55.653      279.203      -27.986       40.242       88.370       33.436     1619.414     7809.250     1117.953        4.619        0.527      284.696       18.791        0.004      336.586        7.984      863.450
01/30/2015  10:06:00      -34.392      178.963      -23.460       41.246       59.484       27.149     1701.273     3538.364      737.080        1.987        0.299      182.238       24.540        0.018      336.792        8.332      863.449
01/30/2015  10:07:00      -48.113      250.422      -23.690       48.015       77.456       39.445     2305.457     5999.477     1555.895        3.772        0.493      255.002       29.011        0.013      336.794        8.331      863.442
01/30/2015  10:08:00      -32.778      198.590      -24.735       74.942       60.912       35.571     5616.274     3710.233     1265.291        2.586        0.530      201.277       34.292        0.029      336.740        8.242      863.442
01/30/2015  10:09:00       59.783      213.201      -31.276       53.701       66.892       46.929     2883.772     4474.546     2202.310        2.978        0.478      221.424       37.828        0.029      336.707        8.187      863.431
01/30/2015  10:10:00      -16.524      193.042      -17.069       64.403       67.605       48.136     4147.713     4570.373     2317.074        2.443        0.552      193.748       44.262        0.052      336.748        8.256      863.432
01/30/2015  10:11:00      -34.509      249.408      -39.342       60.754       74.810       38.074     3690.997     5596.467     1449.650        3.784        0.537      251.784       39.090        0.024      336.667        8.120      863.428
01/30/2015  10:12:00       50.357      169.402      -22.806       57.952       53.500       37.084     3358.403     2862.236     1375.254        1.967        0.380      176.728       37.777        0.046      336.773        8.299      863.418
01/30/2015  10:13:00       39.558      159.271      -24.819       42.382       71.155       32.145     1796.219     5062.998     1033.326        1.772        0.395      164.110       34.879        0.045      336.695        8.170      863.421
01/30/2015  10:14:00       45.574      157.406      -18.765       41.933       72.538       39.576     1758.401     5261.710     1566.247        1.789        0.429      163.871       43.122        0.069      336.712        8.198      863.410
01/30/2015  10:15:00        7.708      158.193      -26.842       63.218       76.936       36.768     3996.561     5919.103     1351.853        1.853        0.563      158.381       42.055        0.071      336.709        8.193      863.418
01/30/2015  10:16:00       70.597      132.731      -14.976       66.303       71.208       49.433     4396.031     5070.585     2443.654        1.737        0.596      150.338       39.782        0.070      336.812        8.366      863.408
01/30/2015  10:17:00      111.669       78.289       24.866       68.989       52.872       42.424     4759.441     2795.446     1799.757        1.428        0.468      136.378       24.036        0.031      336.848        8.424      863.414
01/30/2015  10:18:00       77.837       80.531        5.302       80.419       66.048       44.195     6467.144     4362.318     1953.172        1.268        0.639      111.999       27.392        0.060      336.798        8.340      863.428
01/30/2015  10:19:00       71.501      154.361       -3.511       76.722       73.839       45.865     5886.289     5452.271     2103.558        2.119        0.672      170.117       37.181        0.048      336.746        8.253      863.428
01/30/2015  10:20:00       92.710      135.066       17.077       84.616       89.905       54.218     7159.923     8082.942     2939.585        2.265        0.909      163.823       48.252        0.087      336.770        8.292      863.439
01/30/2015  10:21:00       97.598      120.090        2.077       94.095       82.844       59.910     8853.823     6863.070     3589.159        2.163        0.965      154.748       46.310        0.090      336.704        8.182      863.428
01/30/2015  10:22:00      114.569      189.656       -1.063       80.920      107.923       78.324     6547.967    11647.458     6134.605        3.671        1.217      221.575       73.092        0.109      336.649        8.091      863.436
01/30/2015  10:23:00       70.292      156.834       -8.665       70.246      112.708       62.949     4934.454    12703.014     3962.540        2.560        1.080      171.866       71.237        0.172      336.715        8.202      863.437
01/30/2015  10:24:00       83.269      174.525      -17.616       55.718       84.972       52.108     3104.538     7220.261     2715.247        2.537        0.652      193.372       46.815        0.059      336.666        8.121      863.431
01/30/2015  10:25:00       76.505       93.748        3.677       75.996       61.515       36.295     5775.354     3784.065     1317.305        1.276        0.544      121.003       29.696        0.060      336.766        8.287      863.439
01/30/2015  10:26:00      114.124       76.809       15.522       66.608       44.989       36.472     4436.634     2024.021     1330.235        1.348        0.390      137.564       13.739        0.010      336.784        8.318      863.445
01/30/2015  10:27:00       25.506       91.538      -10.009       30.929       48.131       31.556      956.596     2316.597      995.781        0.670        0.213       95.025       31.466        0.110      336.821        8.381      863.444
01/30/2015  10:28:00       15.684       88.746       -0.624       46.857       58.195       27.623     2195.570     3386.674      763.025        0.723        0.317       90.122       23.769        0.070      336.979        8.643      863.449
01/30/2015  10:29:00       31.462       70.789      -11.446       35.245       55.999       33.123     1242.219     3135.889     1097.119        0.580        0.274       77.466       35.399        0.209      336.961        8.614      863.444
01/30/2015  10:30:00       72.935       66.586       15.998       50.587       40.021       31.359     2559.003     1601.667      983.398        0.758        0.257       98.759       23.593        0.057      337.112        8.865      863.444
01/30/2015  10:31:00       16.690       41.373        2.649       44.829       30.118       23.122     2009.674      907.098      534.646        0.272        0.173       44.613       16.761        0.141      337.223        9.052      863.451
01/30/2015  10:32:00       40.689       23.822       -6.481       49.697       34.689       49.298     2469.745     1203.331     2430.332        0.418        0.305       47.149       30.099        0.408      337.237        9.076      863.449
01/30/2015  10:33:00       38.412       94.584       -7.327       49.668       64.072       31.597     2466.862     4105.197      998.383        0.902        0.379      102.086        7.392        0.005      337.058        8.775      863.443
01/30/2015  10:34:00       37.717       76.667       10.983       53.556       38.893       29.149     2868.271     1512.635      849.679        0.632        0.262       85.443       23.755        0.077      337.133        8.902      863.444
01/30/2015  10:35:00      -34.183      108.703      -17.251       32.300       54.611       22.945     1043.309     2982.377      526.470        0.892        0.228      113.951       26.892        0.056      336.941        8.582      863.433
01/30/2015  10:36:00       41.239       74.345       -4.312       53.078       29.160       25.978     2817.312      850.300      674.867        0.579        0.217       85.016       20.169        0.056      337.045        8.754      863.416
01/30/2015  10:37:00       64.425       76.430        1.998       55.015       43.148       33.723     3026.621     1861.739     1137.225        0.801        0.301       99.960       27.226        0.074      337.230        9.064      863.417
01/30/2015  10:38:00      130.021       71.642        5.293       40.119       37.329       36.767     1609.504     1393.478     1351.808        1.321        0.218      148.453       19.529        0.017      337.030        8.729      863.410
01/30/2015  10:39:00      111.935       66.799       -1.243       55.100       66.530       35.929     3035.997     4426.250     1290.927        1.287        0.438      130.351       24.102        0.034      337.091        8.831      863.403
01/30/2015  10:40:00       82.071      116.280       22.151       90.938       77.658       55.585     8269.760     6030.824     3089.719        1.907        0.870      142.326       38.959        0.075      337.405        9.357      863.410
01/30/2015  10:41:00       80.105      228.038      -34.187       45.564       69.007       47.539     2076.045     4762.017     2259.911        3.434        0.455      241.699       38.436        0.025      337.027        8.721      863.410
01/30/2015  10:42:00      182.180      183.360        9.684      150.511       92.843       47.010    22653.617     8619.884     2209.976        5.019        1.674      258.477       34.103        0.017      337.040        8.745      863.396
01/30/2015  10:43:00      209.862      123.911       29.253       94.544       81.583       54.496     8938.587     6655.859     2969.811        3.941        0.928      243.714       40.492        0.028      337.011        8.695      863.378
01/30/2015  10:44:00       89.223       89.711        6.813       66.661       96.251       49.814     4443.707     9264.179     2481.389        1.612        0.809      126.526       49.154        0.151      337.358        9.277      863.365
01/30/2015  10:45:00       50.195      139.369       -5.896       78.300       78.740       54.575     6130.961     6199.994     2978.479        1.864        0.765      148.132       52.264        0.124      337.409        9.362      863.355
01/30/2015  10:46:00      -22.715      164.602      -21.385       42.029       57.702       36.108     1766.422     3329.512     1303.765        1.723        0.320      166.162       21.635        0.017      337.543        9.588      863.342
01/30/2015  10:47:00      118.874      132.356       -2.935      114.160       84.673       67.174    13032.425     7169.517     4512.375        2.818        1.236      177.902       47.998        0.073      337.498        9.511      863.347
01/30/2015  10:48:00       76.131      117.428       15.630       87.039       68.331       65.346     7575.802     4669.106     4270.093        1.817        0.826      139.948       45.283        0.105      337.429        9.395      863.345
01/30/2015  10:49:00      131.294      118.398       -1.264       96.635       73.526       56.812     9338.386     5406.137     3227.632        2.461        0.899      176.794       45.315        0.066      337.367        9.290      863.353
01/30/2015  10:50:00      175.734       89.848       22.287      126.133       79.877       62.902    15909.467     6380.340     3956.632        3.284        1.312      197.371       42.861        0.047      337.371        9.298      863.325
01/30/2015  10:51:00      257.307      186.837       32.536      121.004       80.711       79.587    14641.871     6514.342     6334.102        6.483        1.375      317.986       37.591        0.014      337.177        8.970      863.317
01/30/2015  10:52:00      221.339      140.071       26.441       98.149       78.886       67.648     9633.257     6222.999     4576.208        4.487        1.022      261.937       30.028        0.013      337.208        9.024      863.309
01/30/2015  10:53:00      211.891      201.960       12.265      103.006       86.190       65.390    10610.180     7428.720     4275.878        5.407        1.116      292.721       39.267        0.018      337.189        8.991      863.310
01/30/2015  10:54:00      238.254      144.598       24.784      115.361       82.052       75.786    13308.175     6732.591     5743.561        5.203        1.289      278.699       53.144        0.036      337.341        9.248      863.320
01/30/2015  10:55:00      180.329      120.710       15.287      130.898       70.207       60.363    17134.162     4928.975     3643.644        3.651        1.285      217.001       26.991        0.015      337.414        9.370      863.320
01/30/2015  10:56:00       46.132      307.849      -48.894       57.533      110.341       59.211     3310.006    12175.211     3505.972        5.914        0.950      311.286       62.256        0.040      337.258        9.107      863.350
01/30/2015  10:57:00        8.042      148.912      -14.761       56.385       73.724       39.244     3179.285     5435.195     1540.100        1.630        0.508      149.129       41.565        0.078      337.250        9.096      863.347
01/30/2015  10:58:00       39.280      131.654      -17.050       36.671       76.440       34.878     1344.772     5843.072     1216.507        1.378        0.420      137.389       43.459        0.100      337.376        9.307      863.323
01/30/2015  10:59:00      101.613      136.384        1.756       81.803       70.033       59.372     6691.746     4904.670     3525.091        2.202        0.756      170.076       41.009        0.058      337.493        9.502      863.300
01/30/2015  11:00:00      151.201      112.957       12.920       85.674       72.561       56.895     7340.119     5265.035     3237.054        2.581        0.792      188.736       36.008        0.036      337.351        9.264      863.283
01/30/2015  11:01:00       99.510      122.637       15.178       86.752       66.261       57.799     7525.962     4390.546     3340.688        2.021        0.763      157.931       45.224        0.082      337.628        9.729      863.254
01/30/2015  11:02:00      298.814      176.540       16.735      110.808       84.513       74.682    12278.523     7142.486     5577.371        7.286        1.250      347.068       54.019        0.024      337.377        9.308      863.250
01/30/2015  11:03:00      229.313      143.822       37.281       84.753       52.877       54.020     7183.118     2795.930     2918.161        4.378        0.645      270.683       39.829        0.022      337.096        8.835      863.247
01/30/2015  11:04:00      181.157      108.653       31.956       84.188       65.064       68.026     7087.694     4233.295     4627.545        3.079        0.797      211.242       39.561        0.035      337.382        9.315      863.222
01/30/2015  11:05:00      223.055      113.955       33.384       93.030       60.234       72.866     8654.620     3628.178     5309.414        4.072        0.880      250.478       47.036        0.035      337.225        9.052      863.204
01/30/2015  11:06:00      170.034       86.995       49.298      104.057       64.180       50.865    10827.793     4119.135     2587.282        2.822        0.877      190.996       50.781        0.071      337.480        9.479      863.187
01/30/2015  11:07:00      220.890      120.396       45.712      147.849      102.796       58.656    21859.386    10567.021     3440.474        5.062        1.793      251.571       13.121        0.003      337.455        9.438      863.172
01/30/2015  11:08:00       91.070       69.901       30.305       98.024       79.813       69.215     9608.796     6370.126     4790.654        1.743        1.038      114.804       48.734        0.180      337.824       10.058      863.170
01/30/2015  11:09:00      134.009      166.923        6.786      137.244      101.728       69.597    18835.940    10348.676     4843.688        3.994        1.701      214.061       62.211        0.084      337.406        9.355      863.157
01/30/2015  11:10:00      101.002      112.758       11.744       85.622       84.745       55.853     7331.055     7181.798     3119.531        2.034        0.882      151.380       40.980        0.073      337.654        9.773      863.138
01/30/2015  11:11:00       91.451      115.850       23.903      141.208      102.018       53.486    19939.781    10407.715     2860.751        2.778        1.660      147.596       36.676        0.062      337.845       10.093      863.105
01/30/2015  11:12:00      198.554      162.490       55.575      120.441       69.850       79.956    14506.123     4878.974     6392.940        4.734        1.289      256.567       71.828        0.078      337.844       10.089      863.090
01/30/2015  11:13:00      208.736      129.182       17.223      106.037       60.887       66.969    11243.888     3707.217     4484.876        3.999        0.972      245.477       56.558        0.053      337.575        9.638      863.089
01/30/2015  11:14:00      126.458       89.284       38.789       87.050       50.904       48.970     7577.749     2591.203     2398.033        1.902        0.628      154.800       14.802        0.009      337.526        9.558      863.063
01/30/2015  11:15:00      118.076       77.806       60.457      101.363       81.458       70.161    10274.558     6635.337     4922.595        2.274        1.092      141.406       60.221        0.181      337.643        9.755      863.028
01/30/2015  11:16:00      244.952      149.442       74.519      110.696       71.035       89.734    12253.680     5046.026     8052.203        5.662        1.268      286.940       72.716        0.064      337.209        9.024      863.002
01/30/2015  11:17:00       99.478      144.349      134.391      118.071       92.672       86.922    13940.806     8588.021     7555.446        3.943        1.504      175.307       88.374        0.254      337.380        9.313      862.971
01/30/2015  11:18:00      143.666       97.507       88.776      114.786       75.118       66.639    13175.897     5642.707     4440.783        3.064        1.163      173.631       64.084        0.136      337.433        9.402      862.958
01/30/2015  11:19:00      220.030      140.807       40.552      157.999       90.751       68.342    24963.657     8235.712     4670.681        5.387        1.894      261.227       76.369        0.085      337.424        9.388      862.944
01/30/2015  11:20:00      278.276      184.031       19.691      105.611       80.896       66.276    11153.672     6544.108     4392.565        6.689        1.105      333.624       33.937        0.010      337.231        9.063      862.933
01/30/2015  11:21:00      235.574      138.889       29.144       97.814       78.101       65.715     9567.500     6099.712     4318.466        4.781        0.999      273.469       47.385        0.030      337.234        9.067      862.923
01/30/2015  11:22:00      102.725      109.764       67.225      110.723       70.275       70.657    12259.662     4938.593     4992.409        2.465        1.110      150.335       68.355        0.207      337.703        9.853      862.887
01/30/2015  11:23:00        4.775       95.406      115.184       57.631       56.130       46.199     3321.293     3150.550     2134.316        1.550        0.430       95.526       30.998        0.105      337.975       10.312      862.875
01/30/2015  11:24:00      125.274      108.233       71.394       90.213       78.022       68.902     8138.357     6087.382     4747.444        2.574        0.949      165.554       53.006        0.103      337.715        9.874      862.855
01/30/2015  11:25:00      168.335       67.304       22.211       74.644       48.088       55.011     5571.719     2312.430     3026.172        2.213        0.546      181.291       32.129        0.031      337.425        9.389      862.849
01/30/2015  11:26:00      144.608      100.762       41.121       82.196       42.646       34.579     6756.234     1818.669     1195.719        2.126        0.489      176.251       21.204        0.014      337.356        9.272      862.811
01/30/2015  11:27:00       57.760       76.383       17.641       82.035       58.848       48.759     6729.783     3463.130     2377.420        1.102        0.629       95.763       32.410        0.115      337.860       10.121      862.783
01/30/2015  11:28:00       74.509      154.165      -13.780       67.969       76.352       49.098     4619.725     5829.686     2410.607        2.118        0.643      171.226       40.038        0.055      337.725        9.891      862.782
01/30/2015  11:29:00       65.241      205.789      -21.369       80.016      110.655       62.507     6402.636    12244.460     3907.165        3.480        1.128      215.883       66.298        0.094      337.438        9.410      862.774
01/30/2015  11:30:00      104.771      136.760        4.105       67.514       95.986       64.609     4558.076     9213.360     4174.289        2.382        0.897      172.280       63.349        0.135      337.497        9.510      862.746
01/30/2015  11:31:00       65.129      185.063       -6.115       80.353      118.412       64.470     6456.566    14021.451     4156.336        3.158        1.232      196.189       66.993        0.117      337.585        9.655      862.727
01/30/2015  11:32:00       88.893      196.486      -16.356      101.002      150.921       50.732    10201.382    22777.217     2573.716        4.116        1.778      215.659       53.658        0.062      337.731        9.902      862.689
01/30/2015  11:33:00      151.287      136.838       19.173      113.727       84.551       73.668    12933.754     7148.883     5426.923        3.374        1.275      203.991       50.863        0.062      337.674        9.805      862.692
01/30/2015  11:34:00       80.753      186.005      -19.344       62.164       71.238       49.102     3864.421     5074.850     2410.963        2.642        0.568      202.777       41.612        0.042      337.357        9.273      862.675
01/30/2015  11:35:00       87.483      186.990      -12.894       79.954       92.272       62.545     6392.603     8514.190     3911.862        3.080        0.941      206.442       51.293        0.062      337.325        9.220      862.649
01/30/2015  11:36:00      234.682      175.741       31.865       78.357       66.073       53.104     6139.864     4365.665     2820.073        5.015        0.666      293.190       36.819        0.016      337.245        9.085      862.642
01/30/2015  11:37:00      134.742       94.573       22.138       85.005       65.685       57.924     7225.771     4314.463     3355.247        2.124        0.745      164.620       38.546        0.055      337.440        9.413      862.612
01/30/2015  11:38:00       55.972       76.112        8.258       31.111       45.781       41.546      967.906     2095.921     1726.077        0.689        0.239       94.477       28.207        0.089      337.569        9.632      862.607
01/30/2015  11:39:00       77.215       74.730        6.827       60.785       43.814       40.700     3694.824     1919.648     1656.522        0.943        0.364      107.456       26.759        0.062      337.503        9.520      862.591
01/30/2015  11:40:00       38.237       44.281        6.408       39.724       34.168       33.225     1578.012     1167.461     1103.882        0.366        0.192       58.505       19.254        0.108      337.264        9.121      862.577
01/30/2015  11:41:00       64.666       46.902       12.309       25.589       25.586       18.417      654.776      654.633      339.197        0.409        0.082       79.884       13.175        0.027      337.229        9.063      862.568
01/30/2015  11:42:00       -4.365       28.151       -4.138       17.796       21.352       16.693      316.699      455.895      278.649        0.094        0.053       28.488       11.005        0.149      337.346        9.257      862.544
01/30/2015  11:43:00       30.047       22.885       -2.970       30.590       23.913       23.280      935.754      571.841      541.967        0.174        0.102       37.770       16.734        0.196      337.531        9.568      862.523
01/30/2015  11:44:00       49.904       44.608       19.107       42.940       34.263       28.563     1843.808     1173.930      815.827        0.434        0.192       66.935       28.734        0.184      337.595        9.675      862.518
01/30/2015  11:45:00        6.027       34.829       49.861       26.342       30.190       27.760      693.887      911.457      770.593        0.306        0.119       35.347       21.404        0.367      337.841       10.087      862.506
01/30/2015  11:46:00       54.849       63.136       47.976       48.332       34.039       36.501     2335.952     1158.686     1332.335        0.706        0.241       83.633       27.020        0.104      337.875       10.145      862.492
01/30/2015  11:47:00       27.814       39.666       32.293       62.292       50.743       42.775     3880.272     2574.866     1829.698        0.584        0.414       48.446       33.818        0.487      338.228       10.737      862.484
01/30/2015  11:48:00      122.657      109.336       91.222      103.842       64.728       55.042    10783.145     4189.684     3029.597        2.666        0.900      164.314       39.924        0.059      337.805       10.027      862.479
01/30/2015  11:49:00       31.962       90.366      109.725       55.096       65.327       73.395     3035.610     4267.565     5386.887        1.696        0.635       95.852       62.329        0.423      337.963       10.292      862.467
01/30/2015  11:50:00       34.375      128.538      125.851       73.317       83.706       63.302     5375.408     7006.651     4007.176        2.496        0.819      133.055       48.933        0.135      337.890       10.167      862.447
01/30/2015  11:51:00      140.260      131.088       82.023      104.098       70.604       77.166    10836.420     4984.982     5954.523        3.268        1.089      191.982       66.906        0.121      337.919       10.217      862.445
01/30/2015  11:52:00       82.041       98.128       44.460       57.645       48.001       56.683     3322.897     2304.100     3212.910        1.359        0.442      127.905        8.383        0.004      337.846       10.096      862.456
01/30/2015  11:53:00       32.920       22.027       19.398       52.380       42.754       27.267     2743.627     1827.928      743.486        0.363        0.266       39.609       10.573        0.071      337.962       10.289      862.448
01/30/2015  11:54:00       73.086       76.217        2.020       67.404       68.230       44.356     4543.269     4655.379     1967.490        1.116        0.558      105.596       44.298        0.176      337.789       10.001      862.415
01/30/2015  11:55:00       89.815      191.824      -16.519       62.280      140.879       58.359     3878.757    19846.811     3405.728        3.613        1.357      211.809       68.252        0.104      337.735        9.908      862.405
01/30/2015  11:56:00      125.077      173.402       15.965      121.748      157.857       88.149    14822.477    24918.874     7770.159        4.673        2.376      213.805       93.186        0.190      337.929       10.234      862.383
01/30/2015  11:57:00       77.721       83.088       76.340       73.041       69.544       54.744     5334.989     4836.415     2996.953        1.597        0.658      113.772       52.056        0.209      338.033       10.408      862.344
01/30/2015  11:58:00      115.831      179.861       -4.388      140.686      120.477       63.162    19792.516    14514.692     3989.437        4.203        1.915      213.932       64.326        0.090      338.120       10.553      862.337
01/30/2015  11:59:00      278.604      178.305       20.047       81.691       74.121       61.135     6673.441     5493.916     3737.450        6.286        0.795      330.776       37.075        0.013      337.736        9.907      862.307
01/30/2015  12:00:00      120.531       73.297       52.546       98.665       71.553       65.909     9734.791     5119.843     4344.055        2.093        0.960      141.068       37.931        0.072      337.875       10.142      862.271
01/30/2015  12:01:00       41.971       22.027        8.559       33.236       43.887       22.280     1104.636     1926.025      496.405        0.292        0.176       47.400       12.192        0.066      337.650        9.769      862.255
01/30/2015  12:02:00       82.363      156.671       -8.958      121.043       96.238       53.262    14651.406     9261.700     2836.850        2.908        1.337      177.001       54.896        0.096      337.894       10.174      862.239
01/30/2015  12:03:00      -48.682       62.796        3.619       44.883       50.595       37.252     2014.448     2559.888     1387.745        0.614        0.298       79.456       24.558        0.096      338.420       11.061      862.215
01/30/2015  12:04:00       28.804       65.763       58.363       60.738       38.974       42.691     3689.121     1519.012     1822.546        0.779        0.352       71.794       30.037        0.175      338.236       10.752      862.197
01/30/2015  12:05:00       71.774       62.674       54.619       77.541       55.331       62.442     6012.661     3061.532     3898.956        1.252        0.649       95.287       58.927        0.382      338.136       10.582      862.192
01/30/2015  12:06:00      114.766       95.076       58.772       70.661       51.320       65.703     4992.950     2633.771     4316.871        1.880        0.597      149.033       54.165        0.132      338.042       10.424      862.189
01/30/2015  12:07:00      161.072       99.541       24.700       87.009       80.879       54.455     7570.516     6541.402     2965.366        2.677        0.854      189.348       35.627        0.035      337.987       10.331      862.191
01/30/2015  12:08:00      195.951      150.641       50.658       75.309       63.375       76.359     5671.429     4016.446     5830.682        3.958        0.776      247.163       52.716        0.045      337.954       10.273      862.194
01/30/2015  12:09:00       75.838       56.096       21.017       93.191       79.403       57.044     8684.516     6304.779     3254.018        1.379        0.912       94.331       45.224        0.230      338.049       10.436      862.190
01/30/2015  12:10:00      107.754       74.939       50.825      106.162       77.260       63.800    11270.320     5969.053     4070.455        2.056        1.065      131.250       51.535        0.154      338.107       10.532      862.165
01/30/2015  12:11:00       65.341       87.887       99.352       79.966       73.846       65.939     6394.514     5453.292     4347.955        1.903        0.810      109.515       61.705        0.317      338.259       10.788      862.138
01/30/2015  12:12:00      175.957      113.203       41.670      116.012       88.101       56.423    13458.676     7761.836     3183.525        3.495        1.220      209.227       49.105        0.055      338.021       10.387      862.129
01/30/2015  12:13:00       58.221       81.326       82.778       61.187       57.717       55.500     3743.793     3331.238     3080.251        1.350        0.508      100.018       40.683        0.165      338.068       10.468      862.107
01/30/2015  12:14:00       14.116       42.405       56.479       61.070       54.113       48.081     3729.541     2928.233     2311.827        0.708        0.448       44.693       32.635        0.533      338.545       11.269      862.092
01/30/2015  12:15:00       24.741       47.249       24.487       59.875       47.977       37.530     3585.036     2301.823     1408.505        0.537        0.365       53.334       23.847        0.200      338.633       11.418      862.048
01/30/2015  12:16:00       64.050       92.194       -5.922       58.288       60.561       46.263     3397.442     3667.605     2140.231        1.092        0.460      112.259       43.432        0.150      338.332       10.911      862.015
01/30/2015  12:17:00       87.358      154.289       -2.050       69.237       68.919       46.811     4793.736     4749.781     2191.307        2.159        0.587      177.303       42.714        0.058      337.869       10.132      861.992
01/30/2015  12:18:00      110.089      124.744       93.083      105.006       61.701       69.925    11026.213     3807.037     4889.537        2.803        0.986      166.375       60.651        0.133      338.245       10.762      861.966
01/30/2015  12:19:00      177.147       84.445       32.231       81.571       69.849       61.961     6653.858     4878.910     3839.196        2.746        0.769      196.244       42.352        0.047      337.887       10.162      861.966
01/30/2015  12:20:00      152.556      121.334       19.917       96.859       70.679       53.106     9381.710     4995.465     2820.247        2.779        0.860      194.924       32.581        0.028      338.053       10.441      861.968
01/30/2015  12:21:00       -8.140      213.248      -35.569       58.734       65.784       31.889     3449.658     4327.478     1016.888        2.780        0.440      213.403       29.668        0.019      338.027       10.397      861.953
01/30/2015  12:22:00      111.041      135.498        0.405       62.954       84.249       47.507     3963.178     7097.969     2256.884        2.200        0.666      175.185       42.672        0.059      337.887       10.164      861.925
01/30/2015  12:23:00       88.295      164.551      -13.615       84.907      123.431       62.480     7209.147    15235.327     3903.761        3.070        1.317      186.743       68.360        0.134      337.874       10.142      861.915
01/30/2015  12:24:00       78.574      213.624      -18.745       73.266      103.601       56.844     5367.890    10733.134     3231.265        3.574        0.967      227.617       48.655        0.046      337.971       10.304      861.897
01/30/2015  12:25:00      123.853      146.575       -6.245       85.486       84.458       55.116     7307.873     7133.132     3037.807        2.717        0.874      191.895       46.007        0.057      337.871       10.135      861.889
01/30/2015  12:26:00      151.895      141.899       -8.870      115.518       83.150       61.676    13344.335     6913.866     3803.955        3.367        1.203      207.864       44.456        0.046      337.819       10.048      861.871
01/30/2015  12:27:00      208.502      151.827       43.777      108.657       84.261       77.822    11806.284     7099.843     6056.217        4.670        1.248      257.924       39.680        0.024      337.821       10.051      861.850
01/30/2015  12:28:00      182.097      110.773       35.929       84.424       57.900       46.022     7127.426     3352.410     2118.053        2.966        0.630      213.143       25.611        0.014      337.627        9.727      861.838
01/30/2015  12:29:00      174.498      103.391        5.616       78.828       60.295       44.377     6213.880     3635.445     1969.283        2.649        0.591      202.828       26.934        0.018      337.858       10.115      861.829
01/30/2015  12:30:00      133.567      122.166       52.174       95.283       61.949       63.290     9078.817     3837.637     4005.635        2.620        0.846      181.010       33.582        0.034      338.324       10.896      861.810
01/30/2015  12:31:00      158.172      101.749       49.699      119.243       74.977       73.769    14218.924     5621.483     5441.912        3.156        1.264      188.072       42.364        0.051      338.013       10.373      861.798
01/30/2015  12:32:00      194.831       74.477       29.440      115.669       81.062       64.946    13379.317     6571.113     4217.978        3.427        1.208      208.580       26.010        0.016      338.254       10.777      861.800
01/30/2015  12:33:00      163.215      118.010       98.895      111.692       75.110       83.694    12475.099     5641.564     7004.607        3.773        1.256      201.409       69.721        0.120      338.132       10.572      861.770
01/30/2015  12:34:00      122.872      182.125      124.604      112.891       90.231       88.811    12744.335     8141.651     7887.408        4.628        1.439      219.697       85.633        0.152      337.903       10.188      861.756
01/30/2015  12:35:00      152.501       78.337       -0.960       69.037       44.960       31.174     4766.144     2021.433      971.799        1.858        0.388      171.444       27.252        0.025      337.615        9.706      861.771
01/30/2015  12:36:00       98.269       75.481       29.603       48.021       39.499       39.901     2305.985     1560.199     1592.122        1.084        0.273      123.912       25.401        0.042      337.874       10.142      861.752
01/30/2015  12:37:00      108.441      129.046       -8.111       49.278       65.662       45.320     2428.308     4311.531     2053.894        1.863        0.440      168.559       36.531        0.047      337.855       10.110      861.732
01/30/2015  12:38:00       34.226      169.485      -27.546       58.259       92.861       37.455     3394.086     8623.189     1402.902        2.204        0.671      172.906       42.995        0.062      337.901       10.186      861.729
01/30/2015  12:39:00      -31.460      222.127      -33.287       63.784       72.339       31.694     4068.351     5232.971     1004.489        3.087        0.515      224.344       31.324        0.019      337.815       10.041      861.725
01/30/2015  12:40:00       39.385      173.224      -14.635       66.358      101.034       48.337     4403.418    10207.830     2336.490        2.436        0.847      177.645       56.777        0.102      337.704        9.856      861.721
01/30/2015  12:41:00      105.971       82.926       29.705       39.863       28.657       35.180     1589.081      821.252     1237.645        1.132        0.182      134.561       13.526        0.010      337.766        9.961      861.704
01/30/2015  12:42:00       60.154       46.908       26.232       43.352       37.321       37.827     1879.436     1392.828     1430.892        0.560        0.235       76.282       20.929        0.075      338.013       10.377      861.681
01/30/2015  12:43:00       51.989       58.346       32.666       67.238       32.976       43.065     4520.902     1087.436     1854.587        0.732        0.373       78.148       25.166        0.104      338.090       10.505      861.658
01/30/2015  12:44:00       67.498       58.631       20.672       44.660       36.104       31.696     1994.478     1303.513     1004.618        0.636        0.215       89.406       21.989        0.060      338.087       10.501      861.650
01/30/2015  12:45:00       13.324      183.367      -37.972       47.815       56.620       29.707     2286.278     3205.777      882.535        2.081        0.319      183.850       28.526        0.024      337.766        9.961      861.638
01/30/2015  12:46:00       13.082       87.778       -4.156       40.628       45.606       33.198     1650.643     2079.952     1102.137        0.636        0.242       88.747       27.708        0.097      337.936       10.247      861.616
01/30/2015  12:47:00       64.294       69.945       26.780       70.450       66.135       53.035     4963.142     4373.792     2812.707        1.094        0.607       95.006       36.466        0.147      338.171       10.640      861.603
01/30/2015  12:48:00       64.906      134.404       -3.961       81.678       90.987       57.955     6671.245     8278.695     3358.775        2.030        0.915      149.256       53.985        0.131      338.175       10.647      861.621
01/30/2015  12:49:00       77.731      137.898       -2.239       63.032       92.884       62.897     3972.999     8627.416     3956.001        2.081        0.828      158.298       56.292        0.126      338.112       10.540      861.605
01/30/2015  12:50:00      112.447      207.922      -22.674       77.694      107.341       80.244     6036.296    11522.145     6439.109        4.019        1.200      236.381       74.433        0.099      338.135       10.576      861.605
01/30/2015  12:51:00      253.323      175.772       20.362       96.464       78.719       61.668     9305.233     6196.683     3802.997        5.739        0.965      308.332       38.538        0.016      338.028       10.397      861.599
01/30/2015  12:52:00      300.067      178.557        6.383       98.306       81.034       60.641     9664.022     6566.581     3677.366        7.093        0.995      349.175       27.421        0.006      337.987       10.329      861.599
01/30/2015  12:53:00      100.811      107.470       54.371       67.992       58.465       67.085     4622.974     3418.165     4500.363        1.860        0.627      147.352       45.719        0.096      338.159       10.620      861.602
01/30/2015  12:54:00      200.119       88.715       21.103       82.018       73.778       69.481     6727.013     5443.199     4827.551        3.268        0.850      218.902       38.682        0.031      338.137       10.582      861.578
01/30/2015  12:55:00      127.676      108.536       11.409       83.885       62.729       49.463     7036.645     3934.988     2446.582        2.081        0.671      167.574       43.692        0.068      337.939       10.250      861.565
01/30/2015  12:56:00       25.962      121.131      -31.636       47.020       44.672       22.210     2210.900     1995.631      493.268        1.052        0.235      123.882       21.253        0.029      337.812       10.038      861.534
01/30/2015  12:57:00       90.781      111.265       14.089       56.118       53.275       52.127     3149.254     2838.180     2717.208        1.476        0.435      143.600       39.135        0.074      337.934       10.243      861.496
01/30/2015  12:58:00       97.743       96.783       17.201       97.689       66.985       47.817     9543.077     4487.031     2286.451        1.776        0.816      137.553       31.825        0.054      338.025       10.395      861.486
01/30/2015  12:59:00      128.667       95.330       23.556       66.991       46.559       47.475     4487.772     2167.771     2253.887        1.755        0.445      160.134       23.496        0.022      337.933       10.242      861.488
01/30/2015  13:00:00       64.662       71.160       77.758       80.652       66.613       62.817     6504.824     4437.255     3945.939        1.509        0.744       96.150       58.982        0.376      338.014       10.376      861.468
01/30/2015  13:01:00       28.902      110.307      130.250       66.627       64.324       40.946     4439.141     4137.598     1676.563        2.011        0.513      114.030       38.477        0.114      338.067       10.465      861.440
01/30/2015  13:02:00      126.954      112.288       87.356       94.299       72.395       61.522     8892.370     5241.074     3785.004        2.713        0.896      169.487       54.095        0.102      337.924       10.224      861.410
01/30/2015  13:03:00       73.878       48.575       67.341       60.299       63.161       42.109     3635.959     3989.312     1773.179        1.087        0.470       88.417       26.838        0.092      338.166       10.632      861.395
01/30/2015  13:04:00       15.787       31.013       65.460       35.291       56.290       29.966     1245.476     3168.530      897.963        0.540        0.266       34.800       35.845        1.061      338.429       11.075      861.379
01/30/2015  13:05:00       73.758      -48.244       35.303       56.373       93.384       54.985     3177.943     8720.641     3023.369        1.197        0.746       88.135       51.807        0.346      338.464       11.134      861.359
01/30/2015  13:06:00       71.908       39.742       60.283       40.684       43.555       29.850     1655.180     1897.032      891.019        0.741        0.222       82.159       24.046        0.086      338.293       10.847      861.358
01/30/2015  13:07:00       65.850       80.593       85.187       54.641       44.886       41.686     2985.656     2014.781     1737.744        1.241        0.337      104.074       26.766        0.066      338.237       10.751      861.345
01/30/2015  13:08:00       89.558       27.250       14.242       32.046       22.885       23.643     1026.955      523.744      559.001        0.554        0.105       93.612       13.351        0.020      338.036       10.414      861.344
01/30/2015  13:09:00       72.305       43.263       37.935       86.170       47.931       41.999     7425.264     2297.400     1763.917        1.001        0.574       84.260       37.754        0.201      338.588       11.341      861.319
01/30/2015  13:10:00        3.516       28.114       39.953       47.910       39.434       35.017     2295.358     1555.046     1226.179        0.374        0.254       28.334       33.557        1.403      338.735       11.588      861.289
01/30/2015  13:11:00      116.348       67.247       47.113       87.240       60.797       75.609     7610.809     3696.253     5716.677        1.865        0.851      134.384       54.258        0.163      338.575       11.318      861.251
01/30/2015  13:12:00      140.147      122.159       36.511       67.329       49.713       61.047     4533.252     2471.424     3726.771        2.331        0.537      185.914       28.525        0.024      338.278       10.819      861.253
01/30/2015  13:13:00       52.321       40.019       40.259       56.624       90.794       49.443     3206.248     8243.514     2444.653        0.992        0.695       65.872       32.801        0.248      338.394       11.017      861.226
01/30/2015  13:14:00       71.669       12.910       36.237       71.462       53.468       50.049     5106.852     2858.855     2504.871        0.854        0.524       72.823       43.124        0.351      338.668       11.475      861.202
01/30/2015  13:15:00       28.780       37.782        2.803       43.605       54.063       27.433     1901.389     2922.801      752.563        0.392        0.279       47.495       25.811        0.295      338.711       11.548      861.178
01/30/2015  13:16:00       11.820       60.738       77.903       55.770       70.290       68.865     3110.278     4940.685     4742.415        1.134        0.640       61.877       56.276        0.827      338.922       11.902      861.140
01/30/2015  13:17:00       17.268       56.976       99.205       51.811       78.850       53.254     2684.407     6217.263     2836.035        1.256        0.587       59.536       55.059        0.855      338.686       11.506      861.109
01/30/2015  13:18:00      116.978      119.437       78.129      127.859       76.851       63.565    16348.005     5906.086     4040.520        3.017        1.315      167.180       62.301        0.139      338.616       11.385      861.074
01/30/2015  13:19:00      252.504      135.023       37.151      118.587      117.089       89.358    14062.796    13709.744     7984.836        5.956        1.788      286.338       58.064        0.041      338.431       11.074      861.047
01/30/2015  13:20:00      302.786      166.093       43.922      122.906       85.088       74.049    15105.856     7239.899     5483.256        7.451        1.391      345.350       67.032        0.038      338.251       10.773      861.035
01/30/2015  13:21:00      179.124      144.144       93.836      104.400       73.684       82.140    10899.319     5429.371     6746.980        4.237        1.154      229.919       76.278        0.110      338.445       11.098      861.006
01/30/2015  13:22:00       81.087       88.678       -8.706       87.688       55.124       55.238     7689.171     3038.640     3051.284        1.414        0.689      120.162       32.076        0.071      338.301       10.859      861.027
01/30/2015  13:23:00      114.364       95.736       55.273       64.558       48.368       57.894     4167.753     2339.490     3351.737        1.758        0.493      149.146       34.471        0.053      338.536       11.252      861.031
01/30/2015  13:24:00      153.491      105.130       62.450       84.663       63.881       63.114     7167.897     4080.805     3983.360        2.687        0.762      186.042       43.673        0.055      338.368       10.970      861.019
01/30/2015  13:25:00       66.231       51.945       52.768       68.596       64.042       62.454     4705.363     4101.353     3900.547        1.129        0.635       84.172       50.772        0.364      338.349       10.939      861.002
01/30/2015  13:26:00       99.234       67.799       79.068       89.226       61.186       63.943     7961.332     3743.753     4088.768        1.824        0.790      120.184       56.177        0.218      338.604       11.368      860.974
01/30/2015  13:27:00       77.984      149.484       88.144       99.822       84.955       76.761     9964.365     7217.329     5892.186        2.963        1.154      168.602       57.955        0.118      338.537       11.255      860.961
01/30/2015  13:28:00       80.040      189.910      -16.370       66.326      118.849       59.125     4399.095    14125.105     3495.815        3.238        1.101      206.087       60.314        0.086      338.437       11.086      860.996
01/30/2015  13:29:00      156.182      152.000       12.324      103.103       74.776       68.492    10630.137     5591.384     4691.214        3.428        1.046      217.937       45.108        0.043      338.401       11.024      861.004
01/30/2015  13:30:00      115.666      249.474      -28.680       90.990      125.891       67.252     8279.100    15848.579     4522.808        5.254        1.433      274.983       71.835        0.068      338.328       10.901      860.989
01/30/2015  13:31:00       69.749      205.741      -18.879       75.057      102.050       64.182     5633.591    10414.205     4119.381        3.386        1.008      217.243       58.758        0.073      338.244       10.759      860.985
01/30/2015  13:32:00       57.758      170.255      -22.786       75.176       86.312       50.762     5651.378     7449.738     2576.811        2.426        0.784      179.785       46.221        0.066      338.413       11.044      860.971
01/30/2015  13:33:00       43.795      318.374      -48.381      103.233       92.081       51.322    10657.014     8478.909     2633.992        6.369        1.088      321.372       50.228        0.024      338.275       10.812      860.959
01/30/2015  13:34:00      161.653      248.586      -23.426       82.444      136.762       75.350     6797.000    18703.862     5677.580        5.982        1.559      296.525       82.983        0.078      338.245       10.762      860.962
01/30/2015  13:35:00      226.911      141.556       33.259       91.917       63.143       46.152     8448.748     3987.064     2129.985        4.360        0.728      267.445       34.498        0.017      338.237       10.750      860.934
01/30/2015  13:36:00      211.777      110.301       28.116       84.803       67.659       51.716     7191.517     4577.711     2674.520        3.612        0.722      238.780       25.879        0.012      338.451       11.108      860.913
01/30/2015  13:37:00      240.905      130.260       76.256      116.561       78.861       72.913    13586.501     6219.065     5316.279        5.297        1.256      273.867       65.108        0.057      338.406       11.032      860.897
01/30/2015  13:38:00       65.603       67.930       71.527       99.782       81.719       71.385     9956.530     6677.985     5095.855        1.788        1.087       94.436       59.782        0.401      338.680       11.495      860.890
01/30/2015  13:39:00       53.361       88.948      108.866       51.974       65.770       50.641     2701.321     4325.713     2564.475        1.610        0.480      103.726       48.543        0.219      338.389       11.005      860.888
01/30/2015  13:40:00       19.990       64.327       82.067       36.922       63.459       43.588     1363.264     4027.006     1899.886        0.928        0.365       67.362       41.800        0.385      338.614       11.384      860.850
01/30/2015  13:41:00       11.780      -26.065        5.629       24.641       60.126       32.590      607.163     3615.157     1062.116        0.307        0.264       28.603       14.803        0.268      338.711       11.549      860.831
01/30/2015  13:42:00       68.734       64.246       58.802       56.729       39.461       39.290     3218.149     1557.167     1543.671        0.931        0.316       94.085       30.472        0.105      338.600       11.361      860.835
01/30/2015  13:43:00       83.904       84.286       52.792       64.670       55.221       55.266     4182.210     3049.336     3054.310        1.361        0.514      118.929       49.360        0.172      338.713       11.551      860.837
01/30/2015  13:44:00       48.576      110.805      110.389       91.115       78.058       65.446     8301.939     6093.078     4283.174        2.275        0.934      120.985       42.797        0.125      338.785       11.670      860.801
01/30/2015  13:45:00      153.301      124.172       49.586      104.745       65.606       77.383    10971.462     4304.166     5988.180        3.132        1.063      197.281       65.958        0.112      338.692       11.513      860.793
01/30/2015  13:46:00      249.415      137.457       44.603       87.420       74.186       65.394     7642.248     5503.516     4276.401        5.025        0.871      284.784       45.599        0.026      338.458       11.120      860.769
01/30/2015  13:47:00      223.729      133.289       30.939       98.764       72.377       67.084     9754.241     5238.481     4500.236        4.413        0.975      260.424       37.388        0.021      338.373       10.975      860.774
01/30/2015  13:48:00      178.113      100.960       44.130      121.794      104.272       80.958    14833.822    10872.677     6554.196        3.806        1.613      204.737       46.670        0.052      338.498       11.187      860.765
01/30/2015  13:49:00      166.478       99.060       41.336      119.339       87.594       74.559    14241.855     7672.642     5559.091        3.335        1.374      193.721       47.866        0.061      338.528       11.238      860.757
01/30/2015  13:50:00       80.872       66.859       40.606       63.448       64.645       55.908     4025.709     4178.916     3125.651        1.199        0.567      104.930       36.089        0.118      338.709       11.544      860.745
01/30/2015  13:51:00      197.050      145.639       26.761      101.915       81.515       58.147    10386.708     6644.644     3381.094        4.058        1.021      245.029       48.457        0.039      338.638       11.423      860.725
01/30/2015  13:52:00       85.680      186.152      -25.437       79.702       93.973       60.405     6352.423     8830.953     3648.772        3.073        0.942      204.923       60.622        0.088      338.736       11.587      860.737
01/30/2015  13:53:00      -32.540      141.892      -14.867       91.876       93.445       48.046     8441.174     8731.899     2308.444        2.044        0.974      145.575       44.805        0.095      338.822       11.733      860.749
01/30/2015  13:54:00       91.234      152.888       -4.069      109.422      102.558       59.322    11973.243    10518.042     3519.157        2.886        1.301      178.040       50.203        0.080      338.867       11.808      860.763
01/30/2015  13:55:00      247.477      141.066       20.062       80.190       64.670       54.507     6430.450     4182.150     2971.034        4.756        0.679      284.858       30.192        0.011      338.467       11.134      860.757
01/30/2015  13:56:00      131.714      125.812        3.141       80.437       77.499       54.314     6470.133     6006.023     2950.007        2.430        0.771      182.146       43.559        0.057      338.428       11.069      860.762
01/30/2015  13:57:00       55.730       76.859      -11.730       83.116       44.343       33.105     6908.201     1966.267     1095.920        0.956        0.499       94.937       19.497        0.042      338.270       10.807      860.761
01/30/2015  13:58:00      -55.961      -12.168      -18.528       92.440       41.043       28.319     8545.170     1684.527      801.983        0.733        0.552       57.269       36.493        0.406      338.451       11.112      860.732
01/30/2015  13:59:00      111.580       64.922        3.975       65.176       51.757       32.897     4247.938     2678.823     1082.211        1.234        0.400      129.093       17.923        0.019      338.437       11.086      860.739
01/30/2015  14:00:00       99.022       50.782       -2.014       44.204       71.066       35.767     1953.990     5050.405     1279.259        1.033        0.414      111.284       34.329        0.095      338.418       11.056      860.732
01/30/2015  14:01:00      -56.153       60.231       -1.184       59.373       43.602       38.710     3525.175     1901.099     1498.489        0.685        0.346       82.347       43.024        0.273      338.792       11.685      860.698
01/30/2015  14:02:00      -26.079      214.184      -34.000       56.993       50.103       32.375     3248.194     2510.348     1048.120        2.726        0.340      215.766       28.594        0.018      338.464       11.131      860.706
01/30/2015  14:03:00       66.055      201.085      -17.147       64.673       76.274       56.794     4182.642     5817.769     3225.503        2.916        0.661      211.656       47.623        0.051      338.583       11.331      860.692
01/30/2015  14:04:00      126.361       85.754       30.730      103.202       67.475       62.015    10650.693     4552.934     3845.859        2.165        0.952      152.712       21.817        0.020      338.840       11.763      860.678
01/30/2015  14:05:00      179.018       99.333       48.102      124.351       81.882       69.603    15463.103     6704.708     4844.533        3.562        1.351      204.731       65.567        0.103      338.542       11.261      860.654
01/30/2015  14:06:00      110.109      106.480       81.351       99.665       83.846       67.198     9933.199     7030.082     4515.561        2.578        1.074      153.173       46.363        0.092      338.681       11.495      860.616
01/30/2015  14:07:00      157.203      183.490       19.514      145.881      128.193      106.139    21281.373    16433.370    11265.537        5.386        2.449      241.622       72.576        0.090      338.662       11.462      860.643
01/30/2015  14:08:00       17.263      282.294      -43.255       79.370      119.814       60.131     6299.611    14355.482     3615.716        5.306        1.214      282.821       69.563        0.060      338.588       11.339      860.687
01/30/2015  14:09:00       18.847      161.240      -31.412       82.667      124.373       57.739     6833.868    15468.531     3333.768        2.648        1.282      162.338       69.278        0.182      338.675       11.485      860.686
01/30/2015  14:10:00      119.962      254.015      -29.591       79.265      159.148       67.972     6282.943    25328.034     4620.243        5.800        1.812      280.918       76.644        0.074      338.513       11.213      860.682
01/30/2015  14:11:00      113.700      120.135        0.935      104.990       96.387       59.359    11022.902     9290.383     3523.507        2.559        1.192      165.409       51.981        0.099      338.638       11.422      860.686
01/30/2015  14:12:00      -19.562      253.527      -43.003       54.488       67.265       33.866     2968.969     4524.627     1146.883        3.757        0.432      254.280       31.148        0.015      338.312       10.874      860.705
01/30/2015  14:13:00      -45.086      109.911      -21.300       47.234       40.850       29.066     2231.024     1668.742      844.854        0.965        0.237      118.799       20.774        0.031      338.593       11.351      860.659
01/30/2015  14:14:00      -10.082      233.137      -45.068       43.396       59.870       20.719     1883.232     3584.364      429.258        3.119        0.295      233.355       24.363        0.011      338.350       10.938      860.646
01/30/2015  14:15:00       -9.857      264.620      -46.356       57.052       50.202       30.327     3254.948     2520.252      919.751        3.948        0.335      264.803       23.828        0.008      338.500       11.189      860.655
01/30/2015  14:16:00       67.438      231.141      -24.091       75.783      132.548       61.309     5743.030    17569.064     3758.851        4.281        1.354      240.778       63.692        0.070      338.405       11.033      860.655
01/30/2015  14:17:00      -15.130      334.609      -62.950       73.924       66.883       27.957     5464.738     4473.343      781.566        6.344        0.536      334.951       26.209        0.006      338.174       10.642      860.660
01/30/2015  14:18:00       66.841      244.360      -32.766       78.230      106.543       60.809     6119.900    11351.304     3697.721        4.321        1.058      253.336       58.592        0.053      338.383       10.994      860.647
01/30/2015  14:19:00      120.238      195.763      -14.368       86.651      132.387       58.601     7508.366    17526.227     3434.059        4.072        1.423      229.740       59.042        0.066      338.394       11.013      860.632
01/30/2015  14:20:00       67.128      174.925      -20.470       65.049      119.889       61.662     4231.418    14373.369     3802.203        2.896        1.120      187.363       67.036        0.128      338.384       10.996      860.635
01/30/2015  14:21:00       49.619      198.383      -25.525       54.311       76.798       48.268     2949.711     5897.967     2329.762        2.682        0.559      204.494       43.713        0.046      338.461       11.126      860.625
01/30/2015  14:22:00       31.654      221.555      -28.130       86.193       87.997       47.514     7429.191     7743.446     2257.618        3.415        0.872      223.805       47.053        0.044      338.607       11.371      860.602
01/30/2015  14:23:00      126.322      157.602        2.558      112.779      109.852       72.162    12719.060    12067.508     5207.410        3.539        1.500      201.979       66.050        0.107      338.423       11.061      860.592
01/30/2015  14:24:00      134.682      174.220        2.198      124.237       90.049       78.155    15434.913     8108.818     6108.145        3.907        1.483      220.209       70.307        0.102      338.544       11.265      860.590
01/30/2015  14:25:00      186.977      193.943        5.751      144.189       96.761       73.921    20790.512     9362.708     5464.339        5.411        1.781      269.396       58.028        0.046      338.455       11.115      860.586
01/30/2015  14:26:00      144.672      180.626        9.243      118.408       98.487       81.954    14020.396     9699.729     6716.472        4.203        1.522      231.421       62.794        0.074      338.529       11.240      860.602
01/30/2015  14:27:00       96.886      185.528      -10.861       93.214      141.856       63.285     8688.875    20123.170     4005.045        3.837        1.641      209.302       74.897        0.128      338.546       11.269      860.604
01/30/2015  14:28:00      119.149      121.372       19.165       81.579       70.412       61.417     6655.089     4957.783     3772.100        2.234        0.769      170.081       48.669        0.082      338.442       11.095      860.589
01/30/2015  14:29:00      145.296      127.447       10.406       81.516       97.572       61.743     6644.868     9520.289     3812.181        2.872        0.999      193.271       58.001        0.090      338.527       11.236      860.561
01/30/2015  14:30:00      180.140       99.870       22.605      102.807       75.129       53.996    10569.260     5644.399     2915.565        3.103        0.956      205.972       23.414        0.013      338.556       11.286      860.543
01/30/2015  14:31:00      227.418      146.478       39.877      105.334       83.590       59.991    11095.350     6987.321     3598.906        4.822        1.084      270.509       35.313        0.017      338.549       11.273      860.540
01/30/2015  14:32:00      207.658      142.764       31.273      120.996      105.675       66.519    14639.915    11167.137     4424.716        4.735        1.512      251.999       57.707        0.052      338.563       11.296      860.524
01/30/2015  14:33:00      291.177      208.345       27.108      113.040      102.102       74.009    12777.977    10424.773     5477.405        7.880        1.434      358.039       41.680        0.014      338.518       11.220      860.519
01/30/2015  14:34:00      229.113      183.363       25.994      134.927       81.830       84.854    18205.246     6696.125     7200.161        5.944        1.605      293.453       42.049        0.021      338.462       11.124      860.524
01/30/2015  14:35:00      147.675      152.349        8.873      139.808      108.849       65.176    19546.263    11848.005     4247.904        4.036        1.782      212.174       51.835        0.060      338.510       11.207      860.505
01/30/2015  14:36:00      102.390      260.460      -25.544       94.338      137.881       77.276     8899.627    19011.248     5971.611        5.642        1.694      279.862       82.856        0.088      338.538       11.254      860.525
01/30/2015  14:37:00      103.228      205.758       -9.100       89.202      126.435       80.040     7956.943    15985.855     6406.430        4.171        1.517      230.200       79.946        0.121      338.489       11.172      860.511
01/30/2015  14:38:00      159.514      212.520        1.639      141.854      130.619       90.763    20122.658    17061.433     8237.912        5.801        2.271      265.724       80.824        0.093      338.475       11.148      860.502
01/30/2015  14:39:00       94.649      199.745      -16.687       86.779      126.767       63.265     7530.548    16069.810     4002.424        3.836        1.380      221.035       70.318        0.101      338.438       11.087      860.516
01/30/2015  14:40:00      203.743      181.636        1.265      159.165       99.086       78.496    25333.463     9817.953     6161.626        5.790        2.066      272.952       59.720        0.048      338.608       11.372      860.520
01/30/2015  14:41:00      184.297      128.187       26.475       90.774       58.540       68.262     8239.975     3426.902     4659.694        3.371        0.816      224.494       33.315        0.022      338.515       11.216      860.512
01/30/2015  14:42:00      187.813      115.569       23.073      127.209       93.677       68.291    16182.109     8775.344     4663.621        3.939        1.481      220.522       45.767        0.043      338.661       11.463      860.514
01/30/2015  14:43:00      259.810      236.116       15.188      166.307      123.765      100.395    27658.033    15317.775    10079.184        8.826        2.653      351.072       82.131        0.055      338.466       11.135      860.513
01/30/2015  14:44:00      261.083      132.316       29.381       89.876       84.445       57.143     8077.691     7130.955     3265.275        5.250        0.924      292.697       43.997        0.023      338.521       11.224      860.518
01/30/2015  14:45:00      206.534      110.704       27.247      123.098      100.568       63.946    15153.082    10113.839     4089.092        4.250        1.468      234.332       47.358        0.041      338.596       11.352      860.507
01/30/2015  14:46:00      112.239      205.567      -14.486      108.455      114.353       67.519    11762.453    13076.630     4558.840        4.223        1.470      234.212       69.640        0.088      338.789       11.677      860.529
01/30/2015  14:47:00      127.694      120.276       13.271      120.944       93.369       64.938    14627.535     8717.735     4216.910        2.925        1.378      175.419       37.540        0.046      338.728       11.575      860.528
01/30/2015  14:48:00       59.938      259.926      -26.363      101.065      126.590       77.949    10214.161    16025.112     6076.085        5.208        1.616      266.747       74.016        0.077      338.542       11.260      860.520
01/30/2015  14:49:00       63.209      188.545        2.040      145.513       96.316       78.073    21174.050     9276.791     6095.439        3.804        1.827      198.859       76.458        0.148      338.551       11.276      860.516
01/30/2015  14:50:00      111.960      105.563       10.135      101.865       78.122       49.877    10376.459     6103.122     2487.671        2.137        0.948      153.879       38.487        0.063      338.651       11.446      860.498
01/30/2015  14:51:00      110.910      103.529        8.970       71.736       68.934       51.889     5146.008     4751.851     2692.468        1.784        0.630      151.721       42.951        0.080      338.767       11.640      860.501
01/30/2015  14:52:00       92.370      105.318        5.273       90.192       54.917       54.111     8134.647     3015.912     2927.954        1.686        0.704      140.086       25.913        0.034      338.870       11.814      860.491
01/30/2015  14:53:00      289.918      174.440       29.998      135.283      104.932       64.118    18301.396    11010.823     4111.124        7.440        1.671      338.352       17.208        0.003      338.812       11.717      860.481
01/30/2015  14:54:00      261.135      192.276       43.382      120.555       75.090       66.254    14533.399     5638.522     4389.539        6.580        1.228      324.286       37.112        0.013      338.517       11.217      860.483
01/30/2015  14:55:00      268.271      168.398       25.873      108.677       84.954       72.975    11810.616     7217.202     5325.301        6.267        1.218      316.744       41.468        0.017      338.566       11.301      860.489
01/30/2015  14:56:00      182.435      110.543       31.117       89.429       74.465       72.998     7997.484     5545.015     5328.678        3.267        0.944      213.313       36.767        0.030      338.702       11.529      860.494
01/30/2015  14:57:00      233.387      117.198       38.839      114.777       76.672       66.467    13173.781     5878.541     4417.881        4.659        1.174      261.161       63.009        0.058      338.573       11.313      860.490
01/30/2015  14:58:00      273.052      124.170       50.622       95.192       79.879       64.735     9061.538     6380.649     4190.676        5.608        0.982      299.959       45.572        0.023      338.520       11.224      860.488
01/30/2015  14:59:00      135.497       75.129       14.707      103.288       96.682       52.898    10668.353     9347.434     2798.159        2.351        1.141      154.932       32.193        0.043      338.451       11.110      860.479
01/30/2015  15:00:00      291.185      132.154       72.975      139.212      114.467      105.625    19380.101    13102.661    11156.629        7.560        2.182      319.770       67.694        0.045      338.527       11.235      860.439
01/30/2015  15:01:00      302.264      179.396       14.527      124.765      105.480       82.378    15566.300    11126.095     6786.081        7.861        1.674      351.492       55.767        0.025      338.491       11.175      860.456
01/30/2015  15:02:00      232.707      179.549       15.264      100.499       83.449       85.869    10100.032     6963.773     7373.406        5.553        1.222      293.922       46.857        0.025      338.488       11.170      860.472
01/30/2015  15:03:00       81.943       76.977       58.226       91.352       69.756       67.009     8345.203     4865.884     4490.203        1.686        0.885      112.428       43.269        0.148      338.589       11.342      860.471
01/30/2015  15:04:00      176.373       45.568       19.112      115.424       81.053       69.216    13322.729     6569.654     4790.865        2.911        1.234      182.164       37.283        0.042      338.518       11.222      860.460
01/30/2015  15:05:00      186.270      141.528        4.768      130.707      118.593       57.193    17084.387    14064.328     3270.992        4.458        1.721      233.938       49.560        0.045      338.541       11.261      860.460
01/30/2015  15:06:00      209.355      145.133       17.349      107.533       67.194       56.899    11563.435     4514.979     3237.471        4.225        0.966      254.741       39.524        0.024      338.463       11.129      860.452
01/30/2015  15:07:00      200.686      152.882       15.035      112.389       78.819       62.543    12631.320     6212.396     3911.599        4.331        1.138      252.285       36.282        0.021      338.464       11.131      860.452
01/30/2015  15:08:00       55.080      284.831      -34.107       89.705      139.057       65.839     8046.940    19336.735     4334.714        5.852        1.586      290.108       73.653        0.064      338.598       11.355      860.437
01/30/2015  15:09:00      109.548      168.129        1.335       92.678       95.221       73.299     8589.183     9067.052     5372.779        3.165        1.151      200.669       61.852        0.095      338.597       11.353      860.447
01/30/2015  15:10:00      153.641      138.328        9.477      104.556       67.370       50.710    10932.035     4538.683     2571.529        3.043        0.902      206.737       36.499        0.031      338.507       11.204      860.454
01/30/2015  15:11:00       85.706      160.359       -4.804       98.346      101.462       68.340     9671.892    10294.486     4670.349        2.886        1.232      181.825       64.119        0.124      338.668       11.476      860.449
01/30/2015  15:12:00      182.661      171.661       -1.024      132.066      100.883       77.216    17441.349    10177.446     5962.265        4.820        1.679      250.664       70.404        0.079      338.559       11.289      860.455
01/30/2015  15:13:00      221.759      155.742       19.791      111.561       67.593       70.453    12445.852     4568.824     4963.681        4.790        1.099      270.985       27.195        0.010      338.525       11.232      860.444
01/30/2015  15:14:00      101.256      337.894      -45.956       88.651      174.138       88.421     7859.008    30323.925     7818.239        8.626        2.300      352.739      102.960        0.085      338.548       11.272      860.453
01/30/2015  15:15:00       44.347      231.308      -24.227       74.830      138.845       70.467     5599.471    19277.955     4965.560        4.294        1.492      235.521       80.869        0.118      338.526       11.236      860.457
01/30/2015  15:16:00      -44.584      290.726      -32.166       65.572       84.007       49.986     4299.746     7057.132     2498.597        5.070        0.693      294.125       49.785        0.029      338.556       11.284      860.441
01/30/2015  15:17:00       74.546      241.454      -35.529       68.108      125.612       55.352     4638.650    15778.480     3063.863        4.430        1.174      252.699       58.969        0.054      338.631       11.411      860.444
01/30/2015  15:18:00      115.197      165.539      -14.327       60.449      102.156       55.370     3654.124    10435.902     3065.859        2.901        0.858      201.677       59.507        0.087      338.631       11.413      860.433
01/30/2015  15:19:00       76.024      111.000      -10.396       67.355       53.373       44.275     4536.715     2848.675     1960.279        1.378        0.467      134.539       32.409        0.058      338.832       11.751      860.445
01/30/2015  15:20:00       64.755      163.105      -29.450       63.939       90.547       38.661     4088.162     8198.717     1494.659        2.272        0.689      175.489       33.733        0.037      338.858       11.794      860.453
01/30/2015  15:21:00      -34.225      250.346      -43.902       96.193      100.592       48.818     9253.165    10118.728     2383.211        4.376        1.088      252.675       49.919        0.039      338.746       11.604      860.458
01/30/2015  15:22:00      -42.736      300.973      -44.993       78.102       69.441       35.635     6099.957     4822.052     1269.824        5.331        0.610      303.992       16.124        0.003      338.559       11.289      860.454
01/30/2015  15:23:00      -32.493      104.660      -10.859       61.532       61.222       41.572     3786.224     3748.164     1728.240        1.069        0.463      109.588       32.328        0.087      338.813       11.719      860.440
01/30/2015  15:24:00       55.634      167.868      -25.790       88.947      119.300       59.784     7911.537    14232.419     3574.102        2.882        1.286      176.847       65.514        0.137      338.705       11.537      860.437
01/30/2015  15:25:00      132.364      202.711       -5.013      115.002      138.401       71.231    13225.411    19154.779     5073.895        4.804        1.873      242.099       72.196        0.089      338.759       11.627      860.407
01/30/2015  15:26:00      168.605      137.128        3.587      127.518       78.247       61.959    16260.750     6122.586     3838.970        3.673        1.311      217.329       53.763        0.061      338.636       11.420      860.401
01/30/2015  15:27:00      154.325      139.318        5.541       94.117       81.728       70.338     8858.042     6679.545     4947.378        3.187        1.024      207.908       50.999        0.060      338.640       11.425      860.419
01/30/2015  15:28:00      189.853      174.897        6.654      149.165       99.714       84.261    22250.258     9942.966     7099.866        5.298        1.965      258.134       56.300        0.048      338.557       11.286      860.432
01/30/2015  15:29:00      135.983      155.512      -14.112       83.003       99.136       68.065     6889.454     9827.887     4632.884        3.211        1.068      206.580       60.906        0.087      338.466       11.133      860.457
01/30/2015  15:30:00      162.065      155.781        9.081      129.798       80.159       53.844    16847.496     6425.408     2899.184        3.839        1.309      224.795       32.403        0.021      338.390       11.006      860.451
01/30/2015  15:31:00      161.553      115.412       12.393       92.422       73.514       51.379     8541.776     5404.324     2639.812        2.808        0.829      198.544       32.423        0.027      338.508       11.207      860.431
01/30/2015  15:32:00       84.699      255.923      -28.517       87.926      180.625       66.805     7730.940    32625.394     4462.913        5.914        2.241      269.574       93.364        0.120      338.531       11.246      860.446
01/30/2015  15:33:00       72.775      160.761       -6.360       93.655      160.503       64.611     8771.321    25761.134     4174.644        3.494        1.935      176.466       70.199        0.158      338.548       11.271      860.429
01/30/2015  15:34:00       61.506      356.960      -45.564      111.623      135.926       72.644    12459.594    18475.904     5277.183        8.474        1.811      362.220       79.074        0.048      338.420       11.056      860.450
01/30/2015  15:35:00      -13.870      400.992      -59.800       84.262      109.428       43.239     7100.065    11974.434     1869.620        9.275        1.047      401.231       49.225        0.015      338.316       10.882      860.441
01/30/2015  15:36:00       -9.253      333.434      -47.691      118.016       86.296       53.587    13927.709     7446.936     2871.581        6.889        1.212      333.562       40.350        0.015      338.432       11.076      860.435
01/30/2015  15:37:00      100.100      194.635      -11.711      107.129      103.543       72.277    11476.551    10721.178     5224.023        3.773        1.371      218.867       60.825        0.077      338.427       11.067      860.419
01/30/2015  15:38:00      100.450      268.473      -18.583       87.803      148.924       81.047     7709.400    22178.418     6568.655        5.948        1.823      286.649       84.693        0.087      338.304       10.860      860.408
01/30/2015  15:39:00       37.545      212.195      -27.944      109.985      111.115       62.850    12096.735    12346.525     3950.114        3.780        1.420      215.491       60.835        0.080      338.436       11.084      860.395
01/30/2015  15:40:00       27.817      207.743      -24.788       92.718      117.020       53.987     8596.699    13693.679     2914.625        3.487        1.260      209.597       59.059        0.079      338.465       11.131      860.409
01/30/2015  15:41:00       32.724      145.546      -21.202       59.991       98.482       44.559     3598.879     9698.741     1985.520        1.899        0.764      149.179       52.069        0.122      338.472       11.146      860.402
01/30/2015  15:42:00       38.475      246.829      -42.514       69.565      122.461       59.882     4839.329    14996.621     3585.889        4.381        1.171      249.810       70.933        0.081      338.398       11.019      860.406
01/30/2015  15:43:00      110.375      219.481      -12.994       95.534      123.574       74.931     9126.797    15270.530     5614.729        4.526        1.501      245.672       68.786        0.078      338.303       10.860      860.409
01/30/2015  15:44:00       86.408      247.474      -24.092      102.708      127.348       80.306    10548.877    16217.544     6449.105        5.125        1.661      262.125       80.817        0.095      338.352       10.942      860.389
01/30/2015  15:45:00       95.459      265.040      -20.777       96.376      146.183       87.940     9288.326    21369.612     7733.370        5.908        1.920      281.706       91.908        0.106      338.313       10.877      860.396
01/30/2015  15:46:00      127.880      287.457      -35.531       95.057      146.575       79.637     9035.913    21484.235     6342.004        6.855        1.843      314.618       91.985        0.085      338.246       10.766      860.401
01/30/2015  15:47:00       90.329      148.171      -14.052       71.574       99.733       66.828     5122.796     9946.762     4465.981        2.492        0.977      173.534       60.445        0.121      338.375       10.982      860.405
01/30/2015  15:48:00       86.984      162.599       -6.583      106.869      101.750       68.427    11421.044    10353.143     4682.248        3.025        1.323      184.404       74.556        0.163      338.362       10.960      860.406
01/30/2015  15:49:00     -108.690      246.475      -31.279       88.095      118.200       65.596     7760.642    13971.140     4302.810        4.978        1.302      269.376       55.404        0.042      338.451       11.109      860.410
01/30/2015  15:50:00      -11.513      145.770       13.069       84.194       99.820       62.526     7088.580     9964.032     3909.443        2.125        1.048      146.224       61.908        0.179      338.427       11.069      860.405
01/30/2015  15:51:00       99.002      135.835        7.473       88.390       91.578       74.097     7812.829     8386.518     5490.294        2.500        1.084      168.085       60.227        0.128      338.477       11.152      860.409
01/30/2015  15:52:00      111.505      368.407      -47.078       85.158      134.364       79.498     7251.853    18053.644     6319.903        9.099        1.581      384.912       82.139        0.046      338.204       10.692      860.422
01/30/2015  15:53:00       33.532      274.001      -19.257       82.206      155.295       79.627     6757.767    24116.578     6340.497        5.689        1.861      276.045       97.978        0.126      338.136       10.580      860.414
01/30/2015  15:54:00      -36.071      234.628      -35.082       72.660       57.293       47.567     5279.427     3282.435     2262.651        3.420        0.541      237.384       32.976        0.019      338.299       10.851      860.400
01/30/2015  15:55:00       14.895      258.460      -28.088       79.591      118.999       54.150     6334.720    14160.739     2932.220        4.562        1.171      258.889       57.848        0.050      338.309       10.870      860.399
01/30/2015  15:56:00       -9.396      409.977      -68.442       74.371      110.912       39.545     5531.052    12301.533     1563.805        9.612        0.970      410.085       48.092        0.014      338.176       10.646      860.403
01/30/2015  15:57:00       -0.931      345.673      -59.730       69.900       75.998       36.437     4885.996     5775.731     1327.669        6.752        0.599      345.674       39.442        0.013      338.263       10.791      860.396
01/30/2015  15:58:00       55.368      269.085      -35.403       71.242      100.387       47.637     5075.457    10077.602     2269.314        4.707        0.871      274.723       50.367        0.034      338.314       10.878      860.406
01/30/2015  15:59:00       70.806      319.318      -50.166       89.614      131.937       65.792     8030.671    17407.270     4328.589        6.963        1.488      327.074       75.715        0.054      338.257       10.783      860.416
01/30/2015  16:00:00      100.507      235.464      -28.395       91.515      103.618       66.288     8374.958    10736.697     4394.052        4.492        1.175      256.017       62.589        0.060      338.285       10.830      860.425
01/30/2015  16:01:00       20.567      284.605      -54.915       86.100       94.087       43.470     7413.198     8852.321     1889.638        5.129        0.908      285.347       39.231        0.019      338.235       10.745      860.420
01/30/2015  16:02:00      -21.710      283.079      -45.372       76.650       97.880       53.849     5875.268     9580.463     2899.724        5.051        0.918      283.910       53.716        0.036      338.327       10.901      860.410
01/30/2015  16:03:00      -24.792      353.628      -45.332       97.309       99.539       55.901     9469.013     9907.922     3124.892        7.511        1.125      354.496       55.216        0.024      338.215       10.711      860.424
01/30/2015  16:04:00       98.677      297.586      -25.542       95.005      144.025       85.780     9025.934    20743.242     7358.268        6.803        1.856      313.520       84.386        0.072      338.121       10.554      860.423
01/30/2015  16:05:00      113.949      286.672      -38.308       88.939       95.401       72.192     7910.116     9101.331     5211.754        5.942        1.111      308.489       64.562        0.044      338.104       10.525      860.410
01/30/2015  16:06:00       59.272      382.776      -57.296       70.089      114.188       47.331     4912.519    13038.928     2240.269        8.675        1.010      387.338       48.988        0.016      338.155       10.611      860.415
01/30/2015  16:07:00      115.333      176.904       -3.107       90.907      106.925       78.357     8264.000    11432.857     6139.842        3.522        1.292      211.179       67.258        0.101      338.202       10.689      860.421
01/30/2015  16:08:00       30.585      363.945      -64.769       54.404       89.822       38.247     2959.764     8067.979     1462.804        7.504        0.625      365.228       38.162        0.011      338.167       10.630      860.433
01/30/2015  16:09:00     -131.370      213.677      -27.731      117.286       91.142       58.745    13756.102     8306.904     3450.996        4.460        1.276      250.831       41.541        0.027      338.289       10.837      860.424
01/30/2015  16:10:00        3.998      219.010      -23.068       87.243      123.820       64.012     7611.379    15331.325     4097.478        3.777        1.352      219.047       63.695        0.085      338.231       10.739      860.417
01/30/2015  16:11:00       84.298      257.784      -17.003      101.243      130.602       73.250    10250.094    17056.851     5365.610        5.325        1.634      271.217       69.281        0.065      338.166       10.629      860.418
01/30/2015  16:12:00       78.590      128.440        1.916      107.016       84.226       61.816    11452.494     7093.988     3821.241        2.252        1.118      150.576       38.226        0.064      338.158       10.617      860.414
01/30/2015  16:13:00       97.008      177.708       -3.233      109.684      117.654       71.736    12030.585    13842.434     5146.016        3.600        1.551      202.462       71.459        0.125      338.139       10.585      860.422
01/30/2015  16:14:00      111.783      239.930      -24.693       82.602      121.444       69.108     6823.168    14748.740     4775.863        4.851        1.317      264.692       72.609        0.075      338.039       10.417      860.420
01/30/2015  16:15:00       32.351      139.751       -4.726       71.176      110.316       59.780     5066.086    12169.611     3573.644        2.070        1.040      143.447       55.070        0.147      338.083       10.491      860.421
01/30/2015  16:16:00       69.395       93.582        8.727       69.596       88.075       54.899     4843.622     7757.202     3013.953        1.463        0.781      116.505       46.725        0.161      338.173       10.642      860.424
01/30/2015  16:17:00       85.506      114.104        4.413      120.636       97.652       74.412    14553.140     9535.913     5537.194        2.498        1.481      142.587       57.330        0.162      338.066       10.464      860.422
01/30/2015  16:18:00      105.426      233.037      -15.011      101.440      131.496       78.391    10289.991    17291.162     6145.145        4.968        1.686      255.775       78.905        0.095      338.003       10.358      860.430
01/30/2015  16:19:00       69.518      247.969       -2.183       83.209      116.083       85.005     6923.798    13475.372     7225.921        4.697        1.381      257.530       78.086        0.092      337.999       10.350      860.443
01/30/2015  16:20:00      -30.447      226.170      -28.799       88.035      147.005       56.608     7750.153    21610.561     3204.413        4.273        1.628      228.211       69.313        0.092      338.095       10.511      860.436
01/30/2015  16:21:00       92.365      144.148        8.555       86.845       82.966       61.890     7542.058     6883.355     3830.316        2.382        0.913      171.201       44.449        0.067      338.032       10.407      860.436
01/30/2015  16:22:00      107.632      236.424      -13.516      107.004      149.376       65.509    11449.753    22313.163     4291.396        5.285        1.903      259.770       79.741        0.094      337.970       10.300      860.407
01/30/2015  16:23:00       25.776      159.935      -20.205       69.951      101.279       52.413     4893.103    10257.528     2747.170        2.227        0.895      161.999       53.483        0.109      338.043       10.425      860.422
01/30/2015  16:24:00       27.404      280.797      -42.753       94.708      142.122       63.369     8969.610    20198.759     4015.624        5.730        1.659      282.131       71.169        0.064      338.029       10.401      860.424
01/30/2015  16:25:00      -32.840      302.642      -53.541       79.048       73.562       38.465     6248.665     5411.356     1479.594        5.434        0.657      304.419       23.892        0.006      338.035       10.410      860.414
01/30/2015  16:26:00       96.601      262.587      -27.293      102.612      129.663       80.923    10529.284    16812.393     6548.593        5.645        1.695      279.792       84.605        0.091      337.982       10.319      860.413
01/30/2015  16:27:00       97.795      306.743      -40.531      103.367      163.114       88.684    10684.747    26606.243     7864.851        7.522        2.258      321.955       95.149        0.087      337.889       10.163      860.403
01/30/2015  16:28:00      138.389      133.899        9.743      115.198      105.745       81.809    13270.559    11181.964     6692.675        3.416        1.557      192.563       62.193        0.104      337.880       10.150      860.396
01/30/2015  16:29:00      154.191      203.404      -17.173      107.996      128.920       78.793    11663.134    16620.285     6208.322        4.996        1.725      255.242       77.262        0.092      337.914       10.206      860.392
01/30/2015  16:30:00       92.371      190.424      -19.333       85.417      119.211       73.621     7296.036    14211.178     5420.107        3.604        1.346      211.645       61.262        0.084      337.884       10.156      860.393
01/30/2015  16:31:00      129.992      228.674        1.045      110.590      132.020       75.126    12230.200    17429.304     5643.917        5.224        1.765      263.040       81.210        0.095      337.865       10.126      860.405
01/30/2015  16:32:00      168.860      161.324       17.760      126.864       84.650       67.342    16094.554     7165.669     4534.903        4.132        1.390      233.536       49.025        0.044      337.866       10.124      860.411
01/30/2015  16:33:00      180.794      147.010       11.924       87.713       73.881       74.661     7693.508     5458.453     5574.265        3.658        0.936      233.020       44.894        0.037      337.859       10.113      860.404
01/30/2015  16:34:00       50.167      187.302      -14.032       78.898      101.487       55.226     6224.901    10299.673     3049.957        2.868        0.979      193.904       51.884        0.072      337.882       10.154      860.413
01/30/2015  16:35:00      116.655      278.942      -34.206      111.014      185.378       79.815    12324.152    34365.179     6370.463        7.281        2.653      302.352       96.474        0.102      337.821       10.051      860.403
01/30/2015  16:36:00      102.304      185.035        0.084       93.836      106.470       73.248     8805.116    11335.805     5365.204        3.510        1.275      211.434       68.556        0.105      337.827       10.061      860.414
01/30/2015  16:37:00       98.954      163.399      -12.663       91.587      111.617       58.908     8388.123    12458.395     3470.201        3.048        1.216      191.027       60.748        0.101      337.835       10.074      860.418
01/30/2015  16:38:00       99.223      207.675       -9.951      117.760      145.257       92.007    13867.468    21099.475     8465.240        4.825        2.172      230.161       89.882        0.153      337.775        9.975      860.411
01/30/2015  16:39:00       92.772      244.415      -15.311       87.313      167.812       81.072     7623.640    28160.902     6572.632        5.546        2.118      261.429       97.904        0.140      337.764        9.956      860.409
01/30/2015  16:40:00      172.633      175.760       15.830      148.925      124.370       83.907    22178.575    15467.979     7040.429        5.281        2.234      246.361       76.416        0.096      337.753        9.936      860.410
01/30/2015  16:41:00      117.293      239.350      -15.924      108.000      150.967       84.400    11663.963    22791.132     7123.428        5.643        2.079      266.545       91.778        0.119      337.727        9.894      860.420
01/30/2015  16:42:00      106.306      135.889      -23.151       82.885       84.287       52.824     6869.998     7104.236     2790.419        2.353        0.838      172.531       50.115        0.084      337.720        9.883      860.438
01/30/2015  16:43:00       45.488      165.585       -7.987       99.840      139.535       75.128     9968.034    19469.958     5644.209        3.231        1.754      171.719       79.929        0.217      337.688        9.830      860.432
01/30/2015  16:44:00       32.072      246.929      -26.369       71.500      135.612       65.261     5112.212    18390.545     4258.953        4.523        1.388      249.003       74.387        0.089      337.733        9.905      860.450
01/30/2015  16:45:00       10.691      255.162      -32.164       59.364      109.091       56.094     3524.060    11900.758     3146.518        4.241        0.929      255.386       62.137        0.059      337.756        9.942      860.460
01/30/2015  16:46:00       47.764      217.302      -24.046       79.300       92.075       50.729     6288.422     8477.719     2573.422        3.371        0.867      222.490       47.856        0.046      337.715        9.874      860.477
01/30/2015  16:47:00       64.012      201.048      -11.655      101.530      144.731       71.290    10308.313    20946.933     5082.322        4.049        1.817      210.992       78.857        0.140      337.662        9.788      860.482
01/30/2015  16:48:00       82.310      196.014      -16.299       76.937      124.252       70.808     5919.339    15438.486     5013.724        3.591        1.319      212.595       78.342        0.136      337.644        9.755      860.486
01/30/2015  16:49:00      181.096      146.070        7.083      124.488       80.463       62.779    15497.199     6474.220     3941.240        4.004        1.296      232.663       49.755        0.046      337.623        9.721      860.491
01/30/2015  16:50:00      148.170      197.761       -6.569       95.485      113.573       87.450     9117.451    12898.858     7647.444        4.538        1.483      247.111       78.825        0.102      337.613        9.702      860.486
01/30/2015  16:51:00       92.625      170.449       -5.087      105.995      108.446       78.687    11234.899    11760.586     6191.575        3.342        1.459      193.991       66.098        0.116      337.596        9.674      860.499
01/30/2015  16:52:00       96.672      265.721      -30.367       89.453      118.389       72.262     8001.814    14015.861     5221.761        5.405        1.362      282.760       75.659        0.072      337.587        9.659      860.528
01/30/2015  16:53:00       64.916      202.439      -20.639       78.630      128.895       72.714     6182.678    16614.037     5287.387        3.685        1.404      212.593       76.136        0.128      337.574        9.637      860.546
01/30/2015  16:54:00       84.303      224.041      -21.033       76.685      115.944       66.652     5880.614    13442.997     4442.532        4.075        1.188      239.377       59.920        0.063      337.558        9.609      860.567
01/30/2015  16:55:00       55.734      156.422       -7.403       68.383      100.378       55.294     4676.286    10075.671     3057.442        2.272        0.890      166.055       56.869        0.117      337.551        9.598      860.579
01/30/2015  16:56:00       32.320      238.662      -37.147       58.529      112.014       41.294     3425.595    12547.186     1705.170        3.853        0.884      240.841       51.148        0.045      337.540        9.580      860.597
01/30/2015  16:57:00       36.086      272.867      -37.674       62.997       84.670       46.494     3968.652     7169.046     2161.666        4.524        0.665      275.243       38.568        0.020      337.530        9.561      860.610
01/30/2015  16:58:00       52.465      266.333      -39.740       51.022       92.579       51.906     2603.249     8570.860     2694.205        4.456        0.693      271.452       52.835        0.038      337.531        9.563      860.614
01/30/2015  16:59:00       22.697      281.878      -40.239       53.483       89.513       40.867     2860.426     8012.589     1670.145        4.706        0.627      282.791       43.460        0.024      337.526        9.556      860.624
01/30/2015  17:00:00       49.570      238.553      -46.666       59.305       97.494       33.661     3517.029     9505.000     1133.040        3.785        0.708      243.649       43.956        0.033      337.497        9.507      860.627
01/30/2015  17:01:00       83.124      202.386       -9.190       77.980      131.156       71.240     6080.890    17201.800     5075.130        3.815        1.418      218.792       72.435        0.110      337.411        9.365      860.638
01/30/2015  17:02:00       98.641      141.816        6.252       80.940      106.500       66.703     6551.361    11342.322     4449.283        2.611        1.117      172.748       61.472        0.127      337.356        9.273      860.644
01/30/2015  17:03:00       67.996      133.844        5.206       78.200       87.680       57.648     6115.284     7687.789     3323.339        1.984        0.856      150.126       48.670        0.105      337.333        9.235      860.650
01/30/2015  17:04:00       72.798      163.892       -4.855       76.031       79.869       55.680     5780.725     6379.045     3100.310        2.372        0.763      179.332       51.047        0.081      337.314        9.200      860.656
01/30/2015  17:05:00       38.292      148.476      -18.794       45.513       70.413       31.916     2071.431     4958.036     1018.607        1.595        0.402      153.334       35.420        0.053      337.316        9.207      860.650
01/30/2015  17:06:00       60.764       69.853        1.859       49.073       51.269       38.803     2408.149     2628.500     1505.664        0.756        0.327       92.583       30.541        0.109      337.292        9.168      860.657
01/30/2015  17:07:00       26.295       69.685       -2.172       34.868       47.217       32.806     1215.794     2229.414     1076.230        0.504        0.226       74.481       29.186        0.154      337.268        9.128      860.651
01/30/2015  17:08:00       85.870       53.414        8.035       54.896       35.434       35.552     3013.541     1255.540     1263.952        0.791        0.277      101.127       31.282        0.096      337.256        9.107      860.648
01/30/2015  17:09:00       84.428       97.933        7.169       45.748       45.714       38.015     2092.892     2089.754     1445.146        1.120        0.281      129.302       21.019        0.026      337.236        9.075      860.654
01/30/2015  17:10:00       64.470       85.479       -7.926       34.160       44.227       27.192     1166.888     1956.038      739.402        0.769        0.193      107.066       22.199        0.043      337.240        9.081      860.664
01/30/2015  17:11:00       35.224       63.670       -3.553       51.643       45.636       31.426     2667.040     2082.626      987.586        0.552        0.287       72.764       27.356        0.141      337.215        9.041      860.691
01/30/2015  17:12:00       17.074      176.837      -29.423       59.225       89.906       32.154     3507.582     8083.088     1033.868        2.252        0.631      177.659       42.913        0.058      337.259        9.112      860.715
01/30/2015  17:13:00      -26.681      256.843      -41.669       68.155       56.437       33.198     4645.147     3185.081     1102.085        3.867        0.447      258.226       33.784        0.017      337.242        9.079      860.725
01/30/2015  17:14:00        7.991      260.595      -48.620       46.462       49.319       23.697     2158.679     2432.337      561.559        3.774        0.258      260.718       20.807        0.006      337.240        9.077      860.717
01/30/2015  17:15:00       27.532      190.969      -23.470       57.765       79.739       41.288     3336.757     6358.378     1704.728        2.459        0.570      192.944       38.495        0.040      337.175        8.969      860.731
01/30/2015  17:16:00       94.873      184.365      -19.270       74.723       79.039       54.934     5583.586     6247.233     3017.702        2.910        0.742      207.343       50.313        0.059      337.155        8.935      860.728
01/30/2015  17:17:00       13.344      215.469      -22.450       55.626      115.640       52.287     3094.306    13372.662     2733.904        3.315        0.960      215.882       65.203        0.091      337.158        8.940      860.735
01/30/2015  17:18:00       10.979      225.512      -28.371       52.582       85.179       39.710     2764.915     7255.460     1576.868        3.169        0.580      225.779       43.006        0.036      337.140        8.911      860.745
01/30/2015  17:19:00       19.880      175.439      -22.307       53.005       77.827       44.933     2809.530     6057.052     2019.011        2.128        0.544      176.561       50.252        0.081      337.127        8.888      860.750
01/30/2015  17:20:00      -15.482      149.248      -29.574       68.241       67.441       29.899     4656.899     4548.356      893.956        1.674        0.505      150.049       36.035        0.058      337.202        9.017      860.759
01/30/2015  17:21:00       53.795      113.845       -1.852       50.459       74.211       52.818     2546.139     5507.229     2789.772        1.335        0.542      125.915       44.869        0.127      337.093        8.830      860.770
01/30/2015  17:22:00       56.713      183.014      -27.437       51.199       61.932       43.691     2621.377     3835.573     1908.872        2.291        0.418      191.600       42.957        0.050      337.099        8.844      860.781
01/30/2015  17:23:00       15.069       98.189      -26.578       39.528       48.238       25.093     1562.436     2326.880      629.652        0.755        0.226       99.339       17.363        0.031      337.096        8.840      860.772
01/30/2015  17:24:00        2.596       64.228      -11.239       43.579       36.808       18.849     1899.090     1354.866      355.289        0.393        0.180       64.281       18.812        0.086      337.124        8.886      860.761
01/30/2015  17:25:00      -11.296      132.129      -22.366       27.712       23.293       14.413      767.932      542.572      207.733        0.980        0.076      132.611       12.947        0.010      337.138        8.909      860.773
01/30/2015  17:26:00      -27.206      113.062      -22.409       17.960       24.443        9.419      322.557      597.480       88.713        0.752        0.050      116.289        6.230        0.003      337.159        8.945      860.776
01/30/2015  17:27:00      -40.039       78.068      -15.368       28.965       43.727       15.809      838.984     1912.057      249.940        0.547        0.150       87.737       18.900        0.046      337.261        9.115      860.774
01/30/2015  17:28:00      -41.979        6.943       -6.844       34.625       25.911       13.557     1198.922      671.365      183.789        0.196        0.103       42.549       10.738        0.064      337.344        9.255      860.772
01/30/2015  17:29:00     -101.525       54.929      -20.089       47.038       48.198       28.993     2212.534     2323.069      840.611        0.955        0.269      115.432       16.005        0.019      337.280        9.148      860.774
01/30/2015  17:30:00      -56.373       86.543      -15.940       50.811       31.206       17.228     2581.782      973.825      296.803        0.739        0.193      103.284       12.959        0.016      337.244        9.088      860.787
01/30/2015  17:31:00      -61.037      144.528      -30.506       62.055       47.565       27.966     3850.884     2262.393      782.076        1.622        0.345      156.888       24.515        0.024      337.122        8.882      860.794
01/30/2015  17:32:00      -78.753      146.504      -26.826       84.821       81.788       39.515     7194.631     6689.303     1561.467        2.191        0.772      166.329       52.044        0.098      337.174        8.968      860.789
01/30/2015  17:33:00      -83.573      192.208      -35.654       48.403       63.600       34.132     2342.879     4044.945     1165.015        2.637        0.378      209.591       33.147        0.025      337.099        8.842      860.790
01/30/2015  17:34:00      -36.711      179.967      -15.427       30.339       96.776       37.976      920.478     9365.614     1442.210        2.285        0.586      183.673       41.424        0.051      337.144        8.917      860.781
01/30/2015  17:35:00      -36.913      237.444      -41.132       45.950       50.127       25.112     2111.426     2512.764      630.605        3.234        0.263      240.296       22.502        0.009      337.085        8.817      860.775
01/30/2015  17:36:00      -55.193      215.902      -36.163       68.802       49.134       33.162     4733.757     2414.135     1099.741        2.961        0.412      222.845       29.678        0.018      337.105        8.851      860.783
01/30/2015  17:37:00      -63.238      212.412      -39.435       93.394       72.358       36.634     8722.396     5235.639     1342.067        3.298        0.765      221.625       38.418        0.030      337.081        8.810      860.788
01/30/2015  17:38:00      -23.329      207.236      -34.266      108.482       83.777       49.765    11768.438     7018.592     2476.508        3.296        1.063      208.545       47.695        0.052      337.036        8.734      860.789
01/30/2015  17:39:00      -53.546      266.162      -36.304       76.498       84.597       38.299     5851.894     7156.702     1466.840        4.475        0.724      271.494       34.553        0.016      337.002        8.678      860.801
01/30/2015  17:40:00        5.054      210.108      -25.876       86.632      126.037       57.204     7505.121    15885.287     3272.269        3.575        1.333      210.168       67.087        0.102      336.973        8.631      860.804
01/30/2015  17:41:00       36.148      105.593       -9.344       51.356       62.637       32.172     2637.463     3923.347     1035.033        1.007        0.380      111.609       34.849        0.097      336.917        8.540      860.809
01/30/2015  17:42:00       38.390      192.502      -25.816       50.125       77.796       44.134     2512.540     6052.249     1947.842        2.485        0.526      196.292       43.461        0.049      336.896        8.501      860.818
01/30/2015  17:43:00       36.317      246.864      -40.142       74.148       91.705       47.123     5497.922     8409.720     2220.565        4.000        0.806      249.521       43.294        0.030      336.891        8.494      860.825
01/30/2015  17:44:00        1.559      113.078       -9.874       72.512       83.041       39.591     5257.940     6895.765     1567.426        1.330        0.686      113.089       39.832        0.124      336.835        8.403      860.829
01/30/2015  17:45:00       56.878      104.866        8.431       63.413       73.978       56.551     4021.172     5472.684     3198.025        1.350        0.635      119.298       50.083        0.176      336.802        8.346      860.824
01/30/2015  17:46:00       98.402      245.787      -20.770       87.088      155.200       90.261     7584.321    24086.912     8147.039        5.517        1.991      264.753       96.322        0.132      336.824        8.383      860.826
01/30/2015  17:47:00       43.943      155.954       -7.386       91.028      105.404       57.265     8286.163    11110.103     3279.293        2.449        1.134      162.027       58.376        0.130      336.795        8.335      860.829
01/30/2015  17:48:00       54.454      222.624      -29.869       70.058      117.714       62.146     4908.127    13856.513     3862.138        3.802        1.131      229.187       62.859        0.075      336.782        8.313      860.835
01/30/2015  17:49:00      102.196      184.134      -10.358       99.742      108.887       66.578     9948.410    11856.430     4432.590        3.534        1.312      210.593       66.956        0.101      336.789        8.323      860.850
01/30/2015  17:50:00       46.188      244.682      -22.609       89.125      149.821       61.933     7943.332    22446.306     3835.655        4.836        1.711      249.003       67.125        0.073      336.803        8.349      860.847
01/30/2015  17:51:00      125.315      229.751       -4.878      101.956      169.913      105.007    10394.932    28870.528    11026.524        5.939        2.515      261.705      100.518        0.148      336.837        8.404      860.842
01/30/2015  17:52:00       53.567      297.343      -32.977       86.842      203.447       83.334     7541.497    41390.579     6944.488        7.411        2.794      302.130      105.955        0.123      336.867        8.454      860.855
01/30/2015  17:53:00       74.924      266.448      -22.595       90.595      144.333       82.288     8207.509    20831.898     6771.306        5.646        1.791      276.781       84.534        0.093      336.851        8.426      860.868
01/30/2015  17:54:00       66.185      241.137       -9.162       98.048      123.406       78.093     9613.432    15229.000     6098.466        4.677        1.547      250.055       76.450        0.093      336.845        8.417      860.880
01/30/2015  17:55:00       43.112      253.000      -10.530       88.797      127.511       78.519     7884.928    16259.099     6165.259        4.814        1.515      256.647       66.614        0.067      336.831        8.394      860.890
01/30/2015  17:56:00       80.123      180.311      -19.890       83.967      121.078       67.890     7050.440    14659.971     4609.071        3.282        1.316      197.312       71.841        0.133      336.828        8.389      860.901
01/30/2015  17:57:00       59.413      239.361      -28.065       72.119      127.048       59.095     5201.137    16141.154     3492.211        4.322        1.242      246.624       69.058        0.078      336.817        8.371      860.912
01/30/2015  17:58:00       43.631      201.381      -18.873       77.954      126.375       79.442     6076.878    15970.655     6311.007        3.558        1.418      206.053       77.515        0.142      336.810        8.359      860.924
01/30/2015  17:59:00       80.165      259.644      -31.466       77.109       88.660       60.070     5945.782     7860.570     3608.409        4.612        0.871      271.738       49.635        0.033      336.811        8.358      860.927
01/30/2015  18:00:00       54.792      174.660      -19.557       65.254      110.701       65.186     4258.030    12254.706     4249.200        2.732        1.038      183.053       67.641        0.137      336.783        8.315      860.919
01/30/2015  18:01:00       65.166      175.703      -27.046       58.115       81.407       43.540     3377.304     6627.101     1895.729        2.387        0.595      187.398       43.565        0.054      336.766        8.287      860.920
01/30/2015  18:02:00       62.118      360.772      -42.804       95.059      130.225       66.848     9036.190    16958.607     4468.669        8.315        1.523      366.081       65.030        0.032      336.781        8.310      860.923
01/30/2015  18:03:00       50.576      215.154      -13.909       97.883      122.524       66.500     9581.151    15012.202     4422.312        3.902        1.451      221.018       65.361        0.087      336.729        8.225      860.942
01/30/2015  18:04:00       49.138      166.510      -18.486       48.464       85.685       56.073     2348.744     7341.999     3144.192        2.166        0.642      173.609       51.766        0.089      336.704        8.183      860.954
01/30/2015  18:05:00       99.264      168.994       -1.401       96.238       85.642       81.591     9261.837     7334.477     6657.153        3.083        1.163      195.991       51.509        0.069      336.689        8.159      860.953
01/30/2015  18:06:00       75.398      224.522      -24.298       80.310      122.528       72.649     6449.707    15013.030     5277.860        4.171        1.337      236.844       76.499        0.104      336.705        8.183      860.962
01/30/2015  18:07:00      115.438      179.374       -3.869       85.313      114.998       73.951     7278.313    13224.653     5468.719        3.574        1.299      213.309       67.232        0.099      336.687        8.155      860.960
01/30/2015  18:08:00      105.270      123.374        8.057      103.345       73.937       65.867    10680.099     5466.721     4338.417        2.342        1.024      162.182       50.878        0.098      336.647        8.087      860.974
01/30/2015  18:09:00      103.119      149.727       21.391      118.325      106.288       83.699    14000.788    11297.064     7005.498        3.290        1.615      181.802       64.267        0.125      336.680        8.143      860.961
01/30/2015  18:10:00      135.104      162.938      -10.587      136.802       83.983       68.282    18714.680     7053.145     4662.485        3.767        1.522      211.664       56.921        0.072      336.699        8.174      860.960
01/30/2015  18:11:00       91.297      130.124        3.390       99.222       91.031       77.976     9844.934     8286.709     6080.255        2.474        1.211      158.957       56.958        0.128      336.691        8.162      860.943
01/30/2015  18:12:00       83.667      194.332      -20.174       62.586       96.460       65.056     3916.991     9304.588     4232.267        3.131        0.873      211.578       60.314        0.081      336.686        8.153      860.943
01/30/2015  18:13:00      120.225      100.744        5.276       74.416       53.753       43.508     5537.737     2889.403     1892.923        1.747        0.516      156.854       27.316        0.030      336.640        8.078      860.926
01/30/2015  18:14:00      129.999      132.350        7.527       93.764       78.077       60.354     8791.667     6096.076     3642.616        2.650        0.927      185.516       46.233        0.062      336.685        8.151      860.918
01/30/2015  18:15:00       76.670      143.942       -1.263       66.819      103.195       49.637     4464.749    10649.248     2463.792        2.209        0.879      163.087       49.275        0.091      336.658        8.105      860.920
01/30/2015  18:16:00       66.478       74.531       -6.265       45.310       48.846       38.505     2053.005     2385.970     1482.597        0.797        0.296       99.871       28.612        0.082      336.624        8.053      860.917
01/30/2015  18:17:00       31.870      161.762      -20.517       46.700       86.826       35.598     2180.853     7538.817     1267.241        1.929        0.549      164.871       37.731        0.052      336.646        8.086      860.912
01/30/2015  18:18:00       68.061       86.897       -1.907       69.716       80.008       46.202     4860.374     6401.274     2134.624        1.279        0.670      110.379       44.846        0.165      336.620        8.045      860.920
01/30/2015  18:19:00      102.516       56.410        9.201       82.690       67.692       52.322     6837.669     4582.259     2737.589        1.396        0.708      117.011       34.568        0.087      336.644        8.085      860.922
01/30/2015  18:20:00       45.939      136.106       -2.448       67.261       88.305       54.520     4523.976     7797.809     2972.406        1.797        0.765      143.650       50.380        0.123      336.693        8.167      860.932
01/30/2015  18:21:00       36.503       94.742       -1.427       63.897       69.406       47.702     4082.834     4817.177     2275.495        1.074        0.559      101.531       36.295        0.128      336.655        8.104      860.944
01/30/2015  18:22:00       48.057      226.835      -10.087       74.380      139.757       71.775     5532.406    19532.049     5151.667        4.204        1.511      231.870       79.925        0.119      336.651        8.094      860.961
01/30/2015  18:23:00       -2.364      272.397      -33.883       81.678       90.073       54.329     6671.350     8113.201     2951.587        4.654        0.887      272.407       39.982        0.022      336.661        8.110      860.965
01/30/2015  18:24:00       -1.660      300.325      -36.061       59.273      105.313       48.862     3513.316    11090.767     2387.471        5.424        0.850      300.330       58.311        0.038      336.651        8.094      860.974
01/30/2015  18:25:00       -7.931      272.440      -32.940       80.097       84.654       41.909     6415.497     7166.355     1756.392        4.535        0.767      272.556       38.476        0.020      336.657        8.103      860.979
01/30/2015  18:26:00       -9.073      291.758      -42.704       64.716       81.323       35.332     4188.105     6613.452     1248.377        4.954        0.602      291.899       31.894        0.012      336.633        8.062      860.994
01/30/2015  18:27:00       37.737      180.077      -18.918       62.537       87.789       46.821     3910.920     7706.826     2192.204        2.401        0.690      183.989       47.213        0.066      336.579        7.974      861.001
01/30/2015  18:28:00      -10.782      253.379      -38.018       72.020       76.162       36.353     5186.896     5800.688     1321.528        3.903        0.615      253.608       36.011        0.020      336.599        8.008      861.028
01/30/2015  18:29:00       45.814      254.578      -47.286       60.770       70.274       40.170     3693.039     4938.468     1613.630        3.969        0.512      258.667       39.859        0.024      336.562        7.944      861.033
01/30/2015  18:30:00      -10.950      188.612      -30.586       47.452       59.726       27.216     2251.711     3567.223      740.712        2.159        0.328      188.930       31.731        0.028      336.550        7.927      861.048
01/30/2015  18:31:00       25.554      137.991        6.321       71.655       67.160       48.377     5134.424     4510.478     2340.369        1.586        0.599      140.337       38.312        0.075      336.504        7.848      861.049
01/30/2015  18:32:00       28.082      188.415      -21.221       57.208       60.970       43.941     3272.810     3717.299     1930.798        2.283        0.446      190.496       39.810        0.044      336.504        7.847      861.051
01/30/2015  18:33:00       10.948      283.271      -50.290       62.134       92.331       32.885     3860.637     8524.930     1081.409        4.818        0.673      283.482       39.600        0.020      336.523        7.879      861.069
01/30/2015  18:34:00        5.205      240.423      -32.063       61.385       70.712       36.966     3768.173     5000.223     1366.521        3.450        0.507      240.480       37.216        0.024      336.458        7.769      861.072
01/30/2015  18:35:00       14.977      226.097      -30.766       48.613       55.630       30.153     2363.186     3094.702      909.213        2.933        0.318      226.593       20.778        0.008      336.441        7.741      861.084
01/30/2015  18:36:00       -8.591      220.190      -25.721       42.085       75.482       36.395     1771.171     5697.574     1324.613        2.900        0.440      220.358       41.380        0.035      336.420        7.704      861.093
01/30/2015  18:37:00        5.528      272.002      -44.605       40.854       67.984       31.081     1669.061     4621.818      966.052        4.163        0.363      272.059       34.830        0.016      336.426        7.715      861.096
01/30/2015  18:38:00      -40.836      248.640      -39.621       42.672       66.856       27.459     1820.905     4469.766      753.994        3.605        0.352      251.971       32.479        0.017      336.465        7.780      861.110
01/30/2015  18:39:00      -68.226      247.333      -32.374       54.149       94.310       39.008     2932.111     8894.330     1521.613        4.011        0.667      256.570       47.292        0.034      336.501        7.841      861.120
01/30/2015  18:40:00     -103.467      171.680      -32.135       52.975       69.290       37.333     2806.392     4801.082     1393.727        2.511        0.450      200.448       38.859        0.038      336.529        7.889      861.124
01/30/2015  18:41:00     -125.374      205.271      -25.115       63.059       65.698       42.115     3976.384     4316.218     1773.686        3.427        0.503      240.530       41.121        0.029      336.526        7.885      861.117
01/30/2015  18:42:00      -74.172      220.076      -35.609       64.481       92.090       34.556     4157.779     8480.578     1194.107        3.452        0.692      232.239       37.884        0.027      336.483        7.810      861.128
01/30/2015  18:43:00      -69.042      246.440      -37.095       56.820       68.425       34.261     3228.472     4681.922     1173.797        3.798        0.454      255.928       33.718        0.017      336.481        7.807      861.144
01/30/2015  18:44:00      -86.901      207.311      -26.851       76.514       85.289       38.765     5854.343     7274.279     1502.752        3.294        0.732      224.788       43.146        0.037      336.483        7.812      861.143
01/30/2015  18:45:00     -125.076      201.424      -26.159       86.741       71.528       46.341     7524.066     5116.278     2147.508        3.584        0.739      237.098       51.843        0.048      336.452        7.759      861.154
01/30/2015  18:46:00     -169.370      231.195      -37.715       84.923       84.954       41.341     7211.988     7217.103     1709.073        4.985        0.807      286.596       35.101        0.015      336.538        7.903      861.165
01/30/2015  18:47:00     -183.316      216.686      -46.259       58.938       73.174       44.493     3473.662     5354.419     1979.647        4.675        0.540      283.826       40.763        0.021      336.480        7.805      861.164
01/30/2015  18:48:00      -17.835      234.482      -33.717       62.039       68.860       35.039     3848.805     4741.715     1227.751        3.313        0.491      235.159       30.303        0.017      336.420        7.705      861.169
01/30/2015  18:49:00      -46.202      256.451      -39.852       47.390       62.157       28.205     2245.804     3863.439      795.528        3.820        0.345      260.580       11.106        0.002      336.416        7.697      861.162
01/30/2015  18:50:00       -9.109      204.580      -27.741       44.801       72.896       31.643     2007.133     5313.899     1001.302        2.551        0.416      204.783       34.049        0.028      336.376        7.632      861.181
01/30/2015  18:51:00      -96.558      214.115      -30.170       75.075       66.192       37.706     5636.330     4381.334     1421.749        3.376        0.572      234.880       28.728        0.015      336.475        7.799      861.189
01/30/2015  18:52:00     -117.088      239.347      -36.697       83.152       87.184       58.566     6914.286     7601.054     3429.976        4.514        0.897      266.452       59.921        0.051      336.568        7.953      861.186
01/30/2015  18:53:00     -148.801      189.324      -34.662       71.131      117.099       49.962     5059.571    13712.100     2496.154        4.022        1.063      240.801       52.726        0.048      336.606        8.017      861.185
01/30/2015  18:54:00     -153.346      229.855      -41.478       58.274       73.460       40.749     3395.818     5396.436     1660.484        4.426        0.523      276.312       31.629        0.013      336.660        8.109      861.169
01/30/2015  18:55:00      -78.319      223.657      -23.933       66.693       91.071       44.441     4447.939     8293.858     1975.023        3.572        0.736      236.973       44.273        0.035      336.599        8.006      861.183
01/30/2015  18:56:00      -45.336      241.214      -31.811       48.997      132.604       44.059     2400.692    17583.776     1941.220        4.159        1.096      245.438       59.298        0.058      336.627        8.055      861.175
01/30/2015  18:57:00      -77.929      219.280      -20.720       52.639      108.379       45.686     2770.820    11746.045     2087.165        3.559        0.830      232.716       47.225        0.041      336.588        7.987      861.171
01/30/2015  18:58:00     -110.580      276.570      -41.105       97.283      141.464       47.932     9463.984    20012.038     2297.431        6.109        1.589      297.858       57.847        0.038      336.570        7.959      861.173
01/30/2015  18:59:00     -108.116      199.889      -40.406       66.845       86.364       49.254     4468.268     7458.732     2425.968        3.381        0.718      227.255       39.573        0.030      336.641        8.075      861.155
01/30/2015  19:00:00      -94.802      197.961      -27.412       43.545       67.096       36.411     1896.144     4501.931     1325.738        2.832        0.386      219.490       37.201        0.029      336.531        7.893      861.161
01/30/2015  19:01:00     -126.298      118.325      -18.778       52.499       73.067       34.579     2756.171     5338.802     1195.740        1.980        0.465      173.066       29.470        0.029      336.645        8.086      861.173
01/30/2015  19:02:00      -56.032      126.452      -14.711       33.099       46.819       21.714     1095.526     2192.062      471.499        1.155        0.188      138.310       12.019        0.008      336.560        7.944      861.191
01/30/2015  19:03:00     -121.056      128.777      -22.617       56.079       84.927       36.466     3144.865     7212.622     1329.755        2.172        0.584      176.743       33.289        0.035      336.493        7.829      861.209
01/30/2015  19:04:00      -96.836      190.680      -33.052       52.559       65.871       30.726     2762.492     4339.001      944.112        2.744        0.402      213.860       27.502        0.017      336.324        7.545      861.209
01/30/2015  19:05:00      -37.081      232.981      -32.057       41.086       60.024       26.071     1688.091     3602.885      679.719        3.133        0.299      235.913       18.426        0.006      336.291        7.491      861.233
01/30/2015  19:06:00      -39.890      199.436      -27.096       72.346       68.433       31.780     5233.884     4683.024     1009.983        2.651        0.546      203.386       26.992        0.018      336.275        7.465      861.242
01/30/2015  19:07:00      -54.093      202.602      -29.560       38.351       36.942       20.762     1470.785     1364.747      431.046        2.406        0.163      209.699       13.161        0.004      336.220        7.374      861.251
01/30/2015  19:08:00     -115.371      126.193      -18.905       68.098       93.312       40.897     4637.278     8707.106     1672.564        2.230        0.751      170.983       38.295        0.050      336.335        7.566      861.247
01/30/2015  19:09:00      -99.704      142.203      -17.174       58.683       56.945       41.036     3443.666     3242.749     1683.950        1.941        0.419      173.674       28.900        0.028      336.299        7.505      861.245
01/30/2015  19:10:00     -186.261      155.820      -42.850       48.867       61.662       33.253     2388.024     3802.199     1105.759        3.405        0.365      242.844       31.692        0.017      336.353        7.593      861.254
01/30/2015  19:11:00      -66.365      118.810      -20.178       51.866       52.270       29.960     2690.032     2732.146      897.632        1.262        0.316      136.089       28.733        0.045      336.350        7.592      861.269
01/30/2015  19:12:00     -128.459      130.621      -34.767       61.169       45.519       26.898     3741.678     2071.971      723.486        2.065        0.327      183.204       34.430        0.035      336.190        7.323      861.304
01/30/2015  19:13:00     -112.632      192.351      -34.242       74.664       68.327       39.743     5574.660     4668.580     1579.537        3.134        0.591      222.901       40.823        0.034      336.122        7.207      861.310
01/30/2015  19:14:00     -126.091      214.397      -34.455       62.086       68.265       38.776     3854.666     4660.076     1503.572        3.653        0.501      248.726       36.478        0.022      336.121        7.206      861.337
01/30/2015  19:15:00      -95.208      162.020      -29.389       64.416       53.895       34.933     4149.385     2904.653     1220.294        2.223        0.414      187.923       30.080        0.026      336.045        7.081      861.350
01/30/2015  19:16:00      -96.039      113.369      -25.258       53.286       98.191       35.275     2839.378     9641.555     1244.315        1.822        0.686      148.579       36.824        0.061      336.216        7.368      861.355
01/30/2015  19:17:00     -127.957      116.052      -26.317       58.419       67.329       40.245     3412.803     4533.136     1619.641        2.005        0.478      172.746       35.215        0.042      336.072        7.126      861.366
01/30/2015  19:18:00      -79.361      148.085      -20.287       56.393       61.688       30.665     3180.126     3805.422      940.334        1.828        0.396      168.010       29.196        0.030      336.021        7.042      861.371
01/30/2015  19:19:00     -118.902      113.845      -23.557       47.467       51.761       28.434     2253.095     2679.174      808.505        1.670        0.287      164.616       29.456        0.032      336.067        7.119      861.369
01/30/2015  19:20:00      -70.532       25.101       -9.873       52.373       61.963       26.004     2742.920     3839.417      676.194        0.648        0.363       74.866       26.474        0.125      336.277        7.470      861.361
01/30/2015  19:21:00      -52.292       78.379        4.694       52.815       50.616       37.803     2789.458     2561.989     1429.091        0.784        0.339       94.221       39.929        0.180      336.053        7.095      861.375
01/30/2015  19:22:00      -84.881       89.864      -20.994       59.690       60.423       34.013     3562.937     3650.957     1156.910        1.204        0.419      123.613       36.691        0.088      336.159        7.273      861.391
01/30/2015  19:23:00     -118.808      109.791      -25.998       40.448       52.068       33.323     1636.010     2711.108     1110.397        1.615        0.273      161.769       26.256        0.026      336.150        7.257      861.385
01/30/2015  19:24:00     -149.543      115.152      -38.499       44.304       59.412       27.291     1962.814     3529.830      744.790        2.167        0.312      188.741       24.823        0.017      336.256        7.434      861.392
01/30/2015  19:25:00      -99.331      118.502       -8.790       80.176       67.095       39.558     6428.115     4501.721     1564.871        1.824        0.625      154.627       37.201        0.058      336.330        7.558      861.403
01/30/2015  19:26:00      -70.869      185.016      -19.006       40.610       59.662       33.913     1649.177     3559.613     1150.075        2.299        0.318      198.125       33.617        0.029      336.111        7.191      861.413
01/30/2015  19:27:00     -124.852      174.242      -35.525       56.821       50.609       34.190     3228.602     2561.295     1168.923        2.708        0.348      214.355       38.000        0.031      336.107        7.183      861.416
01/30/2015  19:28:00      -62.640      151.241      -19.104       42.636       59.495       26.253     1817.814     3539.651      689.198        1.660        0.302      163.700       18.597        0.013      336.148        7.253      861.429
01/30/2015  19:29:00     -139.170      122.947      -33.252       77.957       56.366       32.770     6077.224     3177.090     1073.861        2.296        0.516      185.700       37.748        0.041      336.219        7.371      861.444
01/30/2015  19:30:00      -99.597      136.688      -18.317       64.451       75.085       37.992     4153.934     5637.751     1443.406        2.008        0.562      169.124       32.552        0.037      336.235        7.400      861.440
01/30/2015  19:31:00     -105.913       90.118      -21.444       55.158       53.201       32.379     3042.408     2830.356     1048.403        1.336        0.346      139.064       35.693        0.066      336.195        7.334      861.446
01/30/2015  19:32:00      -75.975      100.944       -6.093       51.225       85.457       32.108     2623.974     7302.918     1030.919        1.348        0.548      126.341       34.846        0.076      336.189        7.323      861.451
01/30/2015  19:33:00     -125.548       64.509      -17.252       41.703       37.154       29.889     1739.150     1380.408      893.352        1.212        0.201      141.152       14.163        0.010      336.369        7.626      861.442
01/30/2015  19:34:00     -111.411      106.741      -22.752       49.789       57.685       31.279     2478.910     3327.539      978.386        1.555        0.339      154.292       27.177        0.031      336.157        7.269      861.443
01/30/2015  19:35:00      -94.328      171.026      -22.956       57.085       73.610       35.340     3258.685     5418.398     1248.929        2.430        0.496      195.314       26.758        0.019      336.113        7.195      861.445
01/30/2015  19:36:00      -75.345       92.679      -15.751       54.908       64.009       29.111     3014.850     4097.128      847.464        1.124        0.398      119.441       31.487        0.069      336.241        7.411      861.455
01/30/2015  19:37:00      -63.718      143.456      -22.001       65.115       68.150       31.334     4240.018     4644.371      981.793        1.749        0.493      156.970       34.026        0.047      336.109        7.188      861.470
01/30/2015  19:38:00      -97.468      130.215       -5.060       68.165       88.765       44.336     4646.461     7879.189     1965.695        2.048        0.725      162.653       48.633        0.089      336.097        7.169      861.478
01/30/2015  19:39:00      -95.363      174.087      -21.832       48.128       98.655       43.090     2316.302     9732.862     1856.726        2.689        0.695      198.495       50.263        0.064      336.004        7.011      861.501
01/30/2015  19:40:00      -48.703      215.152      -30.051       24.530       55.331       22.103      601.742     3061.547      488.550        2.686        0.208      220.596       18.586        0.007      335.928        6.885      861.505
01/30/2015  19:41:00      -60.062       60.217      -10.177       46.852       81.027       30.078     2195.129     6565.364      904.701        0.850        0.483       85.050       23.621        0.077      336.044        7.081      861.502
01/30/2015  19:42:00      -70.615      165.718      -22.658       38.821       47.471       26.934     1507.085     2253.495      725.433        1.872        0.224      180.136       25.210        0.020      335.959        6.936      861.504
01/30/2015  19:43:00      -13.169      248.650      -39.503       36.115       59.775       27.474     1304.322     3573.108      754.812        3.460        0.282      248.998       28.032        0.013      335.886        6.812      861.516
01/30/2015  19:44:00      -44.591      151.987      -29.774       63.775       46.774       24.171     4067.302     2187.775      584.230        1.641        0.342      158.393       17.105        0.012      335.839        6.740      861.511
01/30/2015  19:45:00      -65.754      118.439      -18.834       67.467       37.473       22.484     4551.731     1404.197      505.511        1.258        0.323      135.468       26.951        0.040      335.911        6.861      861.492
01/30/2015  19:46:00      -59.251      107.081      -16.574       38.659       45.570       18.905     1494.534     2076.662      357.391        0.959        0.196      122.381       18.938        0.024      335.900        6.842      861.496
01/30/2015  19:47:00       21.635      147.256      -27.805       35.746       27.979       20.375     1277.779      782.820      415.159        1.270        0.124      148.837       14.125        0.009      335.793        6.663      861.501
01/30/2015  19:48:00       -9.440      184.416      -32.036       33.426       33.931       19.032     1117.285     1151.322      362.225        1.888        0.132      184.658       18.969        0.011      335.751        6.594      861.500
01/30/2015  19:49:00      -73.362      219.210      -27.534       39.556       47.433       29.074     1564.709     2249.928      845.280        2.943        0.233      231.160       23.282        0.010      335.736        6.566      861.490
01/30/2015  19:50:00     -110.593      169.387      -33.114       52.738       51.608       35.750     2781.327     2663.400     1278.038        2.437        0.336      202.294       29.313        0.021      335.766        6.615      861.482
01/30/2015  19:51:00      -98.553      202.516      -28.361       57.957       51.674       27.003     3359.005     2670.184      729.162        2.914        0.338      225.223       21.054        0.009      335.744        6.579      861.490
01/30/2015  19:52:00      -45.739      209.454      -34.826       49.832       46.235       27.452     2483.242     2137.653      753.614        2.627        0.269      214.390       20.941        0.010      335.796        6.666      861.505
01/30/2015  19:53:00      -36.208      185.745      -25.527       56.400       40.243       27.344     3180.984     1619.460      747.669        2.101        0.277      189.241       15.564        0.007      335.760        6.606      861.489
01/30/2015  19:54:00      -89.385      164.070      -27.729       44.115       57.711       37.264     1946.115     3330.570     1388.612        2.117        0.333      186.839       30.416        0.027      335.854        6.762      861.487
01/30/2015  19:55:00      -89.593      109.698      -13.550       83.977       52.454       31.232     7052.056     2751.383      975.456        1.551        0.539      141.636       25.513        0.032      336.039        7.072      861.472
01/30/2015  19:56:00      -99.464      125.321      -25.301       50.650       44.225       27.382     2565.448     1955.821      749.780        1.575        0.264      159.995       27.024        0.029      336.116        7.202      861.491
01/30/2015  19:57:00     -104.459      152.372      -32.945       46.691       50.210       31.355     2180.090     2521.058      983.156        2.045        0.284      184.740       18.932        0.011      336.030        7.057      861.498
01/30/2015  19:58:00      -76.621      200.757      -23.393       86.864       80.747       52.741     7545.370     6520.064     2781.647        3.178        0.842      214.882       41.359        0.037      336.018        7.036      861.516
01/30/2015  19:59:00      -99.188      157.146      -22.694       59.193       65.113       29.549     3503.762     4239.665      873.139        2.183        0.431      185.831       22.061        0.014      335.987        6.985      861.514
01/30/2015  20:00:00      -96.981      164.733      -26.862       47.844       54.515       33.539     2289.017     2971.872     1124.890        2.182        0.319      191.161       33.802        0.031      336.002        7.009      861.534
01/30/2015  20:01:00      -58.941      152.897      -22.223       34.080       26.250       19.352     1161.459      689.073      374.511        1.478        0.111      163.864        7.452        0.002      336.015        7.033      861.550
01/30/2015  20:02:00       -4.255      116.636      -15.787       43.691       52.949       27.481     1908.892     2803.631      755.226        0.967        0.273      116.714       31.376        0.072      335.901        6.843      861.566
01/30/2015  20:03:00      -13.324      165.616      -27.029       31.831       46.421       21.344     1013.228     2154.925      455.549        1.598        0.181      166.151       22.783        0.019      335.804        6.681      861.578
01/30/2015  20:04:00      -29.518      158.399      -18.424       27.882       38.926       18.807      777.393     1515.214      353.688        1.447        0.132      161.126       15.695        0.009      335.780        6.640      861.577
01/30/2015  20:05:00      -24.513      149.269      -24.869       24.806       23.233       11.869      615.353      539.790      140.877        1.240        0.065      151.268        6.664        0.002      335.808        6.688      861.600
01/30/2015  20:06:00      -60.505      150.663      -27.601       40.573       39.550       18.901     1646.151     1564.193      357.261        1.534        0.178      162.358       19.198        0.014      335.872        6.793      861.611
01/30/2015  20:07:00      -71.640      112.204      -16.605       44.434       40.485       26.211     1974.349     1639.026      687.036        1.115        0.215      133.124       27.963        0.044      335.949        6.923      861.628
01/30/2015  20:08:00      -55.462       80.441       -8.426       29.949       37.850       17.543      896.930     1432.604      307.756        0.613        0.132       97.708       10.753        0.012      335.950        6.925      861.650
01/30/2015  20:09:00      -76.638      131.873      -22.039       62.338       41.529       26.595     3886.086     1724.661      707.290        1.503        0.316      152.525       21.186        0.019      335.869        6.789      861.676
01/30/2015  20:10:00      -94.291      136.058      -23.075       43.048       67.179       30.913     1853.091     4513.034      955.595        1.763        0.366      165.537       21.167        0.016      335.833        6.728      861.705
01/30/2015  20:11:00      -31.621       93.009       -2.324       38.022       54.691       32.242     1445.662     2991.068     1039.542        0.757        0.274       98.237       33.802        0.118      335.769        6.625      861.726
01/30/2015  20:12:00      -36.156      101.714       -7.536       22.706       36.611       24.742      515.542     1340.370      612.185        0.709        0.123      107.949       15.649        0.021      335.777        6.638      861.731
01/30/2015  20:13:00      -92.730      110.941      -23.770       39.095       47.596       21.830     1528.383     2265.401      476.561        1.287        0.214      144.592       25.776        0.032      335.710        6.525      861.735
01/30/2015  20:14:00     -113.342       81.429      -26.074       39.444       61.176       29.256     1555.806     3742.478      855.888        1.315        0.308      139.560       33.442        0.057      335.844        6.748      861.738
01/30/2015  20:15:00      -60.720      112.796      -19.394       37.963       50.028       31.644     1441.224     2502.817     1001.332        1.086        0.247      128.101       25.967        0.041      335.726        6.553      861.741
01/30/2015  20:16:00     -153.626      121.069      -34.688       42.024       57.698       30.056     1766.010     3329.022      903.367        2.273        0.300      195.598       27.423        0.020      335.805        6.682      861.741
01/30/2015  20:17:00      -92.920       94.704      -21.782       34.566       43.070       25.244     1194.826     1855.029      637.270        1.088        0.184      132.676       17.593        0.018      335.781        6.643      861.743
01/30/2015  20:18:00      -59.792      121.924      -22.745       46.624       52.332       27.996     2173.843     2738.674      783.759        1.233        0.285      135.795       19.113        0.020      335.765        6.616      861.745
01/30/2015  20:19:00      -71.723      101.125      -15.824       48.957       39.153       26.796     2396.765     1532.969      718.022        1.013        0.232      123.978       28.522        0.053      335.737        6.568      861.750
01/30/2015  20:20:00     -113.128      112.598      -25.494       47.511       45.365       28.127     2257.273     2057.951      791.137        1.562        0.255      159.613       22.761        0.020      335.793        6.663      861.746
01/30/2015  20:21:00     -176.905      158.773      -40.435       62.211       56.172       37.779     3870.265     3155.340     1427.219        3.329        0.423      237.706       32.853        0.019      335.786        6.649      861.756
01/30/2015  20:22:00      -80.018      110.135      -14.719       68.629       47.273       27.452     4709.962     2234.739      753.622        1.322        0.385      136.135       26.406        0.038      335.808        6.689      861.765
01/30/2015  20:23:00      -94.326      184.345      -20.726       53.972       55.214       36.386     2912.925     3048.623     1323.940        2.530        0.364      207.076       36.754        0.032      335.664        6.445      861.788
01/30/2015  20:24:00      -15.393      244.195      -29.617       56.567       76.941       32.810     3199.785     5919.882     1076.487        3.547        0.510      244.680       33.490        0.019      335.590        6.323      861.799
01/30/2015  20:25:00      -73.802      164.655      -17.386       46.113       78.799       35.455     2126.435     6209.308     1257.078        2.123        0.480      180.439       39.910        0.049      335.646        6.416      861.800
01/30/2015  20:26:00      -14.635      184.395      -13.589       43.463       70.211       35.766     1889.003     4929.634     1279.177        2.125        0.405      184.975       40.097        0.047      335.624        6.380      861.817
01/30/2015  20:27:00      -76.531      117.875      -19.376       41.106       43.493       19.967     1689.682     1891.600      398.692        1.205        0.199      140.540       17.318        0.015      335.785        6.651      861.823
01/30/2015  20:28:00     -145.569      147.255      -24.470       61.937       59.753       38.935     3836.197     3570.425     1515.906        2.620        0.446      207.062       35.702        0.030      335.744        6.579      861.831
01/30/2015  20:29:00     -125.253      144.306      -29.823       59.680       68.354       40.058     3561.742     4672.289     1604.659        2.362        0.492      191.082       34.907        0.033      335.761        6.608      861.844
01/30/2015  20:30:00      -99.062      157.719      -19.196       63.501       63.640       34.709     4032.318     4050.028     1204.703        2.217        0.464      186.248       36.279        0.038      335.740        6.572      861.857
01/30/2015  20:31:00      -80.761      178.525      -29.139       46.168       60.921       30.148     2131.487     3711.399      908.903        2.300        0.338      195.943       30.447        0.024      335.640        6.407      861.880
01/30/2015  20:32:00      -71.518      129.251      -13.056       66.894       63.284       35.455     4474.789     4004.831     1257.088        1.586        0.487      147.718       41.615        0.079      335.603        6.345      861.889
01/30/2015  20:33:00      -64.880      129.153      -15.851       46.792       68.326       31.671     2189.502     4668.443     1003.037        1.450        0.393      144.534       27.040        0.035      335.701        6.510      861.890
01/30/2015  20:34:00      -83.469      122.525      -23.351       68.639       47.868       28.142     4711.267     2291.383      791.962        1.516        0.390      148.255       35.624        0.058      335.688        6.487      861.884
01/30/2015  20:35:00      -94.858       98.620      -20.670       59.499       46.824       33.005     3540.170     2192.488     1089.304        1.299        0.341      136.835       20.631        0.023      335.645        6.418      861.881
01/30/2015  20:36:00     -117.028       95.905      -23.864       83.908       55.167       40.127     7040.513     3043.437     1610.199        1.758        0.585      151.305       52.495        0.120      335.691        6.494      861.886
01/30/2015  20:37:00      -62.494       89.538      -18.831       38.862       79.797       31.984     1510.263     6367.636     1022.982        1.059        0.445      109.190       33.085        0.092      335.597        6.337      861.869
01/30/2015  20:38:00      -76.642       53.028       -0.759       66.264       75.229       45.744     4390.885     5659.434     2092.491        1.041        0.607       93.198       56.906        0.373      335.596        6.335      861.862
01/30/2015  20:39:00     -136.632      206.694      -47.896       61.293       56.315       32.054     3756.778     3171.433     1027.475        3.582        0.398      247.771       34.070        0.019      335.611        6.356      861.871
01/30/2015  20:40:00     -106.649      169.848      -30.874       62.272       69.776       33.443     3877.833     4868.647     1118.414        2.552        0.493      200.555       34.646        0.030      335.735        6.563      861.873
01/30/2015  20:41:00      -89.204      172.155      -26.859       49.784       73.088       28.769     2478.457     5341.823      827.627        2.348        0.432      193.893       29.513        0.023      335.686        6.484      861.881
01/30/2015  20:42:00      -78.720      162.746      -27.690       44.311       80.400       29.052     1963.453     6464.169      843.993        2.136        0.464      180.785       32.103        0.032      335.657        6.437      861.886
01/30/2015  20:43:00      -47.915      130.295      -17.411       30.455       37.528       24.181      927.505     1408.336      584.742        1.125        0.146      138.826       16.274        0.014      335.594        6.332      861.886
01/30/2015  20:44:00      -60.394      171.835      -25.854       42.554       56.198       26.437     1810.861     3158.259      698.900        1.975        0.283      182.139       26.189        0.021      335.641        6.409      861.901
01/30/2015  20:45:00      -20.404      217.627      -34.776       44.447       32.427       20.974     1975.575     1051.480      439.920        2.623        0.173      218.582       16.517        0.006      335.545        6.247      861.930
01/30/2015  20:46:00      -54.356      208.518      -23.767       52.677       58.324       37.372     2774.911     3401.687     1396.666        2.728        0.379      215.486       34.083        0.025      335.597        6.334      861.941
01/30/2015  20:47:00      -64.900      172.700      -17.919       38.941       65.701       25.386     1516.407     4316.570      644.452        2.042        0.324      184.492       23.574        0.016      335.495        6.166      861.952
01/30/2015  20:48:00      -67.213      130.568      -24.430       43.590       47.248       27.333     1900.109     2232.414      747.097        1.352        0.244      146.852       22.666        0.024      335.638        6.405      861.985
01/30/2015  20:49:00      -33.840      111.060      -14.272       38.536       64.404       24.870     1485.028     4147.832      618.496        0.997        0.313      116.101       24.188        0.043      335.587        6.319      862.007
01/30/2015  20:50:00       -8.064      133.630      -15.300       67.917       71.963       33.943     4612.781     5178.630     1152.104        1.455        0.547      133.873       43.832        0.107      335.543        6.246      862.008
01/30/2015  20:51:00       23.264      145.144      -20.042       37.651       40.572       33.912     1417.608     1646.068     1150.014        1.311        0.211      146.997       29.565        0.040      335.465        6.117      862.025
01/30/2015  20:52:00       -5.745      103.752       -6.054       50.241       56.828       41.819     2524.184     3229.380     1748.787        0.917        0.375      103.911       43.232        0.173      335.429        6.058      862.035
01/30/2015  20:53:00      -33.281      110.428      -17.106       39.878       43.734       18.765     1590.291     1912.647      352.142        0.872        0.193      115.335       18.874        0.027      335.547        6.253      862.066
01/30/2015  20:54:00      -24.304      250.664      -37.219       34.461       33.048       20.254     1187.588     1092.201      410.238        3.375        0.135      251.840       13.213        0.003      335.511        6.188      862.086
01/30/2015  20:55:00      -36.715      183.828      -31.170       41.689       40.789       18.547     1737.989     1663.754      343.975        1.993        0.187      187.459       19.084        0.010      335.413        6.031      862.118
01/30/2015  20:56:00      -39.355      168.698      -22.646       30.457       30.420       16.125      927.636      925.354      260.019        1.632        0.106      173.228        7.163        0.002      335.396        6.001      862.143
01/30/2015  20:57:00      -49.559      194.398      -27.641       45.228       37.462       26.145     2045.577     1403.401      683.554        2.257        0.207      200.616       20.664        0.011      335.368        5.953      862.168
01/30/2015  20:58:00      -49.078      175.662      -28.425       40.993       45.040       24.818     1680.445     2028.632      615.947        1.920        0.216      182.389       20.185        0.012      335.394        5.997      862.188
01/30/2015  20:59:00      -25.299      149.177      -27.458       27.557       46.423       18.284      759.403     2155.132      334.305        1.345        0.162      151.307       19.562        0.017      335.386        5.984      862.205
01/30/2015  21:00:00      -71.896      125.520      -29.195       39.245       31.995       21.910     1540.159     1023.708      480.044        1.241        0.152      144.653       21.608        0.022      335.471        6.127      862.213
01/30/2015  21:01:00      -65.899       82.120      -19.458       32.229       45.467       18.943     1038.694     2067.211      358.835        0.746        0.173      105.292       19.126        0.033      335.513        6.196      862.228
01/30/2015  21:02:00      -37.445       81.282      -15.132       39.568       34.744       22.398     1565.607     1207.135      501.649        0.576        0.164       89.492        9.404        0.011      335.430        6.057      862.240
01/30/2015  21:03:00      -45.631      124.590      -21.392       55.042       44.638       26.873     3029.581     1992.546      722.161        1.190        0.287      132.684       27.881        0.044      335.481        6.144      862.254
01/30/2015  21:04:00      -17.209      193.261      -25.004       33.770       50.177       23.833     1140.426     2517.683      568.031        2.125        0.211      194.026       19.519        0.010      335.422        6.043      862.281
01/30/2015  21:05:00      -72.029      126.306      -12.391       56.506       65.080       32.265     3192.929     4235.344     1041.045        1.488        0.423      145.401       38.876        0.071      335.458        6.104      862.304
01/30/2015  21:06:00      -44.063      163.239      -22.403       48.940       58.605       26.849     2395.144     3434.526      720.848        1.782        0.328      169.082       29.723        0.031      335.448        6.088      862.328
01/30/2015  21:07:00      -74.487      172.663      -28.036       45.864       46.534       20.714     2103.520     2165.414      429.074        2.042        0.235      188.045       19.630        0.011      335.382        5.977      862.347
01/30/2015  21:08:00      -59.938      156.557      -17.236       54.451       63.024       31.976     2964.919     3972.068     1022.483        1.818        0.398      167.638       26.452        0.025      335.398        6.003      862.361
01/30/2015  21:09:00      -81.570      161.157      -23.997       55.369       56.088       31.826     3065.700     3145.883     1012.915        2.021        0.361      180.624       20.817        0.013      335.432        6.060      862.385
01/30/2015  21:10:00      -31.479      171.695      -28.685       37.161       43.013       26.224     1380.961     1850.083      687.676        1.761        0.196      174.557       22.274        0.016      335.435        6.065      862.408
01/30/2015  21:11:00       34.831       99.005       -2.602       37.473       56.466       37.406     1404.198     3188.462     1399.179        0.851        0.300      104.953       37.378        0.127      335.244        5.748      862.432
01/30/2015  21:12:00       33.920       68.950        7.879       36.023       55.294       28.815     1297.660     3057.457      830.295        0.558        0.259       76.841       32.770        0.182      335.229        5.723      862.439
01/30/2015  21:13:00       17.846       81.131       -6.208       34.517       51.123       28.695     1191.436     2613.611      823.404        0.578        0.231       83.071       25.258        0.092      335.225        5.716      862.442
01/30/2015  21:14:00       -9.552      117.761      -16.212       30.390       46.238       18.967      923.525     2137.927      359.761        0.882        0.171      118.148       23.069        0.038      335.252        5.761      862.451
01/30/2015  21:15:00        5.079      184.600      -34.161       29.429       35.348       25.538      866.038     1249.509      652.182        1.902        0.138      184.670       24.435        0.018      335.296        5.833      862.450
01/30/2015  21:16:00      -10.072      133.703      -28.490       26.211       31.743        9.575      686.993     1007.590       91.672        1.029        0.089      134.081        3.455        0.001      335.255        5.765      862.453
01/30/2015  21:17:00      -29.414      198.408      -30.802       27.073       37.502       16.933      732.963     1406.418      286.719        2.180        0.121      200.576       12.715        0.004      335.306        5.850      862.461
01/30/2015  21:18:00      -26.249      152.048      -30.858       50.813       22.192       16.449     2582.005      492.488      270.562        1.405        0.167      154.297        7.143        0.002      335.285        5.816      862.455
01/30/2015  21:19:00      -38.824      133.030      -16.892       37.912       46.858       26.329     1437.347     2195.686      693.213        1.191        0.216      138.579       23.645        0.029      335.351        5.927      862.448
01/30/2015  21:20:00      -36.800      135.798      -21.044       37.496       62.899       30.205     1405.924     3956.296      912.357        1.326        0.314      140.696       38.035        0.073      335.329        5.889      862.432
01/30/2015  21:21:00      -41.088      225.309      -30.583       38.472       44.689       20.475     1480.058     1997.064      419.235        2.864        0.195      229.025       18.500        0.007      335.271        5.790      862.422
01/30/2015  21:22:00       -7.796      147.885      -24.435       37.934       43.058       19.385     1438.966     1853.978      375.792        1.310        0.183      148.090       13.945        0.009      335.222        5.711      862.407
01/30/2015  21:23:00       15.088       60.848       -4.923       33.617       37.726       21.467     1130.070     1423.249      460.835        0.348        0.151       62.691       16.973        0.073      335.125        5.551      862.394
01/30/2015  21:24:00       18.746       43.571        1.694       20.224       22.637       14.240      408.995      512.414      202.777        0.169        0.056       47.433       11.239        0.056      335.048        5.422      862.396
01/30/2015  21:25:00       35.491       51.117        2.542       27.403       26.026       17.401      750.903      677.354      302.781        0.280        0.087       62.230       16.842        0.073      335.020        5.376      862.424
01/30/2015  21:26:00       34.043       56.004       -1.854       28.246       45.676       23.507      797.823     2086.310      552.597        0.387        0.172       65.539       22.932        0.122      335.002        5.349      862.440
01/30/2015  21:27:00       34.749       72.677        0.912       32.317       39.189       28.573     1044.401     1535.789      816.426        0.494        0.170       80.558       24.948        0.096      335.017        5.373      862.452
01/30/2015  21:28:00       23.816       46.955       -8.527       17.966       32.618       13.475      322.763     1063.928      181.566        0.221        0.078       52.649       16.531        0.099      335.008        5.358      862.446
01/30/2015  21:29:00       22.487       74.960       -7.456       18.097       37.483       17.645      327.487     1404.950      311.346        0.411        0.102       78.261       18.916        0.058      335.002        5.347      862.452
01/30/2015  21:30:00       35.925       72.099      -10.610       41.770       33.475       19.541     1744.759     1120.573      381.848        0.492        0.162       80.553       10.400        0.017      334.987        5.323      862.445
01/30/2015  21:31:00       23.727      110.517       -3.423       54.364       74.194       24.180     2955.474     5504.790      584.656        1.092        0.452      113.035       26.622        0.055      334.975        5.301      862.432
01/30/2015  21:32:00       16.149      100.939       -2.667       39.230       53.587       27.974     1539.024     2871.565      782.531        0.782        0.260      102.223       31.959        0.098      334.944        5.250      862.430
01/30/2015  21:33:00       -3.349       92.699      -15.637       24.472       42.280       16.480      598.896     1787.619      271.580        0.575        0.133       92.760       17.081        0.034      334.934        5.234      862.434
01/30/2015  21:34:00        0.984      115.409      -17.865       28.456       45.512       18.137      809.765     2071.321      328.963        0.842        0.161      115.414       21.726        0.035      334.958        5.276      862.435
01/30/2015  21:35:00      -33.259      150.757      -23.649       38.420       36.232       20.263     1476.093     1312.730      410.595        1.380        0.160      154.382       16.151        0.011      335.067        5.455      862.437
01/30/2015  21:36:00      -28.768      178.494      -24.998       25.052       34.901       17.154      627.586     1218.057      294.271        1.773        0.107      180.797       17.793        0.010      335.064        5.452      862.449
01/30/2015  21:37:00      -69.809      207.088      -34.463       37.091       52.690       24.024     1375.725     2776.237      577.151        2.684        0.236      218.538       21.253        0.009      335.100        5.509      862.449
01/30/2015  21:38:00      -55.465      154.021      -26.211       50.095       67.901       24.651     2509.545     4610.520      607.694        1.761        0.386      163.704       21.913        0.018      335.104        5.515      862.454
01/30/2015  21:39:00      -34.422      235.649      -35.908       32.874       44.536       21.624     1080.712     1983.417      467.580        3.077        0.177      238.150       20.681        0.008      335.013        5.361      862.460
01/30/2015  21:40:00      -45.779      202.350      -27.051       38.636       45.980       24.784     1492.778     2114.181      614.245        2.400        0.211      207.464       20.145        0.009      334.974        5.300      862.475
01/30/2015  21:41:00      -36.550      187.668      -28.219       35.592       31.676       17.521     1266.806     1003.346      306.980        1.996        0.129      191.194       11.559        0.004      334.989        5.326      862.466
01/30/2015  21:42:00      -40.339      256.218      -35.820       38.747       41.805       18.804     1501.365     1747.680      353.601        3.608        0.180      259.374       16.113        0.004      334.918        5.203      862.468
01/30/2015  21:43:00      -22.131      226.772      -34.253       23.757       34.224       15.778      564.376     1171.312      248.957        2.754        0.099      227.849       14.243        0.004      334.925        5.217      862.460
01/30/2015  21:44:00      -18.374      192.779      -28.627       35.269       34.688       13.356     1243.915     1203.231      178.392        2.047        0.131      193.653       13.770        0.005      334.839        5.074      862.465
01/30/2015  21:45:00      -40.332      163.171      -22.855       26.690       29.059       19.627      712.354      844.400      385.222        1.536        0.097      168.082       11.767        0.005      334.930        5.227      862.465
01/30/2015  21:46:00      -73.992      199.204      -29.282       36.252       36.151       24.874     1314.241     1306.875      618.695        2.463        0.162      212.502       18.705        0.008      334.881        5.143      862.456
01/30/2015  21:47:00      -66.742      190.236      -29.616       34.748       48.114       21.917     1207.431     2314.911      480.338        2.276        0.200      201.604       20.868        0.011      334.920        5.209      862.450
01/30/2015  21:48:00      -38.979      198.448      -25.705       35.956       51.826       22.649     1292.817     2685.886      512.981        2.303        0.225      202.240       24.636        0.015      334.848        5.089      862.456
01/30/2015  21:49:00      -37.988      190.297      -24.907       29.773       50.376       24.580      886.407     2537.725      604.165        2.115        0.201      194.052       26.309        0.018      334.813        5.033      862.466
01/30/2015  21:50:00      -51.699      210.485      -27.436       39.967       58.915       27.446     1597.371     3470.937      753.281        2.677        0.291      216.741       29.258        0.018      334.802        5.011      862.485
01/30/2015  21:51:00      -69.092      234.096      -29.434       33.861       65.282       28.834     1146.583     4261.694      831.424        3.334        0.312      244.079       31.830        0.017      334.776        4.968      862.484
01/30/2015  21:52:00      -66.130      242.727      -29.599       41.989       92.534       30.637     1763.082     8562.451      938.645        3.771        0.563      251.574       37.714        0.022      334.796        5.003      862.481
01/30/2015  21:53:00      -59.934      257.689      -32.237       37.026       73.122       28.198     1370.929     5346.806      795.125        3.927        0.376      264.567       31.912        0.015      334.778        4.972      862.490
01/30/2015  21:54:00      -80.019      183.539      -25.718       56.586       48.512       31.385     3201.961     2353.455      985.004        2.364        0.327      200.224       23.875        0.014      334.798        5.006      862.516
01/30/2015  21:55:00      -65.186      260.535      -36.613       48.792       78.136       33.193     2380.673     6105.268     1101.770        4.153        0.479      268.566       34.210        0.016      334.841        5.077      862.529
01/30/2015  21:56:00      -52.657      224.567      -34.248       50.619       89.687       33.556     2562.237     8043.701     1126.020        3.305        0.587      230.658       38.029        0.027      334.867        5.119      862.541
01/30/2015  21:57:00      -74.601      253.528      -33.267       51.122       75.938       36.579     2613.460     5766.627     1338.032        4.033        0.486      264.276       40.725        0.024      334.887        5.152      862.549
01/30/2015  21:58:00      -41.585      194.848      -19.331       46.407       44.047       29.283     2153.605     1940.140      857.512        2.251        0.248      199.237       23.293        0.014      334.873        5.130      862.564
01/30/2015  21:59:00      -65.875      250.089      -35.958       64.360       74.694       29.183     4142.269     5579.245      851.653        3.937        0.529      258.619       31.413        0.015      334.899        5.173      862.573
01/30/2015  22:00:00      -70.244      249.833      -33.810       56.613      110.465       34.994     3205.051    12202.589     1224.560        4.256        0.832      259.521       43.207        0.028      334.982        5.311      862.572
01/30/2015  22:01:00      -47.708      245.561      -29.346       52.365       98.675       39.011     2742.105     9736.773     1521.829        3.872        0.700      250.153       43.294        0.030      334.989        5.324      862.561
01/30/2015  22:02:00      -56.655      234.274      -29.627       60.954       64.731       37.223     3715.443     4190.115     1385.521        3.413        0.465      241.027       33.597        0.019      334.916        5.198      862.559
01/30/2015  22:03:00      -78.163      276.158      -32.744       74.470       92.553       48.802     5545.784     8566.017     2381.603        4.997        0.825      287.006       47.181        0.027      334.970        5.291      862.549
01/30/2015  22:04:00      -74.159      278.588      -30.970       58.763       86.870       42.130     3453.102     7546.315     1774.933        4.842        0.639      288.289       36.124        0.016      334.989        5.324      862.531
01/30/2015  22:05:00      -51.158      161.569      -16.651       63.802       80.111       41.540     4070.666     6417.783     1725.572        2.060        0.611      169.475       37.173        0.048      334.990        5.326      862.530
01/30/2015  22:06:00     -100.462      158.956      -19.585       58.784       59.400       35.373     3455.534     3528.415     1251.234        2.199        0.412      188.042       40.284        0.046      334.942        5.246      862.538
01/30/2015  22:07:00      -81.880      125.874      -24.726       54.872       78.984       31.744     3010.978     6238.511     1007.673        1.671        0.513      150.162       31.490        0.044      335.042        5.414      862.551
01/30/2015  22:08:00      -46.426      158.682       -9.544       42.237       85.768       36.832     1783.948     7356.220     1356.610        1.896        0.525      165.334       47.563        0.083      335.021        5.378      862.572
01/30/2015  22:09:00      -46.590       61.308       -7.015       62.426       53.202       30.108     3897.001     2830.423      906.466        0.680        0.382       77.002       21.438        0.078      335.130        5.559      862.610
01/30/2015  22:10:00      -63.482      104.054      -23.828       47.565       47.530       32.216     2262.404     2259.055     1037.880        1.049        0.278      121.890       23.422        0.037      335.075        5.469      862.642
01/30/2015  22:11:00      -35.015       80.164      -11.171       39.619       41.910       23.495     1569.673     1756.467      552.020        0.583        0.194       87.478       13.901        0.025      335.100        5.509      862.670
01/30/2015  22:12:00      -27.089       43.083      -10.219       30.654       32.480       14.951      939.694     1054.935      223.539        0.246        0.111       50.892       19.559        0.148      335.152        5.596      862.706
01/30/2015  22:13:00       -2.081        0.846        8.264        9.349        9.280        7.692       87.395       86.116       59.168        0.015        0.012        2.247        6.212        7.643      334.965        5.286      862.730
01/30/2015  22:14:00        8.978       -9.786       -2.468       14.777       12.680        6.038      218.370      160.791       36.457        0.030        0.021       13.280        2.717        0.042      335.103        5.515      862.738
01/30/2015  22:15:00       -4.694      -65.787      -11.758       31.735       41.247       26.230     1007.096     1701.281      688.022        0.394        0.170       65.954       24.240        0.135      335.144        5.583      862.738
01/30/2015  22:16:00      -76.809      -38.886       -8.887       26.475       26.995       18.018      700.944      728.710      324.637        0.462        0.088       86.091        5.469        0.004      335.071        5.462      862.745
01/30/2015  22:17:00      -20.927      -41.278        4.386       50.297       30.244       23.827     2529.814      914.721      567.708        0.309        0.201       46.280       23.928        0.267      334.933        5.233      862.760
01/30/2015  22:18:00      -22.578      -41.339       25.650       56.248       55.646       30.452     3163.848     3096.498      927.318        0.503        0.359       47.103       31.050        0.435      334.773        4.966      862.748
01/30/2015  22:19:00      -33.398      -48.478       21.206       57.712       42.535       28.306     3330.671     1809.237      801.238        0.493        0.297       58.869       33.604        0.326      334.764        4.952      862.732
01/30/2015  22:20:00      -72.128      -41.199        9.925       38.804       24.396       19.057     1505.789      595.184      363.172        0.473        0.123       83.065       16.331        0.039      334.643        4.752      862.723
01/30/2015  22:21:00      -57.762      -40.688        0.743       41.892       28.106       23.898     1754.917      789.952      571.095        0.405        0.156       70.654       26.037        0.136      334.573        4.634      862.729
01/30/2015  22:22:00      -48.698      -42.755        0.758       39.095       40.778       18.895     1528.418     1662.841      357.005        0.387        0.177       64.803       11.054        0.029      334.592        4.666      862.750
01/30/2015  22:23:00      -51.980       58.778      -11.212       27.073       32.943       17.438      732.933     1085.224      304.075        0.420        0.106       78.465        9.473        0.015      334.749        4.926      862.771
01/30/2015  22:24:00      -61.865      -21.313       -0.121       35.057       28.287       17.484     1228.960      800.175      305.691        0.331        0.117       65.434       18.177        0.077      334.752        4.932      862.780
01/30/2015  22:25:00       -6.263      -51.284        2.953       19.867       17.190       13.289      394.711      295.512      176.606        0.177        0.043       51.665        8.000        0.024      334.727        4.890      862.799
01/30/2015  22:26:00      -14.073      -55.957        0.728       12.561       24.608        9.996      157.767      605.556       99.928        0.210        0.043       57.699        6.405        0.012      334.692        4.833      862.821
01/30/2015  22:27:00       -8.380       -9.609        5.496        6.081        7.918        7.114       36.983       62.701       50.614        0.017        0.008       12.750        5.114        0.161      334.674        4.803      862.828
01/30/2015  22:28:00      -25.969       -6.945        2.476       22.701       16.487        8.857      515.356      271.836       78.449        0.080        0.043       26.881        8.928        0.110      334.713        4.866      862.815
01/30/2015  22:29:00      -74.273      -23.489       -0.019       16.031       12.606        8.070      256.978      158.912       65.124        0.327        0.024       77.899        6.060        0.006      334.785        4.985      862.802
01/30/2015  22:30:00      -11.928      -14.072        2.587       29.914       16.559        8.295      894.830      274.205       68.815        0.079        0.062       18.447        4.142        0.050      334.695        4.837      862.798
01/30/2015  22:31:00       16.682       33.331        0.929       15.895       23.791       12.813      252.643      565.994      164.162        0.119        0.049       37.272       14.027        0.142      334.641        4.748      862.804
01/30/2015  22:32:00       -8.017       33.845       -7.286       12.046       12.772        9.229      145.115      163.130       85.170        0.083        0.020       34.782        3.997        0.013      334.685        4.820      862.805
01/30/2015  22:33:00        5.686       71.427      -17.601       14.394       19.332       10.874      207.189      373.724      118.249        0.307        0.035       71.653        2.753        0.001      334.618        4.709      862.796
01/30/2015  22:34:00       15.092      158.509      -25.918       19.064       42.598       14.680      363.446     1814.592      215.488        1.421        0.120      159.226       13.507        0.007      334.651        4.764      862.786
01/30/2015  22:35:00       29.156      133.682      -10.322       35.440       60.797       28.110     1255.971     3696.248      790.177        1.228        0.287      136.825       32.482        0.056      334.587        4.657      862.785
01/30/2015  22:36:00       -3.813      132.678      -20.112       35.186       24.590       20.175     1238.075      604.671      407.051        1.014        0.112      132.732       12.318        0.009      334.595        4.670      862.769
01/30/2015  22:37:00        4.026       67.718      -11.979       21.397       14.659        9.009      457.834      214.872       81.159        0.275        0.038       67.837        8.489        0.016      334.624        4.719      862.744
01/30/2015  22:38:00       -8.737       56.087      -10.576       11.850       11.793        6.870      140.431      139.077       47.195        0.183        0.016       56.763        5.203        0.008      334.638        4.741      862.712
01/30/2015  22:39:00      -29.262       62.241      -13.010       22.527       21.733       10.728      507.448      472.318      115.099        0.300        0.055       68.777        3.090        0.002      334.713        4.869      862.692
01/30/2015  22:40:00      -30.163       33.418       -9.558       20.746       15.628       10.117      430.415      244.227      102.347        0.145        0.039       45.017        7.200        0.026      334.722        4.885      862.686
01/30/2015  22:41:00      -26.153        9.109       -0.130       30.527       24.197       10.899      931.902      585.482      118.796        0.120        0.082       27.693        4.017        0.021      334.752        4.933      862.677
01/30/2015  22:42:00      -22.593        4.728      -10.519       23.066       17.131       12.895      532.040      293.483      166.271        0.082        0.050       23.082       12.838        0.309      334.785        4.987      862.685
01/30/2015  22:43:00      -18.543        1.598       -3.669       17.575       19.638        9.583      308.865      385.645       91.843        0.057        0.039       18.612        6.516        0.123      334.792        4.998      862.695
01/30/2015  22:44:00      -17.172       -3.989       -6.447       29.405       17.406       11.933      864.626      302.982      142.399        0.083        0.066       17.629       10.536        0.357      334.822        5.048      862.699
01/30/2015  22:45:00      -42.161      -12.566       -6.533       15.324       13.080       10.430      234.834      171.089      108.786        0.125        0.026       43.994        6.404        0.021      334.799        5.010      862.693
01/30/2015  22:46:00      -28.849      -14.017        4.754       30.641       15.215       15.163      938.888      231.500      229.907        0.123        0.070       32.074       13.851        0.186      334.687        4.824      862.690
01/30/2015  22:47:00      -80.524      -33.967       -6.773       26.037       19.443       10.369      677.902      378.019      107.508        0.442        0.058       87.395        6.269        0.005      334.758        4.940      862.692
01/30/2015  22:48:00      -84.595      -41.630       -0.216       42.227       25.366       18.016     1783.098      643.457      324.570        0.582        0.138       94.283       18.865        0.040      334.649        4.760      862.704
01/30/2015  22:49:00      -46.797      -47.135        0.048       43.383       30.115       23.800     1882.128      906.936      566.424        0.388        0.168       66.420       27.034        0.166      334.639        4.744      862.697
01/30/2015  22:50:00      -63.485      -67.620       -8.335       21.007       15.636       13.029      441.279      244.489      169.742        0.476        0.043       92.751        7.571        0.007      334.721        4.881      862.691
01/30/2015  22:51:00      -94.443      -39.366       -0.659       16.073       21.886       13.456      258.339      478.989      181.059        0.569        0.046      102.319        8.838        0.007      334.683        4.817      862.679
01/30/2015  22:52:00      -74.038      -27.409       -5.259       20.768       19.981       10.296      431.326      399.255      106.006        0.360        0.047       78.948        9.316        0.014      334.689        4.828      862.692
01/30/2015  22:53:00      -99.848      -49.410       -9.694       16.321       20.758       10.406      266.381      430.899      108.290        0.666        0.040      111.405        5.072        0.002      334.612        4.700      862.702
01/30/2015  22:54:00     -124.373      -55.260       -6.783       23.936       23.480       15.349      572.921      551.325      235.577        0.996        0.068      136.097       10.676        0.006      334.567        4.624      862.708
01/30/2015  22:55:00     -157.817      -62.602       -5.811       32.367       31.439       16.213     1047.632      988.383      262.864        1.558        0.115      169.780       12.374        0.005      334.436        4.406      862.718
01/30/2015  22:56:00     -186.274      -86.569       -2.427       48.215       39.041       25.621     2324.670     1524.165      656.426        2.335        0.225      205.408       21.757        0.011      334.351        4.264      862.727
01/30/2015  22:57:00     -115.810      -86.649       -1.537       56.672       31.973       28.981     3211.679     1022.264      839.907        1.300        0.254      144.638       19.291        0.018      334.328        4.227      862.731
01/30/2015  22:58:00     -155.815      -54.014       -1.755       52.383       46.535       26.483     2743.931     2165.513      701.348        1.640        0.281      164.912       25.072        0.023      334.357        4.275      862.738
01/30/2015  22:59:00     -122.595      -61.626        1.741       60.607       46.922       29.148     3673.227     2201.639      849.600        1.278        0.336      137.212       34.430        0.063      334.355        4.271      862.736
01/30/2015  23:00:00      -92.110      -86.699       -2.256       69.889       54.317       39.747     4884.487     2950.339     1579.860        1.271        0.471      126.494       34.271        0.073      334.401        4.349      862.736
01/30/2015  23:01:00     -164.685     -101.948       -0.191       66.493       46.115       34.329     4421.259     2126.550     1178.458        2.262        0.386      193.687       38.273        0.039      334.452        4.433      862.727
01/30/2015  23:02:00     -142.571     -113.922      -11.939       55.276       53.930       35.654     3055.452     2908.445     1271.224        2.034        0.362      182.495       31.292        0.029      334.414        4.369      862.720
01/30/2015  23:03:00      -71.833      -94.513        7.773       65.625       51.018       37.788     4306.671     2602.887     1427.969        1.124        0.417      118.713       43.520        0.134      334.585        4.653      862.722
01/30/2015  23:04:00     -142.097      -80.195       -1.207       47.703       36.131       22.723     2275.609     1305.442      516.348        1.536        0.205      163.165       24.250        0.022      334.651        4.762      862.714
01/30/2015  23:05:00     -133.548      -59.434      -12.193       34.196       38.689       21.305     1169.363     1496.840      453.887        1.232        0.156      146.176        7.930        0.003      334.487        4.491      862.732
01/30/2015  23:06:00     -142.816      -29.627       -8.627       36.255       31.374       24.598     1314.417      984.357      605.048        1.213        0.145      145.857       20.068        0.019      334.345        4.256      862.738
01/30/2015  23:07:00     -150.286      -49.667       -0.343       42.444       34.668       21.603     1801.459     1201.900      466.692        1.426        0.174      158.280       20.232        0.016      334.335        4.239      862.726
01/30/2015  23:08:00     -171.466      -56.974       -6.024       37.609       30.413       18.007     1414.401      924.944      324.247        1.767        0.133      180.684       16.791        0.009      334.367        4.292      862.719
01/30/2015  23:09:00     -113.874      -60.863        1.003       53.339       47.144       30.153     2845.081     2222.603      909.226        1.132        0.299      129.118       22.448        0.030      334.357        4.277      862.714
01/30/2015  23:10:00     -105.283      -29.511        6.742       70.363       47.622       27.253     4950.973     2267.857      742.739        0.998        0.398      109.341       37.085        0.115      334.308        4.195      862.711
01/30/2015  23:11:00     -122.584      -77.009       -3.621       39.172       42.665       25.792     1534.464     1820.295      665.219        1.249        0.201      144.766       22.920        0.025      334.452        4.435      862.733
01/30/2015  23:12:00     -107.801      -19.954      -13.939       24.810       24.866       16.804      615.531      618.319      282.362        0.686        0.076      109.632       15.323        0.020      334.523        4.552      862.757
01/30/2015  23:13:00     -135.933      -48.102      -15.660       39.172       28.822       14.359     1534.415      830.688      206.172        1.180        0.129      144.192       10.944        0.006      334.573        4.635      862.755
01/30/2015  23:14:00     -158.128      -78.434       -7.738       40.282       38.782       23.737     1622.628     1504.045      563.446        1.745        0.185      176.512       22.930        0.017      334.493        4.501      862.741
01/30/2015  23:15:00     -141.616      -98.527       -1.417       51.491       35.305       22.593     2651.280     1246.435      510.457        1.709        0.220      172.518       22.479        0.017      334.570        4.629      862.724
01/30/2015  23:16:00     -119.042      -56.695       -5.234       28.699       37.007       22.718      823.654     1369.506      516.096        1.006        0.135      131.854       16.051        0.015      334.550        4.596      862.730
01/30/2015  23:17:00     -133.128      -63.585       -3.911       69.175       41.101       30.534     4785.179     1689.265      932.342        1.459        0.370      147.533       33.119        0.050      334.560        4.611      862.750
01/30/2015  23:18:00     -105.272      -63.306       -2.484       67.206       50.732       31.922     4516.684     2573.716     1018.999        1.160        0.405      122.841       29.382        0.057      334.561        4.613      862.775
01/30/2015  23:19:00      -97.621       26.388       -5.746       43.771       36.847       20.035     1915.930     1357.724      401.406        0.697        0.184      101.124       19.849        0.039      334.588        4.659      862.816
01/30/2015  23:20:00     -117.967       -0.831      -12.293       43.172       22.921       18.468     1863.817      525.367      341.071        0.840        0.137      117.970       17.797        0.023      334.691        4.830      862.813
01/30/2015  23:21:00     -137.291      -15.584      -17.229       27.677       26.896       20.344      765.990      723.379      413.888        1.065        0.095      138.172       15.759        0.013      334.675        4.805      862.812
01/30/2015  23:22:00     -156.936      -92.569       -4.322       36.112       32.295       24.636     1304.074     1042.989      606.943        1.808        0.148      182.203       24.474        0.018      334.615        4.704      862.807
01/30/2015  23:23:00     -100.751      -93.259        9.340       68.491       47.332       37.352     4691.012     2240.359     1395.191        1.363        0.416      137.288       37.424        0.074      334.518        4.543      862.788
01/30/2015  23:24:00      -59.035      -60.590        1.316       43.144       49.737       30.478     1861.397     2473.791      928.887        0.621        0.263       84.595       29.477        0.121      334.493        4.501      862.784
01/30/2015  23:25:00     -128.643       26.133       -4.649       51.507       38.754       24.250     2652.951     1501.834      588.060        1.100        0.237      131.271       25.131        0.037      334.554        4.604      862.790
01/30/2015  23:26:00     -119.204       -9.209       -6.845       44.878       45.394       24.183     2014.016     2060.638      584.822        0.950        0.233      119.559       22.629        0.036      334.517        4.541      862.793
01/30/2015  23:27:00     -149.567      -29.221      -13.116       38.939       27.854       23.207     1516.272      775.873      538.565        1.311        0.142      152.395       21.663        0.020      334.400        4.348      862.780
01/30/2015  23:28:00      -93.486       -5.794       -6.892       39.203       27.972       22.764     1536.868      782.450      518.184        0.583        0.142       93.666       19.986        0.046      334.320        4.215      862.777
01/30/2015  23:29:00     -117.853       -1.282      -12.925       43.098       21.562       17.811     1857.457      464.940      317.227        0.835        0.132      117.860       19.941        0.029      334.216        4.042      862.782
01/30/2015  23:30:00      -80.838      -34.734        3.544       38.573       33.300       16.527     1487.853     1108.920      273.150        0.531        0.143       87.984       13.284        0.023      334.262        4.119      862.775
01/30/2015  23:31:00      -83.775       24.622       -4.230       27.129       33.589       19.500      735.956     1128.215      380.241        0.494        0.112       87.318       16.005        0.034      334.550        4.596      862.786
01/30/2015  23:32:00     -115.939       32.042      -16.529       30.080       25.615       16.420      904.803      656.129      269.605        0.829        0.092      120.286       10.908        0.008      334.558        4.610      862.790
01/30/2015  23:33:00     -100.603      -34.339       -3.434       54.859       42.340       24.202     3009.554     1792.694      585.729        0.835        0.269      106.302       28.368        0.071      334.310        4.198      862.784
01/30/2015  23:34:00     -108.147      -41.964      -12.985       36.642       29.194       22.504     1342.619      852.299      506.432        0.816        0.135      116.003       19.316        0.028      334.321        4.217      862.791
01/30/2015  23:35:00      -96.702      -22.718       -9.584       33.909       26.185       18.944     1149.802      685.662      358.874        0.608        0.110       99.334       19.477        0.038      334.311        4.202      862.805
01/30/2015  23:36:00     -100.932      -16.447       -6.274       47.195       34.322       21.430     2227.382     1177.975      459.261        0.718        0.193      102.263       19.730        0.037      334.305        4.191      862.819
01/30/2015  23:37:00     -121.084        5.611       -6.282       52.759       34.904       24.489     2783.547     1218.316      599.695        0.967        0.230      121.214       30.956        0.065      334.212        4.034      862.834
01/30/2015  23:38:00     -107.326       29.445      -14.314       46.280       23.505       14.700     2141.872      552.498      216.085        0.775        0.146      111.292       13.426        0.015      334.259        4.113      862.851
01/30/2015  23:39:00     -132.156       62.659      -24.396       26.177       28.996       17.351      685.248      840.775      301.069        1.191        0.091      146.258       14.811        0.010      334.130        3.900      862.853
01/30/2015  23:40:00     -126.621       38.684      -14.482       30.402       30.962       20.554      924.283      958.620      422.453        1.002        0.115      132.399       15.416        0.014      334.140        3.916      862.851
01/30/2015  23:41:00     -171.603        5.173      -28.185       42.289       28.907       18.811     1788.320      835.634      353.851        1.662        0.149      171.681       20.423        0.014      333.947        3.595      862.851
01/30/2015  23:42:00     -104.899       35.040      -19.884       24.258       44.375       20.662      588.437     1969.181      426.932        0.781        0.149      110.597       15.766        0.020      333.884        3.493      862.860
01/30/2015  23:43:00     -140.396       26.220      -18.177       32.953       39.143       19.548     1085.931     1532.182      382.135        1.186        0.150      142.823       19.204        0.018      333.858        3.448      862.866
01/30/2015  23:44:00     -107.431      -29.632       -5.579       33.577       36.734       20.655     1127.438     1349.370      426.626        0.768        0.145      111.443       12.987        0.014      333.738        3.250      862.857
01/30/2015  23:45:00     -117.157      -22.607       -3.016       32.141       45.201       25.341     1033.048     2043.106      642.189        0.898        0.186      119.318       13.923        0.014      333.718        3.217      862.845
01/30/2015  23:46:00     -145.072        8.904      -15.914       36.602       44.983       21.501     1339.732     2023.489      462.306        1.260        0.191      145.345       21.883        0.023      333.657        3.115      862.848
01/30/2015  23:47:00     -123.205       22.980      -14.321       37.636       34.072       17.595     1416.446     1160.876      309.596        0.940        0.144      125.330       17.307        0.019      333.592        3.009      862.850
01/30/2015  23:48:00     -171.330       38.437      -19.360       29.708       28.276       22.575      882.591      799.514      509.611        1.670        0.110      175.588       17.357        0.010      333.772        3.306      862.852
01/30/2015  23:49:00     -114.984       -8.865       -8.825       42.668       28.743       24.885     1820.521      826.148      619.260        0.832        0.163      115.325       25.661        0.050      333.666        3.129      862.855
01/30/2015  23:50:00     -115.152       39.037       -6.087       33.365       27.636       20.978     1113.243      763.749      440.078        0.857        0.116      121.589       13.449        0.012      333.833        3.407      862.873
01/30/2015  23:51:00      -85.893       26.429       -9.600       32.527       26.864       18.345     1058.003      721.690      336.556        0.514        0.106       89.867       17.522        0.038      333.742        3.257      862.888
01/30/2015  23:52:00     -104.391       28.570      -12.585       39.128       32.187       24.772     1530.993     1035.990      613.635        0.753        0.159      108.230       22.291        0.042      333.741        3.255      862.894
01/30/2015  23:53:00     -114.499        5.596      -15.077       41.348       34.626       24.701     1709.641     1198.950      610.159        0.844        0.176      114.636       28.244        0.061      333.786        3.328      862.900
01/30/2015  23:54:00     -111.956      -20.910       -6.875       34.406       27.899       20.549     1183.784      778.339      422.247        0.770        0.119      113.892       20.429        0.032      333.705        3.194      862.925
01/30/2015  23:55:00     -123.237       -9.783       -2.678       39.022       35.556       24.186     1522.678     1264.233      584.944        0.933        0.169      123.625       23.544        0.036      333.660        3.121      862.950
01/30/2015  23:56:00      -67.726        2.933       -3.219       34.791       26.657       18.540     1210.443      710.613      343.734        0.343        0.113       67.790       15.722        0.054      333.553        2.941      862.972
01/30/2015  23:57:00      -48.435      -36.177      -11.884       21.288       18.193        8.929      453.198      330.982       79.730        0.233        0.043       60.455        8.638        0.020      333.612        3.040      862.980
01/30/2015  23:58:00      -38.839      -31.313       -1.402       17.834       12.347       13.242      318.047      152.451      175.342        0.157        0.032       49.889        3.491        0.005      333.624        3.061      862.993
01/30/2015  23:59:00     -105.130      -28.762       -9.038       27.498       26.173       17.477      756.164      685.037      305.441        0.685        0.087      108.993       15.893        0.021      333.440        2.756      863.005
